[[{"header":{"parameterUnit":"m.s-1","parameterCategory":1,"la1":31.0,"la2":29.5877,"lo1":-88.7671,"lo2":-86.6584,"dy":0.0162,"dx":0.0185,"nx":115,"ny":88,"refTime":"2026-05-16T12:00:00:Z","depth":0,"parameterNumber":2,"parameterNumberName":"U-component_of_WINDS"},"data":[0.0,0.0,0.0,0.0,0.0,0.0,0.0,0.0,0.0,0.0,0.0,0.0,0.0,0.0,0.0,0.0,0.0,0.0,0.0,0.0,0.0,0.0,0.0,0.0,0.0,0.0,0.0,0.0,0.0,0.0,0.0,0.0,0.0,0.0,0.0,0.0,0.0,0.0,0.0,0.0,0.0,0.0,0.0,0.0,0.0,0.0,0.0,0.0,0.0,0.0,0.0,0.0,0.0,0.0,0.0,0.0,0.0,0.0,0.0,0.0,0.0,0.0,0.0,0.0,0.0,0.0,0.0,0.0,0.0,0.0,0.0,0.0,0.0,0.0,0.0,0.0,0.0,0.0,0.0,0.0,0.0,0.0,0.0,0.0,0.0,0.0,0.0,0.0,0.0,0.0,0.0,0.0,0.0,0.0,0.0,0.0,0.0,0.0,0.0,0.0,0.0,0.0,0.0,0.0,0.0,0.0,0.0,0.0,0.0,0.0,0.0,0.0,0.0,0.0,0.0,0.0,0.0,0.0,0.0,0.0,0.0,0.0,0.0,0.0,0.0,0.0,0.0,0.0,0.0,0.0,0.0,0.0,0.0,0.0,0.0,0.0,0.0,0.0,0.0,0.0,0.0,0.0,0.0,0.0,0.0,0.0,0.0,0.0,0.0,0.0,0.0,0.0,0.0,0.0,0.0,0.0,0.0,0.0,0.0,0.0,0.0,0.0,0.0,0.0,0.0,0.0,0.0,0.0,0.0,0.0,0.0,0.0,0.0,0.0,0.0,0.0,0.0,0.0,0.0,0.0,0.0,0.0,0.0,0.0,0.0,0.0,0.0,0.0,0.0,0.0,0.0,0.0,0.0,0.0,0.0,0.0,0.0,0.0,0.0,0.0,0.0,0.0,0.0,0.0,0.0,0.0,0.0,0.0,0.0,0.0,0.0,0.0,0.0,0.0,0.0,0.0,0.0,0.0,0.0,0.0,0.0,0.0,0.0,0.0,0.0,0.0,0.0,0.0,0.0,0.0,0.0,0.0,0.0,0.0,0.0,0.0,0.0,0.0,0.0,0.0,0.0,0.0,0.0,0.0,0.0,0.0,0.0,0.0,0.0,0.0,0.0,0.0,0.0,0.0,0.0,0.0,0.0,0.0,0.0,0.0,0.0,0.0,0.0,0.0,0.0,0.0,0.0,0.0,0.0,0.0,0.0,0.0,0.0,0.0,0.0,0.0,0.0,0.0,0.0,0.0,0.0,0.0,0.0,0.0,0.0,0.0,0.0,0.0,0.0,0.0,0.0,0.0,0.0,0.0,0.0,0.0,0.0,0.0,0.0,0.0,0.0,0.0,0.0,0.0,0.0,0.0,0.0,0.0,0.0,0.0,0.0,0.0,0.0,0.0,0.0,0.0,0.0,0.0,0.0,0.0,0.0,0.0,0.0,0.0,0.0,0.0,0.0,0.0,0.0,0.0,0.0,0.0,0.0,0.0,0.0,0.0,0.0,0.0,0.0,0.0,0.0,0.0,0.0,0.0,0.0,0.0,0.0,0.0,0.0,0.0,0.0,0.0,0.0,0.0,0.0,0.0,0.0,0.0,0.0,0.0,0.0,0.0,0.0,0.0,0.0,0.0,0.0,0.0,0.0,0.0,0.0,0.0,0.0,0.0,0.0,0.0,0.0,0.0,0.0,0.0,0.0,0.0,0.0,0.0,0.0,0.0,0.0,0.0,0.0,0.0,0.0,0.0,0.0,0.0,0.0,0.0,0.0,0.0,0.0,0.0,0.0,0.0,0.0,0.0,0.0,0.0,0.0,0.0,0.0,0.0,0.0,0.0,0.0,0.0,0.0,0.0,0.0,0.0,0.0,0.0,0.0,0.0,0.0,0.0,0.0,0.0,0.0,0.0,0.0,0.0,0.0,0.0,0.0,0.0,0.0,0.0,0.0,0.0,0.0,0.0,0.0,0.0,0.0,0.0,0.0,0.0,0.0,0.0,0.0,0.0,0.0,0.0,0.0,0.0,0.0,0.0,0.0,0.0,0.0,0.0,0.0,0.0,0.0,0.0,0.0,0.0,0.0,0.0,0.0,0.0,0.0,0.0,0.0,0.0,0.0,0.0,0.0,0.0,0.0,0.0,0.0,0.0,0.0,0.0,0.0,0.0,0.0,0.0,0.0,0.0,0.0,0.0,0.0,0.0,0.0,0.0,0.0,0.0,0.0,0.0,0.0,0.0,0.0,0.0,0.0,0.0,0.0,0.0,0.0,0.0,0.0,0.0,0.0,0.0,0.0,0.0,0.0,0.0,0.0,0.0,0.0,0.0,0.0,0.0,0.0,0.0,0.0,0.0,0.0,0.0,0.0,0.0,0.0,0.0,0.0,0.0,0.0,0.0,0.0,0.0,0.0,0.0,0.0,0.0,0.0,0.0,0.0,0.0,0.0,0.0,0.0,0.0,0.0,0.0,0.0,0.0,0.0,0.0,0.0,0.0,0.0,0.0,0.0,0.0,0.0,0.0,0.0,0.0,0.0,0.0,0.0,0.0,0.0,0.0,0.0,0.0,0.0,0.0,0.0,0.0,0.0,0.0,0.0,0.0,0.0,0.0,0.0,0.0,0.0,0.0,0.0,0.0,0.0,0.0,0.0,0.0,0.0,0.0,0.0,0.0,0.0,0.0,0.0,0.0,0.0,0.0,0.0,0.0,0.0,0.0,0.0,0.0,0.0,0.0,0.0,0.0,0.0,0.0,0.0,0.0,0.0,0.0,0.0,0.0,0.0,0.0,0.0,0.0,0.0,0.0,0.0,0.0,0.0,0.0,0.0,0.0,0.0,0.0,0.0,0.0,0.0,0.0,0.0,0.0,0.0,0.0,0.0,0.0,0.0,0.0,0.0,0.0,0.0,0.0,0.0,0.0,0.0,0.0,0.0,0.0,0.0,0.0,0.0,0.0,0.0,0.0,0.0,0.0,0.0,0.0,0.0,0.0,0.0,0.0,0.0,0.0,0.0,0.0,0.0,0.0,0.0,0.0,0.0,0.0,0.0,0.0,0.0,0.0,0.0,0.0,0.0,0.0,0.0,0.0,0.0,0.0,0.0,0.0,0.0,0.0,0.0,0.0,0.0,0.0,0.0,0.0,0.0,0.0,0.0,0.0,0.0,0.0,0.0,0.0,0.0,0.0,0.0,0.0,0.0,0.0,0.0,0.0,0.0,0.0,0.0,0.0,0.0,0.0,0.0,0.0,0.0,0.0,0.0,0.0,0.0,0.0,0.0,0.0,0.0,0.0,0.0,0.0,0.0,0.0,0.0,0.0,0.0,0.0,0.0,0.0,0.0,0.0,0.0,0.0,0.0,0.0,0.0,0.0,0.0,0.0,0.0,0.0,0.0,0.0,0.0,0.0,0.0,0.0,0.0,0.0,0.0,0.0,0.0,0.0,0.0,0.0,0.0,0.0,0.0,0.0,0.0,0.0,0.0,0.0,0.0,0.0,0.0,0.0,0.0,0.0,0.0,0.0,0.0,0.0,0.0,0.0,0.0,0.0,0.0,0.0,0.0,0.0,0.0,0.0,0.0,0.0,0.0,0.0,0.0,0.0,0.0,0.0,0.0,0.0,0.0,0.0,0.0,0.0,0.0,0.0,0.0,0.0,0.0,0.0,0.0,0.0,0.0,0.0,0.0,0.0,0.0,0.0,0.0,0.0,0.0,0.0,0.0,0.0,0.0,0.0,0.0,0.0,0.0,0.0,0.0,0.0,0.0,0.0,0.0,0.0,0.0,0.0,0.0,0.0,0.0,0.0,0.0,0.0,0.0,0.0,0.0,0.0,0.0,0.0,0.0,0.0,0.0,0.0,0.0,0.0,0.0,0.0,0.0,0.0,0.0,0.0,0.0,0.0,0.0,0.0,0.0,0.0,0.0,0.0,0.0,0.0,0.0,0.0,0.0,0.0,0.0,0.0,0.0,0.0,0.0,0.0,0.0,0.0,0.0,0.0,0.0,0.0,0.0,0.0,0.0,0.0,0.0,0.0,0.0,0.0,0.0,0.0,0.0,0.0,0.0,0.0,0.0,0.0,0.0,0.0,0.0,0.0,0.0,0.0,0.0,0.0,0.0,0.0,0.0,0.0,0.0,0.0,0.0,0.0,0.0,0.0,0.0,0.0,0.0,0.0,0.0,0.0,0.0,0.0,0.0,0.0,0.0,0.0,0.0,0.0,0.0,0.0,0.0,0.0,0.0,0.0,0.0,0.0,0.0,0.0,0.0,0.0,0.0,0.0,0.0,0.0,-0.1031,0.0,0.0,0.0,0.0,0.0,0.0,0.0,0.0,0.0,0.0,0.0,0.0,0.0,0.0,0.0,0.0,0.0,0.0,0.0,0.0,0.0,0.0,0.0,0.0,0.0,0.0,0.0,0.0,0.0,0.0,0.0,0.0,0.0,0.0,0.0,0.0,0.0,0.0,0.0,0.0,0.0,0.0,0.0,0.0,0.0,0.0,0.0,0.0,0.0,0.0,0.0,0.0,0.0,0.0,0.0,0.0,0.0,0.0,0.0,0.0,0.0,0.0,0.0,0.0,0.0,0.0,0.0,0.0,0.0,0.0,0.0,0.0,0.0,0.0,0.0,0.0,0.0,0.0,0.0,0.0,0.0,0.0,0.0,0.0,0.0,0.0,0.0,0.0,0.0,0.0,0.0,0.0,0.0,0.0,0.0,0.0,0.0,0.0,0.0,0.0,0.0,0.0,0.0,0.0,0.0,0.0,0.0,0.0,0.0,0.0,-0.1497,-0.1312,-0.122,-0.1117,-0.0962,0.0,0.0,0.0,0.0,0.0,0.0,0.0,0.0,0.0,0.0,0.0,0.0,0.0,0.0,0.0,0.0,0.0,0.0,0.0,0.0,0.0,0.0,0.0,0.0,0.0,0.0,0.0,0.0,0.0,0.0,0.0,0.0,0.0,0.0,0.0,0.0,0.0,0.0,0.0,0.0,0.0,0.0,0.0,0.0,0.0,0.0,0.0,0.0,0.0,0.0,0.0,0.0,0.0,0.0,0.0,0.0,0.0,0.0,0.0,0.0,0.0,0.0,0.0,0.0,0.0,0.0,0.0,0.0,0.0,0.0,0.0,0.0,0.0,0.0,0.0,0.0,0.0,0.0,0.0,0.0,0.0,0.0,0.0,0.0,0.0,0.0,0.0,0.0,0.0,0.0,0.0,0.0,0.0,0.0,0.0,0.0,0.0,0.0,0.0,0.0,0.0,0.0,0.0,0.0,0.0,0.0,0.0,0.0,0.0,0.0,0.0,0.0,-0.1288,-0.1132,-0.0988,0.0,0.0,0.0,0.0,0.0,0.0,0.0,0.0,0.0,0.0,0.0,0.0,0.0,0.0,0.0,0.0,0.0,0.0,0.0,0.0,0.0,0.0,0.0,0.0,0.0,0.0,0.0,0.0,0.0,0.0,0.0,0.0,0.0,0.0,0.0,0.0,0.0,0.0,0.0,0.0,0.0,0.0,0.0,0.0,0.0,0.0,0.0,0.0,0.0,0.0,0.0,0.0,0.0,0.0,0.0,0.0,0.0,0.0,0.0,0.0,0.0,0.0,0.0,0.0,0.0,0.0,0.0,0.0,0.0,0.0,0.0,0.0,0.0,0.0,0.0,0.0,0.0,0.0,0.0,0.0,0.0,0.0,0.0,0.0,0.0,0.0,0.0,0.0,0.0,0.0,0.0,0.0,0.0,0.0,0.0,0.0,0.0,0.0,0.0,0.0,0.0,0.0,0.0,0.0,0.0,0.0,0.0,0.0,0.0,0.0,-0.1616,-0.1656,-0.1411,0.0,-0.1187,0.0,0.0,0.0,0.0,0.0,0.0,0.0,0.0,0.0,0.0,0.0,0.0,0.0,0.0,0.0,0.0,0.0,0.0,0.0,0.0,0.0,0.0,0.0,0.0,0.0,0.0,0.0,0.0,0.0,0.0,0.0,0.0,0.0,0.0,0.0,0.0,0.0,0.0,0.0,0.0,0.0,0.0,0.0,0.0,0.0,0.0,0.0,0.0,0.0,0.0,0.0,0.0,0.0,0.0,0.0,0.0,0.0,0.0,0.0,0.0,0.0,0.0,0.0,0.0,0.0,0.0,0.0,0.0,0.0,0.0,0.0,0.0,0.0,0.0,0.0,0.0,0.0,0.0,0.0,0.0,0.0,0.0,0.0,0.0,0.0,0.0,0.0,0.0,0.0,0.0,0.0,0.0,0.0,0.0,0.0,0.0,0.0,0.0,0.0,0.0,0.0,0.0,0.0,0.0,0.0,0.0,0.0,0.0,0.0,0.0,-0.1956,-0.2112,-0.1933,-0.1737,0.0,0.0,0.0,0.0,0.0,0.0,0.0,0.0,0.0,0.0,0.0,0.0,0.0,0.0,0.0,0.0,0.0,0.0,0.0,0.0,0.0,0.0,0.0,0.0,0.0,0.0,0.0,0.0,0.0,0.0,0.0,0.0,0.0,0.0,0.0,0.0,0.0,0.0,0.0,0.0,0.0,0.0,0.0,0.0,0.0,0.0,0.0,0.0,0.0,0.0,0.0,0.0,0.0,0.0,0.0,0.0,0.0,0.0,0.0,0.0,0.0,0.0,0.0,0.0,0.0,0.0,0.0,0.0,0.0,0.0,0.0,0.0,0.0,0.0,0.0,0.0,0.0,0.0,0.0,0.0,0.0,0.0,0.0,0.0,0.0,0.0,0.0,0.0,0.0,0.0,0.0,0.0,0.0,0.0,0.0,0.0,0.0,0.0,0.0,0.0,0.0,0.0,0.0,0.0,0.0,0.0,0.0,0.0,0.0,0.0,-0.1923,0.0,-0.214,-0.215,-0.1999,-0.1683,0.0,0.0,0.0,0.0,0.0,0.0,0.0,0.0,0.0,0.0,0.0,0.0,0.0,0.0,0.0,0.0,0.0,0.0,0.0,0.0,0.0,0.0,0.0,0.0,0.0,0.0,0.0,0.0,0.0,0.0,0.0,0.0,0.0,0.0,0.0,0.0,0.0,0.0,0.0,0.0,0.0,0.0,0.0,0.0,0.0,0.0,0.0,0.0,0.0,0.0,0.0,0.0,0.0,0.0,0.0,0.0,0.0,0.0,0.0,0.0,0.0,0.0,0.0,0.0,0.0,0.0,0.0,0.0,0.0,0.0,0.0,0.0,0.0,0.0,0.0,0.0,0.0,0.0,0.0,0.0,0.0,0.0,0.0,0.0,0.0,0.0,0.0,0.0,0.0,0.0,0.0,0.0,0.0,0.0,0.0,0.0,0.0,0.0,0.0,0.0,0.0,0.0,0.0,0.0,0.0,0.0,0.0,0.0,0.0,-0.1753,-0.1673,-0.1587,-0.1852,-0.1792,0.0,0.0,0.0,0.0,0.0,0.0,0.0,0.0,0.0,0.0,0.0,0.0,0.0,0.0,0.0,0.0,0.0,0.0,0.0,0.0,0.0,0.0,0.0,0.0,0.0,0.0,0.0,0.0,0.0,0.0,0.0,0.0,0.0,0.0,0.0,0.0,0.0,0.0,0.0,0.0,0.0,0.0,0.0,0.0,0.0,0.0,0.0,0.0,0.0,0.0,0.0,0.0,0.0,0.0,0.0,0.0,0.0,0.0,0.0,0.0,0.0,0.0,0.0,0.0,0.0,0.0,0.0,0.0,0.0,0.0,0.0,0.0,0.0,0.0,0.0,0.0,0.0,0.0,0.0,0.0,0.0,0.0,0.0,0.0,0.0,0.0,0.0,0.0,0.0,0.0,0.0,0.0,0.0,0.0,0.0,0.0,0.0,0.0,0.0,0.0,0.0,0.0,0.0,0.0,0.0,0.0,0.0,0.0,0.0,-0.1806,-0.2022,-0.2108,-0.2017,-0.2087,-0.1981,0.0,0.0,0.0,0.0,0.0,0.0,0.0,0.0,0.0,0.0,0.0,0.0,0.0,0.0,0.0,0.0,0.0,0.0,0.0,0.0,0.0,0.0,0.0,0.0,0.0,0.0,0.0,0.0,0.0,0.0,0.0,0.0,0.0,0.0,0.0,0.0,0.0,0.0,0.0,0.0,0.0,0.0,0.0,0.0,0.0,0.0,0.0,0.0,0.0,0.0,0.0,0.0,0.0,0.0,0.0,0.0,0.0,0.0,0.0,0.0,0.0,0.0,0.0,0.0,0.0,0.0,0.0,0.0,0.0,0.0,0.0,0.0,0.0,0.0,0.0,0.0,0.0,0.0,0.0,0.0,0.0,0.0,0.0,0.0,0.0,0.0,0.0,0.0,0.0,0.0,0.0,0.0,0.0,0.0,0.0,0.0,0.0,0.0,0.0,0.0,0.0,0.0,0.0,0.0,0.0,0.0,0.0,0.0,0.0,-0.187,0.0,-0.2323,0.0,-0.2052,-0.1906,0.0,0.0,0.0,0.0,0.0,0.0,0.0,0.0,0.0,0.0,0.0,0.0,0.0,0.0,0.0,0.0,0.0,0.0,0.0,0.0,0.0,0.0,0.0,0.0,0.0,0.0,0.0,0.0,0.0,0.0,0.0,0.0,0.0,0.0,0.0,0.0,0.0,0.0,0.0,0.0,0.0,0.0,0.0,0.0,0.0,0.0,0.0,0.0,0.0,0.0,0.0,0.0,0.0,0.0,0.0,0.0,0.0,0.0,0.0,0.0,0.0,0.0,0.0,0.0,0.0,0.0,0.0,0.0,0.0,0.0,0.0,0.0,0.0,0.0,0.0,0.0,0.0,0.0,0.0,0.0,0.0,0.0,0.0,0.0,0.0,0.0,0.0,0.0,0.0,0.0,0.0,0.0,0.0,0.0,0.0,0.0,0.0,0.0,0.0,0.0,0.0,0.0,0.0,0.0,0.0,0.0,0.0,0.0,-0.1878,-0.2017,-0.2333,-0.225,-0.1733,-0.1708,-0.1551,0.0,0.0,0.0,0.0,0.0,0.0,0.0,0.0,0.0,0.0,0.0,0.0,0.0,0.0,0.0,0.0,0.0,0.0,0.0,0.0,0.0,0.0,0.0,0.0,0.0,0.0,0.0,0.0,0.0,0.0,0.0,0.0,0.0,0.0,0.0,0.0,0.0,0.0,0.0,0.0,0.0,0.0,0.0,0.0,0.0,0.0,0.0,0.0,0.0,0.0,0.0,0.0,0.0,0.0,0.0,0.0,0.0,0.0,0.0,0.0,0.0,0.0,0.0,0.0,0.0,0.0,0.0,0.0,0.0,0.0,0.0,0.0,0.0,0.0,0.0,0.0,0.0,0.0,0.0,0.0,0.0,0.0,0.0,0.0,0.0,0.0,0.0,0.0,0.0,0.0,0.0,0.0,0.0,0.0,0.0,0.0,0.0,0.0,0.0,0.0,0.0,0.0,0.0,0.0,0.0,0.0,0.0,0.0,0.0,-0.2481,-0.2436,-0.2291,-0.198,-0.162,-0.1352,0.0,0.0,0.0,0.0,0.0,0.0,0.0,0.0,0.0,0.0,0.0,0.0,0.0,0.0,0.0,0.0,0.0,0.0,0.0,0.0,0.0,0.0,0.0,0.0,0.0,0.0,0.0,0.0,0.0,0.0,0.0,0.0,0.0,0.0,0.0,0.0,0.0,0.0,0.0,0.0,0.0,0.0,0.0,0.0,0.0,0.0,0.0,0.0,0.0,0.0,0.0,0.0,0.0,0.0,0.0,0.0,0.0,0.0,0.0,0.0,0.0,0.0,0.0,0.0,0.0,0.0,0.0,0.0,0.0,0.0,0.0,0.0,0.0,0.0,0.0,0.0,0.0,0.0,0.0,0.0,0.0,0.0,0.0,0.0,0.0,0.0,0.0,0.0,0.0,0.0,0.0,0.0,0.0,0.0,0.0,0.0,0.0,0.0,0.0,0.0,0.0,0.0,0.0,0.0,0.0,0.0,0.0,0.0,0.0,-0.2919,-0.2804,-0.2587,-0.2262,-0.1831,-0.1507,-0.133,0.0,0.0,0.0,0.0,0.0,0.0,0.0,0.0,0.0,0.0,0.0,0.0,0.0,0.0,0.0,0.0,0.0,0.0,0.0,0.0,0.0,0.0,0.0,0.0,0.0,0.0,0.0,0.0,0.0,0.0,0.0,0.0,0.0,0.0,0.0,0.0,0.0,0.0,0.0,0.0,0.0,0.0,0.0,0.0,0.0,0.0,0.0,0.0,0.0,0.0,0.0,0.0,0.0,0.0,0.0,0.0,0.0,0.0,0.0,0.0,0.0,0.0,0.0,0.0,0.0,0.0,0.0,0.0,0.0,0.0,0.0,0.0,0.0,0.0,0.0,0.0,0.0,0.0,0.0,0.0,0.0,0.0,0.0,0.0,0.0,0.0,0.0,0.0,0.0,0.0,0.0,0.0,0.0,0.0,0.0,0.0,0.0,0.0,0.0,0.0,0.0,0.0,0.0,0.0,0.0,0.0,0.0,0.0,-0.3289,-0.3319,-0.309,-0.2566,-0.2295,-0.1947,0.0,0.0,0.0,0.0,0.0,0.0,0.0,0.0,0.0,0.0,0.0,0.0,0.0,0.0,0.0,0.0,0.0,0.0,0.0,0.0,0.0,0.0,0.0,0.0,0.0,0.0,0.0,0.0,0.0,0.0,0.0,0.0,0.0,0.0,0.0,0.0,0.0,0.0,0.0,0.0,0.0,0.0,0.0,0.0,0.0,0.0,0.0,0.0,0.0,0.0,0.0,0.0,0.0,0.0,0.0,0.0,0.0,0.0,0.0,0.0,0.0,0.0,0.0,0.0,0.0,0.0,0.0,0.0,0.0,0.0,0.0,0.0,0.0,0.0,0.0,0.0,0.0,0.0,0.0,0.0,0.0,0.0,0.0,0.0,0.0,0.0,0.0,0.0,0.0,0.0,0.0,0.0,0.0,0.0,0.0,0.0,0.0,0.0,0.0,0.0,0.0,0.0,0.0,0.0,0.0,0.0,0.0,0.0,0.0,-0.3155,-0.3446,-0.349,-0.3236,-0.2785,-0.2385,0.0,0.0,0.0,0.0,0.0,0.0,0.0,0.0,0.0,0.0,0.0,0.0,0.0,0.0,0.0,0.0,0.0,0.0,0.0,0.0,0.0,0.0,0.0,0.0,0.0,0.0,0.0,0.0,0.0,0.0,0.0,0.0,0.0,0.0,0.0,0.0,0.0,0.0,0.0,0.0,0.0,0.0,0.0,0.0,0.0,0.0,0.0,0.0,0.0,0.0,0.0,0.0,0.0,0.0,0.0,0.0,0.0,0.0,0.0,0.0,0.0,0.0,0.0,0.0,0.0,0.0,0.0,0.0,0.0,0.0,0.0,0.0,0.0,0.0,0.0,0.0,0.0,0.0,0.0,0.0,0.0,0.0,0.0,0.0,0.0,0.0,0.0,0.0,0.0,0.0,0.0,0.0,0.0,0.0,0.0,0.0,0.0,0.0,0.0,0.0,0.0,0.0,0.0,0.0,0.0,0.0,0.0,0.0,-0.2821,-0.3099,-0.3386,-0.3494,-0.3413,-0.3004,-0.259,0.0,0.0,0.0,0.0,0.0,0.0,0.0,0.0,0.0,0.0,0.0,0.0,0.0,0.0,0.0,0.0,0.0,0.0,0.0,0.0,0.0,0.0,0.0,0.0,0.0,0.0,0.0,0.0,0.0,0.0,0.0,0.0,0.0,0.0,0.0,0.0,0.0,0.0,0.0,0.0,0.0,0.0,0.0,0.0,0.0,0.0,0.0,0.0,0.0,0.0,0.0,0.0,0.0,0.0,0.0,0.0,0.0,0.0,0.0,0.0,0.0,0.0,0.0,0.0,0.0,0.0,0.0,0.0,0.0,0.0,0.0,0.0,0.0,0.0,0.0,0.0,0.0,0.0,0.0,0.0,0.0,0.0,0.0,0.0,0.0,0.0,0.0,0.0,0.0,0.0,0.0,0.0,0.0,0.0,0.0,0.0,0.0,0.0,0.0,0.0,0.0,0.0,0.0,0.0,0.0,0.0,0.0,0.0,-0.2866,-0.3132,-0.3266,-0.3327,-0.3315,-0.3056,-0.2709,0.0,0.0,0.0,0.0,0.0,0.0,0.0,0.0,0.0,0.0,0.0,0.0,0.0,0.0,0.0,0.0,0.0,0.0,0.0,0.0,0.0,0.0,0.0,0.0,0.0,0.0,0.0,0.0,0.0,0.0,0.0,0.0,0.0,0.0,0.0,0.0,0.0,0.0,0.0,0.0,0.0,0.0,0.0,0.0,0.0,0.0,0.0,0.0,0.0,0.0,0.0,0.0,0.0,0.0,0.0,0.0,0.0,0.0,0.0,0.0,0.0,0.0,0.0,0.0,0.0,0.0,0.0,0.0,0.0,0.0,0.0,0.0,0.0,0.0,0.0,0.0,0.0,0.0,0.0,0.0,0.0,0.0,0.0,0.0,0.0,0.0,0.0,0.0,0.0,0.0,0.0,0.0,0.0,0.0,0.0,0.0,0.0,0.0,0.0,0.0,0.0,0.0,0.0,0.0,0.0,0.0,0.0,0.0,-0.3143,-0.3401,-0.3497,-0.3499,-0.345,-0.3192,-0.2888,0.0,0.0,0.0,0.0,0.0,0.0,0.0,0.0,0.0,0.0,0.0,0.0,0.0,0.0,0.0,0.0,0.0,0.0,0.0,0.0,0.0,0.0,0.0,0.0,0.0,0.0,0.0,0.0,0.0,0.0,0.0,0.0,0.0,0.0,0.0,0.0,0.0,0.0,0.0,0.0,0.0,0.0,0.0,0.0,0.0,0.0,0.0,0.0,0.0,0.0,0.0,0.0,0.0,0.0,0.0,0.0,0.0,0.0,0.0,0.0,0.0,0.0,0.0,0.0,0.0,0.0,0.0,0.0,0.0,0.0,0.0,0.0,0.0,0.0,0.0,0.0,0.0,0.0,0.0,0.0,0.0,0.0,0.0,0.0,0.0,0.0,0.0,0.0,0.0,0.0,0.0,0.0,0.0,0.0,0.0,0.0,0.0,0.0,0.0,0.0,0.0,0.0,0.0,0.0,0.0,0.0,0.0,0.0,-0.3711,-0.3905,-0.3832,-0.3761,-0.3723,-0.3592,-0.3246,0.0,0.0,0.0,0.0,0.0,0.0,0.0,0.0,0.0,0.0,0.0,0.0,0.0,0.0,0.0,0.0,0.0,0.0,0.0,0.0,0.0,0.0,0.0,0.0,0.0,0.0,0.0,0.0,0.0,0.0,0.0,0.0,0.0,0.0,0.0,0.0,0.0,0.0,0.0,0.0,0.0,0.0,0.0,0.0,0.0,0.0,0.0,0.0,0.0,0.0,0.0,0.0,0.0,0.0,0.0,0.0,0.0,0.0,0.0,0.0,0.0,0.0,0.0,0.0,0.0,0.0,0.0,0.0,0.0,0.0,0.0,0.0,0.0,0.0,0.0,0.0,0.0,0.0,0.0,0.0,0.0,0.0,0.0,0.0,0.0,0.0,0.0,0.0,0.0,0.0,0.0,0.0,0.0,0.0,0.0,0.0,0.0,0.0,0.0,0.0,0.0,0.0,0.0,0.0,0.0,0.0,0.0,-0.416,-0.4315,-0.4419,-0.4188,-0.4042,-0.4042,-0.4037,-0.3663,-0.284,0.0,0.0,0.0,0.0,0.0,0.0,0.0,0.0,0.0,0.0,0.0,0.0,0.0,0.0,0.0,0.0,0.0,0.0,0.0,0.0,0.0,0.0,0.0,0.0,0.0,0.0,0.0,0.0,0.0,0.0,0.0,0.0,0.0,0.0,0.0,0.0,0.0,0.0,0.0719,0.0351,0.0,0.0,0.0,0.0,0.0,0.0,0.0,0.0,0.0,0.0,0.0,0.0,0.0,0.0,0.0,0.0,0.0,0.0,0.0,0.0,0.0,0.0,0.0,0.0,0.0,0.0,0.0,0.0,0.0,0.0,0.0,0.0,0.0,0.0,0.0,0.0,0.0,0.0,0.0,0.0,0.0,0.0,0.0,0.0,0.0,0.0,0.0,0.0,0.0,0.0,0.0,0.0,0.0,0.0,0.0,0.0,0.0,0.0,0.0,0.0,0.0,0.0,0.0,0.0,0.0,-0.3894,-0.4267,-0.449,-0.4564,-0.4361,-0.4248,-0.4248,-0.421,-0.3899,-0.3306,0.0,0.0,0.0,0.0,0.0,0.0,0.0,0.0,0.0,0.0,0.0,0.0,0.0,0.0,0.0,0.0,0.0,0.0,0.0,0.0,0.0,0.0,0.0,0.0,0.0,0.0,0.0,0.0,0.0,0.0,0.0,0.0,0.0,0.0,0.0,0.0,0.0,0.0,0.0,0.0343,0.0,0.0,0.0,0.0,0.0,0.0,0.0,0.0,0.0,0.0,0.0,0.0,0.0,0.0,0.0,0.0,0.0,0.0,0.0,0.0,0.0,0.0,0.0,0.0,0.0,0.0,0.0,0.0,0.0,0.0,0.0,0.0,0.0,0.0,0.0,0.0,0.0,0.0,0.0,0.0,0.0,0.0,0.0,0.0,0.0,0.0,0.0,0.0,0.0,0.0,0.0,0.0,0.0,0.0,0.0,0.0,0.0,0.0,0.0,0.0,0.0,0.0,0.0,0.0,0.0,-0.3947,-0.4583,-0.4884,-0.4804,-0.457,-0.4452,-0.4452,-0.4296,-0.3987,0.0,0.0,0.0,0.0,0.0,0.0,0.0,0.0,0.0,0.0,0.0,0.0,0.0,0.0,0.0,0.0,0.0,0.0,0.0,0.0,0.0,0.0,0.0,0.0,0.0,0.0,0.0,0.0,0.0,0.0,0.0,0.0,0.0,0.0,0.0,0.0,0.0,0.0,0.0,0.0,0.0156,0.0,0.0,0.0,0.0,0.0,0.0,0.0,0.0,0.0,0.0,0.0,0.0,0.0,0.0,0.0,0.0,0.0,0.0,0.0,0.0,0.0,0.0,0.0,0.0,0.0,0.0,0.0,0.0,0.0,0.0,0.0,0.0,0.0,0.0,0.0,0.0,0.0,0.0,0.0,0.0,0.0,0.0,0.0,0.0,0.0,0.0,0.0,0.0,0.0,0.0,0.0,0.0,0.0,0.0,0.0,0.0,0.0,0.0,0.0,0.0,0.0,0.0,0.0,0.0,0.0,-0.4032,-0.4857,-0.5214,-0.4992,-0.4746,-0.4602,-0.457,-0.4311,-0.3986,0.0,0.0,0.0,0.0,0.0,0.0,0.0,0.0,0.0,0.0,0.0,0.0,0.0,0.0,0.0,0.0,0.0,0.0,0.0,0.0,0.0,0.0,0.0,0.0,0.0,0.0,0.0,0.0,0.0,0.0,0.0,0.0,0.0,0.0,0.0,0.0,0.0,0.0,0.0,0.0,0.0,0.0,0.0,0.0,0.0,0.0,0.0,0.0,0.0,0.0,0.0,0.0,0.0,0.0,0.0,0.0,0.0,0.0,0.0,0.0,0.0,0.0,0.0,0.0,0.0,0.0,0.0,0.0,0.0,0.0,0.0,0.0,0.0,0.0,0.0,0.0,0.0,0.0,0.0,0.0,0.0,0.0,0.0,0.0,0.0,0.0,0.0,0.0,0.0,0.0,0.0,0.0,0.0,0.0,0.0,0.0,0.0,0.0,0.0,0.0,0.0,0.0,0.0,0.0,0.0,0.0,-0.4091,-0.4879,-0.5198,-0.4992,-0.4736,-0.4576,-0.4517,-0.4201,-0.3833,0.0,0.0,0.0,0.0,0.0,0.0,0.0,0.0,0.0,0.0,0.0,0.0,0.0,0.0,0.0,0.0,0.0,0.0,0.0,0.0,0.0,0.0,0.0,0.0,0.0,0.0,0.0,0.0,0.0,0.0,0.0,0.0,0.0,0.0,0.0,0.0,0.0,0.0,0.0,0.0,0.0,0.0,0.0,0.0,0.0,0.0,0.0,0.0,0.0,0.0,0.0,0.0,0.0,0.0,0.0,0.0,0.0,0.0,0.0,0.0,0.0,0.0,0.0,0.0,0.0,0.0,0.0,0.0,0.0,0.0,0.0,0.0,0.0,0.0,0.0,0.0,0.0,0.0,0.0,0.0,0.0,0.0,0.0,0.0,0.0,0.0,0.0,0.0,0.0,0.0,0.0,0.0,0.0,0.0,0.0,0.0,0.0,0.0,0.0,0.0,0.0,0.0,0.0,0.0,0.0,-0.3526,-0.4104,-0.4894,-0.5214,-0.4992,-0.4746,-0.4559,-0.4452,-0.397,-0.3592,0.0,0.0,0.0,0.0,0.0,0.0,0.0,0.0,0.0,0.0,0.0,0.0,0.0,0.0,0.0,0.0,0.0,0.0,0.0,0.0,0.0,0.0,0.0,0.0,0.0,0.0,0.0,0.0,0.0,0.0,0.0,0.0,0.0,0.0,0.0,0.0,0.0,0.0,0.0,0.0,0.0,0.0,0.0,0.0,0.0,0.0,0.0,0.0,0.0,0.0,0.0,0.0,0.0,0.0,0.0,0.0,0.0,0.0,0.0,0.0,0.0,0.0,0.0,0.0,0.0,0.0,0.0,0.0,0.0,0.0,0.0,0.0,0.0,0.0,0.0,0.0,0.0,0.0,0.0,0.0,0.0,0.0,0.0,0.0,0.0,0.0,0.0,0.0,0.0,0.0,0.0,0.0,0.0,0.0,0.0,0.0,0.0,0.0,0.0,0.0,0.0,0.0,0.0,0.0,0.0,0.0,-0.4158,-0.4909,-0.5214,-0.5049,-0.4794,-0.4602,-0.4441,-0.3904,0.0,0.0,0.0,0.0,0.0,0.0,0.0,0.0,0.0,0.0,0.0,0.0,0.0,0.0,0.0,0.0,0.0,0.0,0.0,0.0,0.0,0.0,0.0,0.0,0.0,0.0,0.0,0.0,0.0,0.0,0.0,0.0,0.0,0.0,0.0,0.0,0.0,0.0,0.0,0.0,0.0,0.0,0.0,0.0,0.0,0.0,0.0,0.0,0.0,0.0,0.0,0.0,0.0,0.0,0.0,0.0,0.0,0.0,0.0,0.0,0.0,0.0,0.0,0.0,0.0,0.0,0.0,0.0,0.0,0.0,0.0,0.0,0.0,0.0,0.0,0.0,0.0,0.0,0.0,0.0,0.0,0.0,0.0,0.0,0.0,0.0,0.0,0.0,0.0,0.0,0.0,0.0,0.0,0.0,0.0,0.0,0.0,0.0,0.0,0.0,0.0,0.0,0.0,0.0,0.0,0.0,0.0,-0.4283,-0.4962,-0.5261,-0.5176,-0.4985,-0.4794,-0.458,-0.4128,-0.3669,0.0,0.0,0.0,0.0,0.0,0.0,0.0,0.0,0.0,0.0,0.0,0.0,0.0,0.0,0.0,0.0,0.0,0.0,0.0,0.0,0.0,0.0,0.0,0.0,0.0,0.0,0.0,0.0,0.0,0.0,0.0,0.0,0.0,0.0,0.0,0.0,0.0,0.0,0.0,0.0,0.0,0.0,0.0,0.0,0.0,0.0,0.0,0.0,0.0,0.0,0.0,0.0,0.0,0.0,0.0,0.0,0.0,0.0,0.0,0.0,0.0,0.0,0.0,0.0,0.0,0.0,0.0,0.0,0.0,0.0,0.0,0.0,0.0,0.0,0.0,0.0,0.0,0.0,0.0,0.0,0.0,0.0,0.0,0.0,0.0,0.0,0.0,0.0,0.0,0.0,0.0,0.0,0.0,0.0,0.0,0.0,0.0,0.0,0.0,0.0,0.0,0.0,0.0,0.0,0.0,-0.3751,-0.4349,-0.5157,-0.5534,-0.5518,-0.5639,-0.5525,-0.515,-0.4808,-0.4236,0.0,0.0,0.0,0.0,0.0,0.0,0.0,0.0,0.0,0.0,0.0,0.0,0.0,0.0,0.0,0.0,0.0,0.0,0.0,0.0,0.0,0.0,0.0,0.0,0.0,0.0,0.0,0.0,0.0,0.0,0.0,0.0,0.0,0.0,0.0,0.0,0.0,0.0,0.0,0.0,0.0,-0.0133,0.0,0.0,0.0,0.0,0.0,0.0,0.0,0.0,0.0,0.0,0.0,0.0,0.0,0.0,0.0,0.0,0.0,0.0,0.0,0.0,0.0,0.0,0.0,0.0,0.0,0.0,0.0,0.0,0.0,0.0,0.0,0.0,0.0,0.0,0.0,0.0,0.0,0.0,0.0,0.0,0.0,0.0,0.0,0.0,0.0,0.0,0.0,0.0,0.0,0.0,0.0,0.0,0.0,0.0,0.0,0.0,0.0,0.0,0.0,0.0,0.0,0.0,0.0,-0.3995,-0.4656,-0.5341,-0.5758,-0.5852,-0.6088,-0.6001,-0.5549,-0.5281,-0.4703,0.0,0.0,0.0,0.0,0.0,0.0,0.0,0.0,0.0,0.0,0.0,0.0,0.0,0.0,0.0,0.0,0.0,0.0,0.0,0.0,0.0,0.0,0.0,0.0,0.0,0.0,0.0,0.0,0.0,0.0,0.0,0.0,0.0,0.0,0.0,0.0,0.0,0.0,0.0,0.0,0.0,-0.0457,0.0,0.0,-0.0055,-0.0185,-0.0333,-0.0326,-0.0034,0.0,0.0,0.0,0.0,0.0,0.0,0.0,0.0,0.0,0.0,0.0,0.0,0.0,0.0,0.0,0.0,0.0,0.0,0.0,0.0,0.0,0.0,0.0,0.0,0.0,0.0,0.0,0.0,0.0,0.0,-0.3081,0.0,0.0,-0.2712,0.0,0.0,0.0,0.0,0.0,0.0,0.0,0.0,0.0,0.0,0.0,0.0,0.0,0.0,0.0,0.0,0.0,0.0,0.0,0.0,0.0,0.0,-0.4402,-0.526,-0.5571,-0.5865,-0.6176,-0.6196,-0.6014,-0.5613,-0.5409,-0.4934,-0.4193,0.0,0.0,0.0,0.0,0.0,0.0,0.0,0.0,0.0,0.0,0.0,0.0,0.0,0.0,0.0,0.0,0.0,0.0,0.0,0.0,0.0,0.0,0.0,0.0,0.0,0.0,0.0,0.0,0.0,0.0,0.0,0.0,0.0,0.0,0.0,0.0,0.0,0.0,0.0,-0.1857,-0.098,0.0,0.0,-0.02,-0.0645,-0.1088,-0.1048,-0.0157,0.0,0.0,0.0,0.0,0.0,0.0,0.0,0.0,0.0,0.0,0.0,0.0,0.0,0.0,0.0,0.0,0.0,0.0,0.0,0.0,0.0,0.0,0.0,0.0,0.0,0.0,0.0,0.0,0.0,-0.4583,-0.4588,0.0,0.0,0.0,0.0,0.0,0.0,0.0,0.0,0.0,0.0,0.0,-0.5788,-0.5883,0.0,0.0,0.0,0.0,0.0,0.0,0.0,0.0,0.0,0.0,0.0,0.0,-0.461,-0.5302,-0.5952,-0.6365,-0.6485,-0.6633,-0.65,-0.6007,-0.5922,-0.5394,-0.4373,0.0,0.0,0.0,0.0,0.0,0.0,0.0,0.0,0.0,0.0,0.0,0.0,0.0,0.0,0.0,0.0,0.0,0.0,0.0,0.0,0.0,0.0,0.0,0.0,0.0,-0.0041,0.0,0.0,0.0,0.0,0.0,0.0,0.0,0.0,0.0,0.0,0.0,-0.2229,-0.3185,-0.2719,-0.1976,-0.1059,-0.0942,-0.1165,0.0,0.0,0.0,0.0,0.0,0.0,0.0,0.0,0.0,0.0,0.0,0.0,0.0,0.0,0.0,0.0,0.0031,0.0055,0.0068,0.0,0.0,0.0,0.0,0.0,0.0,0.0,0.0,0.0,0.0,0.0,0.0,0.0,0.0,-0.6347,0.0,-0.5896,0.0,0.0,0.0,0.0,0.0,0.0,0.0,0.0,-0.6756,-0.6919,-0.6983,-0.676,-0.6653,0.0,-0.6526,-0.6106,0.0,0.0,0.0,0.0,0.0,0.0,0.0,0.0,-0.4997,-0.5625,-0.6246,-0.664,-0.674,-0.6927,-0.6794,-0.6364,-0.6094,-0.5445,-0.4388,-0.3807,-0.3252,0.0,0.0,0.0,0.0,0.0,0.0,0.0,0.0,0.0,0.0,0.0,0.0,0.0,0.0,0.0,0.0,0.0,0.0,0.0,0.0,0.0,0.0,0.0,-0.0089,0.0,0.0,0.0,0.0,0.0,0.0,0.0,0.0,0.0,-0.1637,-0.1954,-0.2498,-0.3467,-0.3303,-0.2855,-0.2264,0.0,0.0,0.0,0.0,0.0,0.0,0.0,-0.0649,-0.0084,0.0,0.0,0.0,0.0,0.0,0.0,0.0,0.0,0.0,0.004,0.0055,0.0,0.0039,0.0132,0.0402,0.0387,0.0367,0.0,0.0,0.0,0.0,0.0,0.0,0.0,0.0,-0.8082,-0.8276,0.0,-0.768,0.0,0.0,0.0,0.0,0.0,-0.6815,0.0,0.0,-0.8228,-0.8408,-0.8472,-0.7822,-0.7535,-0.75,-0.7209,-0.6894,-0.6593,-0.5769,0.0,0.0,0.0,0.0,0.0,0.0,-0.5625,-0.6189,-0.6498,-0.6734,-0.698,-0.6993,-0.686,-0.658,-0.5881,-0.5135,-0.4376,-0.4116,-0.3646,-0.2885,-0.2558,0.0,0.0,0.0,0.0,0.0,0.0,0.0,0.0,0.0,0.0,0.0,0.0,0.0,0.0,0.0,0.0,0.0,0.0,0.0,0.0,-0.0513,0.0,0.0,0.0,0.0,0.0,0.0,0.0,0.0,0.0,0.0,-0.3313,-0.3026,-0.2865,-0.3522,0.0,0.0,0.0,0.0,-0.3382,-0.2881,-0.2834,-0.2742,-0.2526,-0.1957,-0.1165,-0.0158,0.0,0.0,0.0,0.0,0.0,0.0,0.0,0.0,0.0,0.0,0.0,0.0,0.0,0.0,0.0,0.0,0.0,-1.0716,0.0,0.0,0.0,0.0,-0.84,-0.8869,-0.926,-0.9527,-0.977,-0.997,-0.9351,0.0,0.0,0.0,0.0,0.0,0.0,-0.8858,-0.934,-0.9297,-0.9219,-0.9051,-0.8583,-0.8309,-0.8217,-0.8017,-0.7755,-0.7366,-0.6801,-0.6172,-0.5464,0.0,0.0,0.0,0.0,-0.6129,-0.6479,-0.6754,-0.6941,-0.6993,-0.6993,-0.6867,-0.6593,-0.5881,-0.5322,-0.4871,-0.4298,-0.3858,-0.3519,-0.2885,0.0,0.0,0.0,0.0,0.0,0.0,0.0,0.0,0.0,0.0,0.0,0.0,0.0,0.0,0.0,0.0,0.0,0.0,0.0,-0.1669,-0.1098,-0.0549,0.0,0.0,0.0,0.0,0.0,0.0,0.0,0.0,0.0,-0.3443,-0.344,-0.3462,0.0,0.0,-0.36,-0.36,-0.3312,-0.2743,-0.1766,-0.161,0.0,-0.2687,-0.2301,-0.1493,-0.0195,0.0,0.0,0.0,0.0,0.0,0.0,0.0,0.0,0.0,0.0,0.0,0.0,0.0,0.0,0.0,0.0,0.0,-1.2642,-1.0891,-1.0433,-1.001,-0.9716,-1.0197,-1.0647,-1.1068,-1.1412,-1.1728,-1.1942,-1.1402,-1.0782,-1.0096,-0.9582,0.0,0.0,0.0,-1.053,-1.0965,-1.0666,-1.0492,-1.0368,-0.9708,-0.9266,-0.9093,-0.8714,-0.8359,-0.7991,-0.7458,-0.6955,-0.6419,0.0,0.0,-0.5916,-0.6204,-0.6439,-0.6593,-0.6853,-0.6993,-0.6993,-0.6993,-0.686,-0.6593,-0.5992,-0.5481,-0.5108,-0.4548,-0.4116,-0.3848,-0.3414,-0.2882,0.0,0.0,0.0,0.0,0.0,0.0,0.0,0.0,0.0,0.0,0.0,-0.0896,0.0,0.0,0.0,0.0,-0.1776,-0.2061,-0.2148,-0.1657,0.0,0.0,0.0,0.0,0.0,0.0,0.0,-0.2949,-0.2731,-0.2812,-0.3644,-0.3754,-0.3799,-0.3917,-0.3826,-0.3754,-0.3754,0.0,-0.2403,-0.1208,-0.0827,-0.1001,-0.2024,-0.2149,-0.1655,-0.0219,0.0,0.0,0.0,0.0,0.0,0.0,0.0,0.0,0.0,0.0,0.0,0.0,0.0,0.0,0.0,0.0,0.0,-1.4334,-1.3614,-1.2512,-1.1972,-1.1824,-1.2096,-1.2538,-1.3141,-1.3413,-1.3746,-1.4048,-1.3496,-1.2935,-1.2348,-1.1356,0.0,-1.1749,-1.2,-1.2317,-1.2681,-1.2163,-1.2003,-1.2096,-1.1038,-1.0383,-1.0092,-0.936,-0.8878,-0.8591,-0.7944,-0.7612,-0.7571,-0.6774,-0.6348,-0.6277,-0.6506,-0.6627,-0.6627,-0.6867,-0.6993,-0.6993,-0.6993,-0.6873,-0.6633,-0.6168,-0.5663,-0.5162,-0.4797,-0.4397,-0.3991,-0.4003,-0.3676,-0.2942,0.0,0.0,0.0,0.0,0.0,0.0,0.0,0.0,0.0,0.0,0.0,0.0,0.0,0.0,0.0,-0.2197,0.0,-0.2449,-0.2224,0.0,0.0,0.0,-0.2118,-0.1377,-0.2049,-0.2824,-0.3509,0.0,0.0,-0.3954,-0.4031,-0.3999,-0.3846,-0.3938,-0.4001,-0.405,-0.3324,-0.2355,-0.1313,-0.0592,-0.0411,-0.113,-0.1739,-0.1677,-0.0329,0.0,0.0,0.0,0.0,0.0,0.0,0.0,0.0,0.0,0.0,0.0,0.0,0.0,0.0,0.0,0.0,0.0,-1.5915,-1.5468,-1.5177,-1.4119,-1.2644,-1.296,-1.3203,-1.3422,-1.3738,-1.3953,-1.4068,-1.391,-1.3565,-1.3098,-1.2363,-1.2373,-1.2984,-1.3081,-1.327,-1.3497,-1.3207,-1.2917,-1.2533,-1.2076,-1.1557,-1.0981,-1.0457,-0.9959,-0.9482,-0.9013,-0.8621,-0.8268,-0.7958,-0.7464,-0.6834,-0.6867,-0.6893,-0.6914,-0.6966,-0.6993,-0.6993,-0.6993,-0.6966,-0.6921,-0.6246,-0.5751,-0.5401,-0.4903,-0.4557,-0.443,-0.4298,-0.4293,-0.4441,-0.3552,0.0,0.0,0.0,0.0,0.0,0.0,0.0,0.0,0.0,-0.1551,-0.1665,0.0,-0.1781,0.0,-0.2389,-0.2717,-0.2924,-0.2865,0.0,0.0,-0.2964,-0.3229,-0.3037,-0.3034,-0.3175,-0.3565,-0.3517,-0.3697,-0.431,-0.4382,-0.4304,-0.4136,-0.4041,-0.41,-0.4291,-0.3811,-0.3201,-0.263,-0.1882,-0.1283,-0.1122,-0.1674,-0.1801,-0.0502,-0.0168,0.0,0.0,0.0,0.0,0.0,0.0,0.0,0.0,0.0,0.0,0.0,0.0,0.0,0.0,0.0,0.0,-1.6582,-1.6367,-1.6357,-1.5666,-1.4577,-1.4355,-1.4307,-1.4363,-1.454,-1.4633,-1.4669,-1.4633,-1.4484,-1.4269,-1.3894,-1.3941,-1.4279,-1.4307,-1.4391,-1.4475,-1.4209,-1.3898,-1.3616,-1.31,-1.2579,-1.2079,-1.142,-1.0906,-1.0508,-0.9986,-0.9522,-0.9178,-0.8776,-0.8273,-0.7695,-0.7488,-0.7339,-0.7221,-0.7088,-0.6993,-0.6993,-0.6993,-0.6993,-0.6986,-0.6305,-0.5844,-0.564,-0.509,-0.4762,-0.4724,-0.4645,-0.4772,-0.5099,-0.4174,-0.3163,0.0,0.0,0.0,0.0,0.0,0.0,0.0,0.0,0.0,0.0,0.0,-0.2331,-0.2607,-0.2918,-0.3125,-0.3171,-0.3276,-0.3286,-0.3231,-0.3458,-0.36,-0.36,-0.354,-0.3635,-0.3951,-0.3856,-0.3951,-0.4426,-0.4491,-0.4464,-0.4328,-0.427,-0.4273,-0.4423,-0.419,-0.3913,-0.3741,-0.3299,-0.2907,-0.2541,-0.2766,-0.2601,-0.1428,-0.0617,-0.014,0.0,0.0,0.0,0.0,0.0,0.0,0.0,0.0,0.0,0.0,0.0,0.0,0.0,0.0,0.0,-1.6865,-1.6785,-1.6785,-1.6755,-1.6648,-1.5878,-1.5547,-1.5488,-1.5498,-1.543,-1.542,-1.542,-1.542,-1.542,-1.542,-1.542,-1.542,-1.542,-1.542,-1.5391,-1.5039,-1.4862,-1.4774,-1.4023,-1.3475,-1.3102,-1.2303,-1.1787,-1.1468,-1.0868,-1.0408,-1.0132,-0.9438,-0.8938,-0.8614,-0.8222,-0.7856,-0.752,-0.7214,-0.704,-0.6993,-0.6993,-0.6993,-0.6973,-0.6383,-0.6032,-0.5888,-0.5405,-0.5125,-0.507,-0.5084,-0.5158,-0.5261,-0.4651,-0.3842,0.0,-0.2978,0.0,0.0,0.0,0.0,0.0,0.0,0.0,0.0,-0.2578,-0.2914,-0.3307,-0.351,-0.3571,-0.3376,-0.351,-0.36,-0.3604,-0.3675,-0.3716,-0.3723,-0.3853,-0.4081,-0.445,-0.4236,-0.4178,-0.445,-0.4491,-0.4491,-0.4481,-0.447,-0.4467,-0.4487,-0.4463,-0.4436,-0.4491,-0.4491,-0.4239,-0.4267,-0.4159,-0.366,-0.2573,-0.1484,-0.0532,0.0,0.0,0.0,0.0,0.0,0.0,0.0,0.0,0.0,0.0,0.0,0.0,0.0,0.0,0.0,-1.7568,-1.7256,-1.7266,-1.7061,-1.6687,-1.6521,-1.6269,-1.5968,-1.5968,-1.5742,-1.542,-1.542,-1.542,-1.542,-1.542,-1.542,-1.542,-1.542,-1.542,-1.542,-1.5332,-1.5107,-1.4813,-1.4619,-1.4099,-1.3269,-1.2863,-1.2455,-1.1943,-1.1614,-1.1265,-1.0881,-1.0264,-0.9771,-0.9406,0.0,0.0,0.0,-0.7453,-0.729,-0.7013,-0.6993,-0.6993,-0.6993,-0.6673,0.0,-0.6435,-0.6135,-0.5974,-0.5949,-0.5713,0.0,0.0,0.0,0.0,0.0,0.0,0.0,0.0,0.0,0.0,0.0,-0.3454,-0.3192,-0.2815,-0.2922,-0.3174,-0.3515,-0.3775,-0.3873,-0.3721,-0.3626,-0.36,-0.3617,-0.403,-0.432,-0.4317,-0.4211,-0.4228,-0.4453,-0.444,-0.4423,-0.4474,-0.4491,-0.4491,-0.4501,-0.4491,-0.4491,-0.4491,-0.4491,-0.4491,-0.4491,-0.4491,-0.4491,-0.4491,-0.4432,-0.4184,-0.363,-0.2657,-0.1652,-0.0981,-0.1206,-0.1262,-0.0869,0.0,0.0,0.0,0.0,0.0,0.0,0.0,0.0,0.0,0.0,0.0,-1.7891,-1.7695,-1.7695,-1.7568,0.0,-1.733,-1.7119,-1.6731,-1.6484,-1.6269,-1.6044,-1.6034,-1.6024,-1.6015,-1.583,-1.5762,-1.5723,-1.5508,-1.542,-1.542,-1.542,-1.5303,-1.5088,-1.4911,-1.4533,-1.4024,-1.3468,-1.3058,-1.2774,-1.2451,-1.2051,-1.1569,-1.0863,-1.0261,-0.9788,-0.9133,-0.8536,-0.7946,-0.7668,-0.7417,-0.7241,-0.708,-0.6993,-0.6986,-0.674,0.0,0.0,0.0,0.0,0.0,0.0,0.0,0.0,0.0,0.0,-0.4687,-0.4802,-0.4737,-0.4444,-0.4592,-0.4626,-0.446,-0.4345,-0.4005,-0.332,-0.3168,-0.329,-0.3754,-0.3934,-0.3964,-0.391,-0.3839,-0.3799,-0.3816,-0.4221,-0.4491,-0.4481,-0.4402,-0.4378,-0.4464,-0.4491,-0.4491,-0.4491,-0.4491,-0.4535,-0.4614,-0.4577,-0.4498,-0.4491,-0.4491,-0.4491,-0.4491,-0.4491,-0.4491,-0.4491,-0.4491,-0.4325,-0.3849,-0.3408,-0.2824,-0.2127,-0.2629,-0.2854,-0.1931,-0.084,0.0,0.0,0.0,0.0,0.0,0.0,0.0,0.0,0.0,0.0,-1.8008,-1.8008,-1.8008,-1.8008,-1.8008,-1.8008,-1.7822,-1.7461,0.0,0.0,0.0,-1.6697,-1.6697,-1.6668,-1.6338,-1.6173,-1.6075,-1.5693,-1.5488,-1.542,-1.542,-1.542,-1.54,-1.5059,-1.4844,-1.4774,-1.4072,-1.3652,-1.3496,-1.3164,-1.2719,-1.211,-1.1283,-1.0542,-0.9865,-0.9185,-0.8717,-0.8462,-0.7933,-0.7598,-0.7491,-0.7228,-0.7046,-0.7,-0.6794,-0.6667,-0.666,-0.6459,-0.6325,-0.6344,-0.6297,-0.6196,-0.6023,-0.6032,-0.5921,-0.5664,-0.5726,-0.564,-0.5395,-0.5439,-0.542,-0.5387,-0.5226,-0.4754,-0.3896,-0.3489,-0.3505,-0.4101,-0.4214,-0.4217,-0.416,-0.4109,-0.4097,-0.41,-0.4344,-0.4491,-0.4491,-0.4491,-0.4481,-0.4491,-0.4491,-0.4491,-0.4494,-0.4607,-0.4697,-0.4754,-0.4766,-0.4676,-0.4651,-0.4692,-0.4706,-0.4709,-0.4614,-0.4532,-0.4566,-0.459,-0.4366,-0.3998,-0.3993,-0.391,-0.3605,-0.399,-0.3993,-0.2996,-0.1512,0.0,0.0,0.0,0.0,0.0,0.0,0.0,0.0,0.0,0.0,-1.8008,-1.8008,-1.8008,-1.8008,-1.8008,-1.8008,-1.7978,-1.7852,-1.7048,-1.6697,-1.6697,-1.6697,-1.6697,-1.6697,-1.6638,-1.6426,-1.6095,-1.6036,-1.5801,-1.542,-1.542,-1.542,-1.5381,-1.5352,-1.5137,-1.4823,-1.4686,-1.4228,-1.3574,-1.3447,-1.3032,-1.2271,-1.1501,-1.0541,-0.9413,-0.908,-0.889,-0.8744,-0.8442,-0.802,-0.7527,-0.7444,-0.7296,-0.7013,-0.6981,-0.6961,-0.6933,-0.6914,-0.688,-0.6873,-0.6687,-0.6533,-0.6499,-0.6286,-0.6146,-0.6132,-0.6335,-0.6448,-0.6402,-0.6666,-0.674,-0.6495,-0.6176,-0.5654,-0.4812,-0.4208,-0.4125,-0.4696,-0.4998,-0.5007,-0.4807,-0.4581,-0.4409,-0.4416,-0.446,-0.4491,-0.4491,-0.4491,-0.4508,-0.4535,-0.4491,-0.4498,-0.4576,-0.4938,-0.5102,-0.4924,-0.5023,-0.5235,-0.5208,-0.5266,-0.5266,-0.5197,-0.4819,-0.4648,-0.4765,-0.4853,-0.4753,-0.4673,-0.4484,-0.4353,-0.4211,-0.4322,-0.4242,-0.361,-0.277,-0.1866,-0.0733,-0.0168,0.0,0.0,0.0,0.0,0.0,0.0,0.0,-1.8008,-1.8008,-1.8008,-1.8008,-1.8008,-1.8008,-1.8008,-1.7978,-1.7564,-1.7399,-1.7399,-1.7422,-1.7399,-1.7369,-1.7155,-1.6836,-1.6416,-1.6202,-1.583,-1.543,-1.542,-1.542,-1.542,-1.542,-1.5303,-1.5117,-1.4883,-1.4608,-1.4189,-1.374,-1.3246,-1.2701,-1.1666,-1.06,-0.9588,-0.9335,-0.9087,-0.8798,-0.8549,-0.8286,-0.7986,-0.7796,-0.7575,-0.7275,-0.7261,-0.7181,-0.7006,-0.6993,-0.6993,-0.6993,-0.6894,-0.682,-0.682,-0.67,-0.6646,-0.6633,-0.6921,-0.7089,-0.7082,-0.7301,-0.7334,-0.7148,-0.6985,-0.6751,-0.6349,-0.5195,-0.486,-0.5742,-0.6212,-0.6252,-0.5677,-0.5074,-0.468,-0.4519,-0.4491,-0.4491,-0.4491,-0.4491,-0.4621,-0.4877,-0.4714,-0.4646,-0.4945,-0.5225,-0.5377,-0.5163,-0.5306,-0.5395,-0.5395,-0.5395,-0.5395,-0.5344,-0.489,-0.4702,-0.4958,-0.5129,-0.506,-0.4884,-0.4629,-0.4511,-0.4491,-0.4494,-0.4387,-0.4135,-0.3802,-0.3043,-0.176,-0.0976,-0.068,-0.056,-0.0229,-0.0114,-0.0175,-0.0144,0.0,-1.8008,-1.8008,-1.8008,-1.8008,-1.8008,-1.8008,-1.8008,-1.8008,-1.7998,-1.8008,-1.8008,-1.8008,-1.8008,-1.7969,-1.7666,-1.7236,-1.6697,-1.6377,-1.5928,-1.5449,-1.542,-1.542,-1.542,-1.542,-1.542,-1.5371,-1.5078,-1.4883,-1.4745,-1.4111,-1.3526,-1.299,-1.1813,-1.0744,-0.9917,-0.9588,-0.9237,-0.8817,-0.8584,-0.8437,-0.8395,-0.815,-0.7889,-0.7618,-0.7598,-0.7435,-0.7154,-0.7166,-0.7173,-0.7106,-0.7166,-0.7206,-0.7206,-0.7206,-0.72,-0.7226,-0.7442,-0.7618,-0.7712,-0.778,-0.7828,-0.7808,-0.7796,-0.7788,-0.7673,-0.6571,-0.6033,-0.6742,-0.7364,-0.7402,-0.6524,-0.5773,-0.5187,-0.489,-0.4619,-0.4491,-0.4494,-0.4545,-0.4754,-0.516,-0.489,-0.4819,-0.5177,-0.5354,-0.5385,-0.5378,-0.5395,-0.5395,-0.5395,-0.5395,-0.5395,-0.531,-0.4986,-0.4882,-0.5122,-0.5276,-0.5226,-0.4972,-0.4826,-0.473,-0.4675,-0.4648,-0.4728,-0.4689,-0.4631,-0.4132,-0.3137,-0.2242,-0.1702,-0.1502,-0.1083,-0.054,-0.0342,-0.018,0.0,-1.8008,-1.8008,-1.8008,-1.8008,-1.8008,-1.8008,-1.8008,-1.8008,-1.8008,-1.8008,-1.8008,-1.8008,-1.8008,-1.8008,-1.7959,-1.75,-1.6746,-1.6658,-1.618,-1.5488,-1.542,-1.542,-1.542,-1.542,-1.542,-1.541,-1.5352,-1.5137,-1.4852,-1.4668,-1.4059,-1.2933,-1.194,-1.1023,-1.0218,-0.9795,-0.9309,-0.8804,-0.8784,-0.8637,-0.8415,-0.8375,-0.819,-0.7872,-0.7866,-0.7742,-0.7464,-0.7695,-0.7715,-0.7504,-0.7666,-0.7812,-0.7806,-0.7812,-0.7812,-0.7812,-0.7846,-0.7979,-0.8281,-0.8337,-0.8414,-0.8659,-0.862,-0.8613,-0.8646,-0.8482,-0.8088,-0.7756,-0.8189,-0.8109,-0.716,-0.6734,-0.6349,-0.5877,-0.5116,-0.4491,-0.4542,-0.4711,-0.4904,-0.4938,-0.501,-0.5037,-0.504,-0.5252,-0.5388,-0.5395,-0.5395,-0.5395,-0.5395,-0.5395,-0.5395,-0.5395,-0.5306,-0.5296,-0.5354,-0.5371,-0.532,-0.512,-0.5206,-0.5143,-0.4986,-0.5098,-0.5296,-0.515,-0.5221,-0.4953,-0.4492,-0.3828,-0.3053,-0.2516,-0.2038,-0.1551,-0.0498,0.0,0.0,-1.8008,-1.8008,-1.8008,-1.8008,-1.8008,-1.8008,-1.8008,-1.8008,-1.8008,-1.8008,-1.8008,-1.8008,-1.8008,-1.8008,-1.8008,-1.7686,-1.7119,-1.6814,-1.6365,-1.5801,-1.5537,-1.542,-1.542,-1.542,-1.542,-1.542,-1.542,-1.5332,-1.5098,-1.4658,-1.3985,-1.3234,-1.2319,-1.1401,-1.0593,-1.0064,-0.9491,-0.8804,-0.8778,-0.8744,-0.8651,-0.8631,-0.849,-0.823,-0.8196,-0.8049,-0.7789,-0.7839,-0.7852,-0.7756,-0.7839,-0.7905,-0.7905,-0.7905,-0.7905,-0.7912,-0.8096,-0.8317,-0.8611,-0.8631,-0.8684,-0.8804,-0.8778,-0.8778,-0.8778,-0.8778,-0.8646,-0.8407,-0.8619,-0.8565,-0.813,-0.7877,-0.7532,-0.6997,-0.6181,-0.5411,-0.4814,-0.5027,-0.5214,-0.5176,-0.5092,-0.5078,-0.5159,-0.5317,-0.5388,-0.5395,-0.5395,-0.5395,-0.5395,-0.5395,-0.5395,-0.5395,-0.5395,-0.5395,-0.5395,-0.5395,-0.5361,-0.533,-0.5351,-0.5313,-0.5279,-0.5286,-0.5388,-0.5395,-0.5395,-0.5362,-0.5153,-0.4758,-0.4183,-0.3512,-0.2447,-0.1613,-0.0269,0.0,0.0,-1.8105,-1.8018,-1.8008,-1.8008,-1.8008,-1.8008,-1.8008,-1.8008,-1.8008,-1.8008,-1.8008,-1.8008,-1.8008,-1.8008,-1.8008,-1.7783,-1.7406,-1.7061,-1.6602,-1.6105,-1.5752,-1.5537,-1.543,-1.542,-1.5381,-1.5332,-1.5303,-1.5245,-1.509,-1.4303,-1.3719,-1.3332,-1.2409,-1.1485,-1.072,-1.0159,-0.9536,-0.8857,-0.8778,-0.8778,-0.8778,-0.8778,-0.8704,-0.8543,-0.8516,-0.8357,-0.807,-0.8105,-0.8105,-0.8032,-0.8099,-0.8145,-0.8145,-0.8145,-0.8145,-0.8159,-0.837,-0.8603,-0.8765,-0.8778,-0.8778,-0.8778,-0.8778,-0.8778,-0.8778,-0.8778,-0.8778,-0.8778,-0.8778,-0.8817,-0.8849,-0.8648,-0.8352,-0.7941,-0.7321,-0.6516,-0.5398,-0.5474,-0.5613,-0.5437,-0.5339,-0.5266,-0.537,-0.5392,-0.5395,-0.5395,-0.5395,-0.5395,-0.5395,-0.5395,-0.5395,-0.5395,-0.5395,-0.5395,-0.5395,-0.5395,-0.5395,-0.5395,-0.5395,-0.5395,-0.5395,-0.5395,-0.5395,-0.5395,-0.5395,-0.5395,-0.5329,-0.5123,-0.4855,-0.4054,-0.3017,-0.1712,-0.0269,0.0,0.0,-1.8334,-1.8047,-1.8018,-1.8047,-1.8018,-1.8027,-1.8008,-1.8008,-1.8008,-1.8008,-1.8008,-1.8008,-1.8008,-1.8008,-1.8008,-1.7783,-1.7432,-1.7344,-1.6926,-1.6212,-1.6065,-1.584,-1.543,-1.541,-1.5332,-1.5205,-1.502,-1.4804,-1.4473,-1.3727,-1.3332,-1.3222,-1.199,-1.104,-1.0423,-0.9891,-0.9361,-0.8857,-0.8778,-0.8778,-0.8778,-0.8778,-0.8791,-0.8771,-0.8778,-0.8637,-0.8449,-0.8617,-0.8631,-0.8382,-0.8591,-0.8738,-0.8751,-0.8718,-0.8724,-0.8711,-0.8764,-0.8784,-0.8804,-0.8778,-0.8778,-0.8811,-0.8805,-0.8791,-0.8844,-0.8791,-0.8798,-0.8824,-0.8925,-0.897,-0.8979,-0.885,-0.8743,-0.8628,-0.8477,-0.7585,-0.6121,-0.6339,-0.605,-0.5723,-0.5745,-0.5701,-0.5455,-0.5395,-0.5395,-0.5395,-0.5395,-0.5395,-0.5395,-0.5395,-0.5395,-0.5395,-0.5395,-0.5395,-0.5395,-0.5395,-0.5395,-0.5395,-0.5395,-0.5395,-0.5395,-0.5395,-0.5395,-0.5395,-0.5395,-0.5395,-0.5395,-0.5292,-0.506,-0.4389,-0.3449,-0.2112,-0.0337,0.0,0.0,-1.8965,-1.8828,-1.8828,-1.8672,-1.8383,-1.8383,-1.8227,-1.8018,-1.8008,-1.8008,-1.8008,-1.8008,-1.8008,-1.8008,-1.8008,-1.793,-1.7764,-1.751,-1.7239,-1.6887,-1.6359,-1.6007,-1.585,-1.5557,-1.5274,-1.5029,-1.4656,-1.4154,-1.3532,-1.298,-1.2612,-1.2293,-1.1486,-1.0713,-1.0058,-0.9666,-0.9263,-0.8831,-0.8778,-0.8778,-0.8778,-0.8778,-0.8778,-0.8778,-0.8778,-0.8758,-0.8651,-0.8758,-0.8758,-0.8651,-0.8758,-0.8778,-0.8778,-0.8778,-0.8778,-0.8778,-0.8778,-0.8778,-0.8778,-0.8778,-0.8778,-0.8791,-0.8958,-0.9058,-0.9024,-0.8904,-0.8878,-0.9178,-0.9702,-0.977,-0.9283,-0.8998,-0.8989,-0.9383,-0.9259,-0.8797,-0.8074,-0.7939,-0.7809,-0.712,-0.6338,-0.5557,-0.5495,-0.5395,-0.5395,-0.5395,-0.5395,-0.5395,-0.5395,-0.5395,-0.5395,-0.5395,-0.5395,-0.5395,-0.5395,-0.5395,-0.5395,-0.5395,-0.5395,-0.5395,-0.5395,-0.5395,-0.5395,-0.5395,-0.5395,-0.5395,-0.5395,-0.5395,-0.5196,-0.4827,-0.3851,-0.2412,-0.0404,0.0,0.0,-1.9277,-1.9277,-1.9277,-1.9121,-1.8802,-1.8656,-1.8442,-1.8159,-1.8066,-1.8008,-1.8008,-1.8008,-1.8008,-1.8008,-1.8008,-1.8008,-1.7978,-1.7705,-1.751,-1.7344,-1.6799,-1.6369,-1.6075,-1.5762,-1.538,-1.4862,-1.4163,-1.3394,-1.2694,-1.2297,-1.1936,-1.1567,-1.0958,-1.0329,-0.9743,-0.9413,-0.9106,-0.8857,-0.8778,-0.8778,-0.8778,-0.8778,-0.8778,-0.8778,-0.8778,-0.8778,-0.8778,-0.8778,-0.8778,-0.8778,-0.8778,-0.8778,-0.8778,-0.8778,-0.8778,-0.8778,-0.8778,-0.8778,-0.8778,-0.8778,-0.8891,-0.9072,-0.9144,-0.9237,-0.9317,-0.9205,-0.9225,-0.9506,-1.0117,-1.0305,-0.976,-0.9459,-0.9561,-0.9976,-0.9926,-0.9632,-0.9145,-0.9306,-0.8979,-0.7934,-0.6441,-0.5557,-0.5395,-0.5395,-0.5395,-0.5395,-0.5395,-0.5395,-0.5395,-0.5395,-0.5395,-0.5395,-0.5395,-0.5395,-0.5395,-0.5395,-0.5395,-0.5395,-0.5395,-0.5395,-0.5395,-0.5395,-0.5395,-0.5395,-0.5395,-0.5395,-0.5395,-0.5395,-0.5263,-0.5066,-0.4289,-0.298,-0.1577,-0.0539,0.0,-1.9316,-1.9355,-1.9297,-1.9346,-1.9248,-1.888,-1.8637,-1.85,-1.8169,-1.8057,-1.8018,-1.8008,-1.8008,-1.8008,-1.8008,-1.8008,-1.7998,-1.7959,-1.7764,-1.7451,-1.7324,-1.6897,-1.6232,-1.6085,-1.5433,-1.4547,-1.3524,-1.2642,-1.1965,-1.1647,-1.1321,-1.0929,-1.0398,-0.9899,-0.9387,-0.914,-0.8936,-0.8831,-0.8778,-0.8778,-0.8778,-0.8778,-0.8778,-0.8778,-0.8778,-0.8778,-0.8778,-0.8778,-0.8778,-0.8778,-0.8778,-0.8778,-0.8778,-0.8778,-0.8778,-0.8778,-0.8778,-0.8778,-0.8778,-0.8805,-0.9098,-0.9459,-0.9384,-0.9417,-0.9633,-0.9686,-0.9646,-0.9666,-1.0131,-1.0412,-1.0151,-1.0244,-1.0358,-1.0263,-1.0333,-1.018,-0.983,-1.0149,-0.9945,-0.8333,-0.6708,-0.5528,-0.5428,-0.5428,-0.5395,-0.5395,-0.5395,-0.5395,-0.5395,-0.5395,-0.5395,-0.5395,-0.5395,-0.5395,-0.5395,-0.5395,-0.5395,-0.5395,-0.5395,-0.5395,-0.5395,-0.5395,-0.5395,-0.5395,-0.5395,-0.5395,-0.5395,-0.5395,-0.5395,-0.5126,-0.4287,-0.3761,-0.2783,-0.1714,-0.064,-2.0204,-2.0204,-2.0204,-1.998,-1.9727,-1.957,-1.9173,-1.8617,-1.8451,-1.8256,-1.8047,-1.8008,-1.8008,-1.8008,-1.8008,-1.8008,-1.8008,-1.8008,-1.793,-1.7773,-1.7519,-1.7279,-1.6926,-1.6338,-1.5179,-1.3666,-1.2712,-1.1888,-1.1188,-1.0923,-1.063,-1.0147,-0.9937,-0.9528,-0.9063,-0.891,-0.8831,-0.8804,-0.8778,-0.8778,-0.8778,-0.8778,-0.8778,-0.8778,-0.8778,-0.8778,-0.8778,-0.8778,-0.8778,-0.8778,-0.8778,-0.8778,-0.8778,-0.8778,-0.8778,-0.8778,-0.8778,-0.8778,-0.8838,-0.9005,-0.9237,-0.9613,-0.9766,-0.9844,-0.9993,-1.0191,-1.0258,-1.0211,-1.0466,-1.0519,-1.0466,-1.0506,-1.0555,-1.046,-1.0555,-1.053,-1.0269,-1.0396,-1.0206,-0.9434,-0.7874,-0.6773,-0.6119,-0.5789,-0.5395,-0.5395,-0.5395,-0.5395,-0.5395,-0.5395,-0.5395,-0.5395,-0.5395,-0.5395,-0.5395,-0.5409,-0.5426,-0.5433,-0.5433,-0.5399,-0.5395,-0.5395,-0.5395,-0.5395,-0.5395,-0.5395,-0.5395,-0.5395,-0.5395,-0.5457,-0.5064,-0.4462,-0.3842,-0.2889,-0.1783,-2.0615,-2.0615,-2.0615,-2.0458,-2.0137,-2.0,-1.9619,-1.9056,-1.8724,-1.8451,-1.8217,-1.8042,-1.8008,-1.8008,-1.8008,-1.8008,-1.8008,-1.8008,-1.8008,-1.7978,-1.7764,-1.7549,-1.7262,-1.6235,-1.4915,-1.3339,-1.2406,-1.1522,-1.0649,-1.0573,-1.0345,-0.992,-0.9846,-0.9619,-0.9178,-0.9152,-0.9092,-0.8964,-0.8971,-0.8944,-0.8918,-0.8838,-0.8831,-0.8904,-0.8864,-0.8785,-0.8778,-0.8778,-0.8778,-0.8778,-0.8778,-0.8778,-0.8778,-0.8811,-0.8851,-0.8951,-0.8938,-0.8904,-0.8838,-0.9158,-0.9593,-0.9933,-1.008,-1.0174,-1.0274,-1.0512,-1.0579,-1.0586,-1.0586,-1.0586,-1.0586,-1.0586,-1.0586,-1.0586,-1.0586,-1.0586,-1.0561,-1.0339,-1.0276,-0.9888,-0.9268,-0.8296,-0.7326,-0.602,-0.5491,-0.5395,-0.5395,-0.5395,-0.5395,-0.5395,-0.5399,-0.5399,-0.5395,-0.5395,-0.5395,-0.5419,-0.5453,-0.547,-0.5487,-0.5433,-0.5395,-0.5395,-0.5395,-0.5395,-0.5395,-0.5395,-0.5395,-0.5399,-0.5405,-0.5504,-0.5599,-0.5117,-0.4458,-0.389,0.0,-2.0615,-2.0615,-2.0615,-2.0595,-2.0527,-2.0146,-1.9922,-1.9709,-1.9075,-1.8685,-1.851,-1.8208,-1.8047,-1.8018,-1.8008,-1.8008,-1.8008,-1.8008,-1.8008,-1.8008,-1.7939,-1.7764,-1.7272,-1.5996,-1.4724,-1.3557,-1.2492,-1.1522,-1.0618,-1.0586,-1.0439,-1.0114,-1.006,-0.9953,-0.9653,-0.9688,-0.9479,-0.9204,-0.9211,-0.9224,-0.9184,-0.9038,-0.8978,-0.915,-0.9031,-0.8911,-0.8851,-0.8891,-0.8898,-0.8818,-0.8898,-0.8945,-0.8884,-0.8858,-0.9031,-0.9224,-0.921,-0.9118,-0.9058,-0.9412,-0.995,-1.0412,-1.0294,-1.0247,-1.0512,-1.0566,-1.0586,-1.0586,-1.0586,-1.0586,-1.0586,-1.0586,-1.0586,-1.0586,-1.0586,-1.0586,-1.0561,-0.9958,-0.9766,-1.0276,-1.0434,-0.9856,-0.8127,-0.644,-0.567,-0.5395,-0.5395,-0.5395,-0.5395,-0.5399,-0.5405,-0.5429,-0.5467,-0.545,-0.5474,-0.5719,-0.5736,-0.5644,-0.5651,-0.5603,-0.5443,-0.5399,-0.5395,-0.5395,-0.5481,-0.5457,-0.5416,-0.5433,-0.5532,-0.5685,-0.5635,-0.5467,-0.5057,-0.441,0.0,-2.0615,-2.0615,-2.0615,-2.0615,-2.0595,-2.0468,-2.0195,-1.9912,-1.965,-1.9153,-1.8695,-1.849,-1.8291,-1.8037,-1.8018,-1.8008,-1.8008,-1.8008,-1.8008,-1.8008,-1.8008,-1.7773,-1.7265,-1.6196,-1.4893,-1.364,-1.2555,-1.1514,-1.0649,-1.0586,-1.0408,-1.0097,-1.014,-0.9993,-0.9755,-0.9749,-0.9532,-0.9291,-0.9479,-0.9452,-0.9284,-0.9399,-0.9372,-0.9211,-0.9365,-0.9319,-0.9151,-0.9345,-0.9339,-0.9131,-0.9345,-0.9487,-0.9406,-0.9412,-0.9446,-0.9532,-0.9566,-0.9552,-0.9546,-0.9786,-1.0204,-1.0526,-1.0506,-1.0506,-1.0573,-1.0586,-1.0586,-1.0586,-1.0586,-1.0586,-1.0586,-1.0586,-1.0586,-1.0586,-1.0586,-1.0586,-1.0396,-0.9536,-0.9125,-0.9888,-0.9536,-0.8468,-0.7245,-0.6331,-0.562,-0.5491,-0.5433,-0.545,-0.5504,-0.5405,-0.5419,-0.5566,-0.5617,-0.5573,-0.5638,-0.5924,-0.6013,-0.5844,-0.582,-0.587,-0.5638,-0.5409,-0.5402,-0.5395,-0.5675,-0.574,-0.5593,-0.5518,-0.5682,-0.5823,-0.5922,-0.5847,-0.5328,-0.472,-0.3657,-2.0615,-2.0615,-2.0615,-2.0615,-2.0615,-2.0615,-2.0458,-2.0185,-1.9971,-1.9658,-1.9134,-1.8734,-1.8471,-1.8237,-1.8096,-1.8008,-1.8008,-1.8008,-1.8008,-1.8008,-1.8008,-1.7871,-1.7445,-1.6534,-1.5263,-1.3897,-1.2782,-1.1692,-1.0764,-1.0586,-1.0486,-1.0347,-1.0301,-1.0214,-1.0131,-1.0077,-0.99,-0.967,-0.9786,-0.9773,-0.9617,-0.9646,-0.9679,-0.955,-0.9686,-0.9579,-0.9479,-0.9706,-0.9697,-0.9497,-0.9586,-0.9682,-0.9573,-0.9675,-0.9749,-0.9816,-0.984,-0.9913,-1.009,-1.0251,-1.0367,-1.0553,-1.0586,-1.0586,-1.0586,-1.0586,-1.0586,-1.0586,-1.0586,-1.0586,-1.0586,-1.0586,-1.0586,-1.0586,-1.0586,-1.0586,-1.0586,-0.9626,-0.9274,-0.93,-0.8592,-0.7363,-0.616,-0.5869,-0.5789,-0.5757,-0.5682,-0.573,-0.5767,-0.5586,-0.5539,-0.5754,-0.5863,-0.5842,-0.5818,-0.6027,-0.6177,-0.603,-0.5996,-0.6061,-0.5839,-0.5535,-0.5463,-0.5539,-0.5789,-0.5952,-0.5856,-0.5764,-0.5839,-0.6016,-0.6197,-0.6053,-0.5544,-0.526,-0.4135,-2.0615,-2.0615,-2.0615,-2.0615,-2.0615,-2.0615,-2.0586,-2.0517,-2.0176,-1.9951,-1.9717,-1.9046,-1.8744,-1.8588,-1.8247,-1.8066,-1.8008,-1.8008,-1.7949,-1.7906,-1.7872,-1.7789,-1.7586,-1.6697,-1.5521,-1.422,-1.3138,-1.1877,-1.0907,-1.0586,-1.0586,-1.0546,-1.0553,-1.0573,-1.0486,-1.0526,-1.0388,-1.012,-1.0114,-1.0107,-1.002,-0.9927,-0.9933,-0.9937,-0.9846,-0.982,-0.9853,-1.0013,-1.004,-0.9822,-0.9802,-0.976,-0.9613,-0.9726,-0.9889,-1.0057,-1.0134,-1.0267,-1.0506,-1.0526,-1.0566,-1.0586,-1.0586,-1.0586,-1.0586,-1.0586,-1.0586,-1.0586,-1.0586,-1.0586,-1.0586,-1.0586,-1.0586,-1.0586,-1.0586,-1.0586,-1.046,-0.9939,-0.9486,-0.939,-0.7939,-0.6539,-0.5811,-0.5593,-0.5842,-0.6037,-0.5979,-0.5982,-0.5989,-0.588,-0.5924,-0.6115,-0.616,-0.6112,-0.6122,-0.6122,-0.6214,-0.6235,-0.6214,-0.6184,-0.6027,-0.5791,-0.5631,-0.5682,-0.5999,-0.617,-0.6177,-0.6132,-0.6088,-0.6122,-0.6262,-0.6057,-0.5732,-0.573,-0.5024,-2.0615,-2.0615,-2.0615,-2.0615,-2.0615,-2.0615,-2.0615,-2.0595,-2.0507,-2.0225,-1.9932,-1.966,-1.9212,-1.8627,-1.851,-1.8305,-1.8022,-1.7993,-1.7872,-1.7608,-1.7451,-1.727,-1.7058,-1.6453,-1.5577,-1.4304,-1.3146,-1.1899,-1.0921,-1.0606,-1.0586,-1.0586,-1.0586,-1.0586,-1.0586,-1.0579,-1.0414,-1.0207,-1.0334,-1.0321,-1.0221,-1.0274,-1.0285,-1.016,-1.006,-1.0154,-1.0358,-1.0466,-1.0466,-1.0419,-1.0372,-1.0298,-1.0278,-1.0318,-1.0365,-1.0399,-1.0452,-1.0519,-1.0579,-1.0586,-1.0586,-1.0586,-1.0586,-1.0586,-1.0586,-1.0586,-1.0586,-1.0586,-1.0586,-1.0586,-1.0586,-1.0586,-1.0586,-1.0586,-1.0586,-1.0586,-1.0491,-0.9958,-0.963,-0.9204,-0.8042,-0.6507,-0.5575,-0.5634,-0.5871,-0.6201,-0.6269,-0.6242,-0.6184,-0.6115,-0.6187,-0.63,-0.6279,-0.6235,-0.6224,-0.6201,-0.6242,-0.63,-0.63,-0.6289,-0.6132,-0.6044,-0.5934,-0.5996,-0.619,-0.6286,-0.6293,-0.6289,-0.6201,-0.6265,-0.6257,-0.6103,-0.5986,-0.6028,-0.5951,-2.0615,-2.0615,-2.0615,-2.0615,-2.0615,-2.0615,-2.0615,-2.0615,-2.0615,-2.0478,-2.0205,-2.0019,-1.9611,-1.9163,-1.8792,-1.8461,-1.8222,-1.788,-1.752,-1.7088,-1.6768,-1.6446,-1.6053,-1.5679,-1.501,-1.4136,-1.3127,-1.1956,-1.1067,-1.0667,-1.0586,-1.0586,-1.0586,-1.0586,-1.0586,-1.0586,-1.0519,-1.0419,-1.0499,-1.0506,-1.0388,-1.0492,-1.0546,-1.0385,-1.0327,-1.0445,-1.0559,-1.0579,-1.0586,-1.0586,-1.0586,-1.0586,-1.0586,-1.0586,-1.0586,-1.0586,-1.0586,-1.0586,-1.0586,-1.0586,-1.0586,-1.0586,-1.0586,-1.0586,-1.0586,-1.0586,-1.0586,-1.0586,-1.0586,-1.0586,-1.0586,-1.0586,-1.0586,-1.0586,-1.0586,-1.0586,-1.0538,-1.0296,-1.0093,-0.9722,-0.8619,-0.7012,-0.6131,-0.5867,-0.5934,-0.6221,-0.6289,-0.6269,-0.6269,-0.6218,-0.6238,-0.63,-0.63,-0.6289,-0.6289,-0.6279,-0.6272,-0.63,-0.63,-0.63,-0.6235,-0.6242,-0.6259,-0.6293,-0.6289,-0.6293,-0.6296,-0.63,-0.63,-0.63,-0.6257,-0.6219,-0.618,-0.618,-0.6145,-2.0615,-2.0615,-2.0615,-2.0615,-2.0615,-2.0615,-2.0615,-2.0615,-2.0615,-2.0586,-2.0556,-2.0166,-1.9941,-1.9639,-1.9026,-1.8685,-1.8218,-1.7606,-1.695,-1.6402,-1.5939,-1.5517,-1.5092,-1.4688,-1.4328,-1.3932,-1.3066,-1.2039,-1.1186,-1.0794,-1.0673,-1.0613,-1.0586,-1.0586,-1.0586,-1.0586,-1.0573,-1.0553,-1.0566,-1.0586,-1.0559,-1.0579,-1.0573,-1.0559,-1.0553,-1.0553,-1.0586,-1.0586,-1.0586,-1.0586,-1.0586,-1.0586,-1.0586,-1.0586,-1.0586,-1.0586,-1.0586,-1.0586,-1.0586,-1.0586,-1.0586,-1.0586,-1.0586,-1.0586,-1.0586,-1.0586,-1.0586,-1.0586,-1.0586,-1.0586,-1.0586,-1.0586,-1.0586,-1.0586,-1.0586,-1.0667,-1.0849,-1.0931,-1.0926,-1.0341,-0.9131,-0.7566,-0.6561,-0.6015,-0.6141,-0.6197,-0.6259,-0.63,-0.63,-0.63,-0.63,-0.63,-0.63,-0.63,-0.63,-0.63,-0.63,-0.63,-0.63,-0.63,-0.63,-0.63,-0.63,-0.63,-0.6296,-0.63,-0.63,-0.63,-0.63,-0.63,-0.6257,-0.6257,-0.6257,-0.6296,-0.6264,-2.0615,-2.0615,-2.0615,-2.0615,-2.0615,-2.0615,-2.0615,-2.0615,-2.0615,-2.0615,-2.0586,-2.0498,-2.0038,-1.9531,-1.9307,-1.8657,-1.7732,-1.6917,-1.621,-1.5631,-1.5092,-1.4609,-1.4186,-1.3833,-1.3542,-1.3302,-1.282,-1.2095,-1.1316,-1.0929,-1.0814,-1.0646,-1.0586,-1.0586,-1.0586,-1.0586,-1.0586,-1.0586,-1.0586,-1.0586,-1.0586,-1.0586,-1.0586,-1.0586,-1.0586,-1.0586,-1.0586,-1.0586,-1.0586,-1.0586,-1.0586,-1.0586,-1.0586,-1.0586,-1.0586,-1.0586,-1.0586,-1.0586,-1.0586,-1.0586,-1.0586,-1.0586,-1.0586,-1.0586,-1.0586,-1.0586,-1.0586,-1.0586,-1.0586,-1.0586,-1.0586,-1.0586,-1.0586,-1.0586,-1.076,-1.1028,-1.1697,-1.1852,-1.157,-1.0883,-0.9542,-0.8279,-0.7356,-0.6548,-0.6392,-0.6395,-0.6349,-0.6335,-0.63,-0.63,-0.63,-0.63,-0.63,-0.63,-0.63,-0.63,-0.63,-0.63,-0.63,-0.63,-0.63,-0.63,-0.63,-0.63,-0.63,-0.63,-0.63,-0.63,-0.63,-0.63,-0.63,-0.63,-0.631,-0.632,-0.6317,-2.0615,-2.0615,-2.0615,-2.0615,-2.0615,-2.0615,-2.0615,-2.0615,-2.0615,-2.0615,-2.0537,-2.0361,-2.0029,-1.957,-1.9092,-1.8213,-1.7114,-1.6245,-1.5419,-1.4637,-1.4114,-1.3608,-1.3251,-1.2973,-1.2863,-1.2705,-1.253,-1.2197,-1.1484,-1.1149,-1.0988,-1.0827,-1.068,-1.0586,-1.0586,-1.0586,-1.0593,-1.0593,-1.0586,-1.0586,-1.0586,-1.0586,-1.0586,-1.0586,-1.0586,-1.0586,-1.0586,-1.0586,-1.0586,-1.0586,-1.0586,-1.0586,-1.0586,-1.0586,-1.0586,-1.0586,-1.0586,-1.0586,-1.0586,-1.0586,-1.0586,-1.0586,-1.0593,-1.0586,-1.0586,-1.0586,-1.0606,-1.0593,-1.0586,-1.0586,-1.0586,-1.06,-1.0586,-1.0707,-1.1069,-1.1657,-1.2104,-1.2271,-1.1911,-1.1436,-1.0829,-0.9668,-0.8182,-0.7453,-0.685,-0.6606,-0.6451,-0.6374,-0.63,-0.63,-0.63,-0.63,-0.63,-0.63,-0.63,-0.63,-0.63,-0.63,-0.63,-0.63,-0.63,-0.63,-0.63,-0.63,-0.63,-0.63,-0.63,-0.63,-0.63,-0.6303,-0.6323,-0.6337,-0.634,-0.6344,-0.6371,-2.0615,-2.0615,-2.0615,-2.0615,-2.0615,-2.0615,-2.0566,-2.0527,-2.0498,-2.0372,-2.0323,-1.9947,-1.9668,-1.9293,-1.8459,-1.7411,-1.6332,-1.5561,-1.4609,-1.3789,-1.3288,-1.282,-1.2452,-1.2305,-1.2342,-1.2409,-1.2352,-1.2151,-1.1819,-1.1477,-1.1196,-1.1056,-1.0861,-1.0713,-1.072,-1.0727,-1.0667,-1.0593,-1.0586,-1.0586,-1.0586,-1.0586,-1.0586,-1.0586,-1.0586,-1.0586,-1.0586,-1.0586,-1.0586,-1.0586,-1.0586,-1.0586,-1.0586,-1.0586,-1.0586,-1.0586,-1.0586,-1.0586,-1.0586,-1.0586,-1.0586,-1.0586,-1.0653,-1.0673,-1.07,-1.0734,-1.07,-1.0626,-1.0707,-1.078,-1.0827,-1.0673,-1.0687,-1.0988,-1.163,-1.2298,-1.2265,-1.2305,-1.2305,-1.2028,-1.1966,-1.1174,-0.975,-0.8437,-0.7829,-0.7061,-0.6907,-0.6335,-0.63,-0.63,-0.63,-0.63,-0.63,-0.63,-0.63,-0.63,-0.63,-0.63,-0.63,-0.63,-0.63,-0.63,-0.63,-0.63,-0.63,-0.63,-0.63,-0.63,-0.63,-0.6313,-0.6351,-0.6361,-0.6347,-0.6443,-0.6498,-2.0615,-2.0615,-2.0615,-2.0615,-2.0615,-2.0615,-2.0498,-2.0303,-2.0069,-1.9863,-1.9666,-1.9388,-1.8885,-1.81,-1.6938,-1.6122,-1.5436,-1.4724,-1.3941,-1.3222,-1.2856,-1.2562,-1.2335,-1.2305,-1.2305,-1.2305,-1.2305,-1.2138,-1.1966,-1.1812,-1.1597,-1.1396,-1.1283,-1.1196,-1.0955,-1.0889,-1.0841,-1.0646,-1.0593,-1.0586,-1.0586,-1.0586,-1.0586,-1.0586,-1.0586,-1.0586,-1.0586,-1.0586,-1.0586,-1.0586,-1.0586,-1.0586,-1.0586,-1.0586,-1.0586,-1.0586,-1.0586,-1.0586,-1.0593,-1.0586,-1.064,-1.0687,-1.0814,-1.0941,-1.0975,-1.0975,-1.0895,-1.0626,-1.0855,-1.1156,-1.1196,-1.0868,-1.0915,-1.1263,-1.1837,-1.2225,-1.2305,-1.2305,-1.2305,-1.2305,-1.212,-1.2157,-1.1477,-1.0056,-0.8818,-0.8012,-0.7246,-0.6718,-0.63,-0.63,-0.63,-0.63,-0.63,-0.63,-0.63,-0.63,-0.63,-0.63,-0.63,-0.63,-0.63,-0.63,-0.63,-0.63,-0.63,-0.63,-0.63,-0.63,-0.63,-0.6354,-0.6436,-0.6399,-0.6334,-0.6444,-0.6654,-2.0615,-2.0615,-2.0615,-2.0615,-2.0615,-2.0615,-2.0372,-2.002,-1.9569,-1.9204,-1.8744,-1.8097,-1.7398,-1.6639,-1.5758,-1.5089,-1.4477,-1.3876,-1.3302,-1.282,-1.2526,-1.2378,-1.2305,-1.2305,-1.2305,-1.2305,-1.2298,-1.2271,-1.2098,-1.1973,-1.1812,-1.169,-1.1516,-1.1329,-1.1223,-1.1069,-1.0942,-1.0827,-1.0693,-1.0593,-1.0586,-1.0593,-1.0593,-1.06,-1.0606,-1.0613,-1.0613,-1.0586,-1.0586,-1.0586,-1.0586,-1.0586,-1.0586,-1.0586,-1.0593,-1.0606,-1.076,-1.076,-1.0626,-1.0606,-1.072,-1.0835,-1.0989,-1.1096,-1.1269,-1.1222,-1.1329,-1.157,-1.147,-1.1562,-1.1724,-1.1376,-1.1283,-1.1482,-1.1955,-1.2164,-1.2305,-1.2305,-1.2305,-1.2305,-1.2305,-1.2305,-1.2305,-1.1484,-0.9868,-0.8428,-0.7702,-0.7099,-0.6606,-0.63,-0.63,-0.63,-0.63,-0.63,-0.63,-0.63,-0.63,-0.63,-0.63,-0.63,-0.63,-0.63,-0.63,-0.63,-0.63,-0.63,-0.631,-0.63,-0.63,-0.6409,-0.6538,-0.6528,-0.6495,-0.6647,-0.6619,-2.0615,-2.0615,-2.0615,-2.0566,-2.0489,-2.045,-2.0098,-1.9539,-1.8935,-1.8399,-1.7757,-1.6923,-1.6136,-1.5525,-1.5034,-1.4385,-1.3712,-1.3228,-1.279,-1.2452,-1.2305,-1.2305,-1.2305,-1.2305,-1.2305,-1.2305,-1.2305,-1.2285,-1.2225,-1.2118,-1.204,-1.2007,-1.1824,-1.1637,-1.1496,-1.1376,-1.127,-1.1089,-1.0835,-1.0787,-1.0827,-1.076,-1.078,-1.0801,-1.0807,-1.0807,-1.0801,-1.0727,-1.0713,-1.0713,-1.062,-1.0593,-1.0586,-1.0586,-1.0727,-1.0807,-1.0955,-1.0935,-1.0901,-1.0875,-1.0949,-1.1096,-1.1283,-1.1456,-1.1715,-1.1549,-1.1522,-1.2131,-1.1997,-1.2037,-1.2118,-1.185,-1.177,-1.1824,-1.2064,-1.2204,-1.2305,-1.2305,-1.2305,-1.2305,-1.2305,-1.2305,-1.2305,-1.2305,-1.1062,-0.9135,-0.8161,-0.7484,-0.6872,-0.6335,-0.63,-0.63,-0.63,-0.63,-0.63,-0.63,-0.63,-0.631,-0.631,-0.63,-0.63,-0.63,-0.63,-0.63,-0.6317,-0.6451,-0.658,-0.6417,-0.631,-0.6429,-0.6515,-0.6671,-0.6763,-0.6849,-0.68,-2.0615,-2.0615,-2.0615,-2.0489,-2.0294,-2.002,-1.9499,-1.8736,-1.8046,-1.7359,-1.6651,-1.5971,-1.5513,-1.5213,-1.4467,-1.389,-1.3549,-1.2952,-1.2603,-1.2392,-1.2305,-1.2305,-1.2305,-1.2305,-1.2305,-1.2305,-1.2305,-1.2305,-1.2298,-1.2258,-1.2238,-1.2251,-1.2118,-1.2024,-1.1884,-1.1717,-1.153,-1.1349,-1.1082,-1.1096,-1.1149,-1.1122,-1.1069,-1.1269,-1.1336,-1.1363,-1.1343,-1.1096,-1.0962,-1.0988,-1.0827,-1.0687,-1.0707,-1.0727,-1.0882,-1.1169,-1.1176,-1.1202,-1.1249,-1.1256,-1.1309,-1.1463,-1.1637,-1.1857,-1.2104,-1.2218,-1.2285,-1.2278,-1.2184,-1.2218,-1.2278,-1.2245,-1.2098,-1.2124,-1.2184,-1.2231,-1.2305,-1.2305,-1.2305,-1.2305,-1.2305,-1.2305,-1.1935,-1.1861,-1.1136,-0.9253,-0.8161,-0.7446,-0.6795,-0.63,-0.63,-0.63,-0.63,-0.63,-0.6303,-0.633,-0.6416,-0.6392,-0.6358,-0.6327,-0.63,-0.63,-0.6303,-0.6364,-0.6419,-0.6637,-0.6788,-0.6671,-0.6542,-0.6471,-0.6552,-0.6793,-0.6902,-0.693,-0.7004,-2.0615,-2.0615,-2.0615,-2.0411,-2.002,-1.9539,-1.8847,-1.7965,-1.6944,-1.5925,-1.5144,-1.4781,-1.4502,-1.4251,-1.4003,-1.3464,-1.3123,-1.291,-1.256,-1.2382,-1.2305,-1.2305,-1.2305,-1.2331,-1.2305,-1.2318,-1.2311,-1.2305,-1.2305,-1.2305,-1.2305,-1.2305,-1.2305,-1.2251,-1.2124,-1.1957,-1.173,-1.151,-1.1343,-1.1315,-1.1315,-1.1349,-1.1309,-1.1403,-1.143,-1.143,-1.1396,-1.1323,-1.1276,-1.1229,-1.1129,-1.1015,-1.0935,-1.1002,-1.1236,-1.1563,-1.1503,-1.157,-1.161,-1.1577,-1.1503,-1.1744,-1.1957,-1.2178,-1.2298,-1.2305,-1.2305,-1.2305,-1.2305,-1.2305,-1.2305,-1.2298,-1.2265,-1.2298,-1.2305,-1.2305,-1.2305,-1.2305,-1.2305,-1.2305,-1.2305,-1.2305,-1.1824,-1.1335,-1.0426,-0.9372,-0.8394,-0.745,-0.6764,-0.6327,-0.634,-0.6306,-0.63,-0.6392,-0.6409,-0.6477,-0.6515,-0.6461,-0.639,-0.6395,-0.6371,-0.6306,-0.6327,-0.6402,-0.6542,-0.6831,-0.6927,-0.6905,-0.6837,-0.678,-0.6854,-0.6974,-0.7031,-0.7021,-0.7051,-2.0615,-2.0615,-2.0615,-2.0294,-1.9745,-1.9076,-1.8238,-1.7277,-1.6083,-1.4985,-1.4124,-1.4075,-1.3981,-1.376,-1.3641,-1.3454,-1.3178,-1.2971,-1.2811,-1.2679,-1.2625,-1.2572,-1.2545,-1.2505,-1.2478,-1.2418,-1.2325,-1.2305,-1.2305,-1.2305,-1.2305,-1.2305,-1.2305,-1.2291,-1.2245,-1.2111,-1.1884,-1.173,-1.159,-1.1637,-1.1635,-1.1603,-1.165,-1.1697,-1.175,-1.175,-1.1717,-1.165,-1.1563,-1.1516,-1.145,-1.1342,-1.1322,-1.1375,-1.1555,-1.177,-1.1877,-1.194,-1.1946,-1.187,-1.1784,-1.1997,-1.2138,-1.2271,-1.2305,-1.2305,-1.2305,-1.2305,-1.2305,-1.2305,-1.2305,-1.2305,-1.2305,-1.2305,-1.2305,-1.2305,-1.2305,-1.2305,-1.2305,-1.2305,-1.2305,-1.2268,-1.1843,-1.121,-0.9749,-0.8713,-0.7595,-0.6922,-0.6634,-0.6361,-0.6422,-0.6368,-0.63,-0.6422,-0.6512,-0.6576,-0.6637,-0.6651,-0.6576,-0.6488,-0.648,-0.645,-0.6498,-0.6688,-0.6888,-0.7041,-0.7051,-0.6977,-0.7007,-0.7055,-0.7088,-0.7082,-0.7078,-0.7061,-0.7071,-2.0615,-2.0615,-2.0615,-2.0216,-1.9518,-1.8669,-1.7706,-1.6665,-1.5575,-1.4713,-1.4124,-1.4088,-1.4082,-1.3981,-1.376,-1.358,-1.3447,-1.3287,-1.314,-1.3073,-1.3013,-1.3106,-1.3026,-1.2918,-1.2744,-1.2697,-1.2518,-1.2378,-1.2305,-1.2305,-1.2305,-1.2305,-1.2305,-1.2305,-1.2298,-1.2298,-1.2278,-1.2231,-1.1964,-1.2017,-1.2071,-1.1951,-1.1991,-1.2084,-1.2131,-1.2111,-1.2071,-1.1944,-1.1864,-1.1837,-1.167,-1.1595,-1.1675,-1.1549,-1.1777,-1.2171,-1.2004,-1.2037,-1.2231,-1.2251,-1.2231,-1.2211,-1.2285,-1.2298,-1.2305,-1.2305,-1.2305,-1.2305,-1.2305,-1.2305,-1.2305,-1.2305,-1.2305,-1.2305,-1.2305,-1.2305,-1.2305,-1.2305,-1.2305,-1.2305,-1.2305,-1.2238,-1.185,-1.1085,-0.9329,-0.7987,-0.6806,-0.6313,-0.634,-0.6525,-0.6597,-0.6495,-0.6427,-0.6532,-0.6671,-0.6712,-0.6756,-0.6741,-0.6741,-0.6722,-0.6742,-0.68,-0.6869,-0.6997,-0.7031,-0.7088,-0.7095,-0.7082,-0.7095,-0.7095,-0.7095,-0.7092,-0.7095,-0.7095,-0.7095,-2.0615,-2.0615,-2.0615,-2.0137,-1.9301,-1.8109,-1.7139,-1.6173,-1.5033,-1.4292,-1.4124,-1.4088,-1.4088,-1.4041,-1.3988,-1.3786,-1.3606,-1.3553,-1.3413,-1.324,-1.3253,-1.32,-1.3166,-1.3126,-1.2959,-1.2817,-1.265,-1.2458,-1.2305,-1.2311,-1.2305,-1.2305,-1.2305,-1.2305,-1.2305,-1.2305,-1.2298,-1.2285,-1.2204,-1.2204,-1.2278,-1.2204,-1.2198,-1.2305,-1.2305,-1.2305,-1.2305,-1.2151,-1.2124,-1.2124,-1.1951,-1.1997,-1.2021,-1.1957,-1.2071,-1.2291,-1.2164,-1.2198,-1.2291,-1.2291,-1.2298,-1.2305,-1.2305,-1.2305,-1.2305,-1.2305,-1.2305,-1.2305,-1.2305,-1.2305,-1.2305,-1.2305,-1.2305,-1.2305,-1.2305,-1.2305,-1.2305,-1.2305,-1.2305,-1.2305,-1.2305,-1.2581,-1.2478,-1.2176,-1.0622,-0.8866,-0.7807,-0.6677,-0.6404,-0.6764,-0.6953,-0.6776,-0.6692,-0.6763,-0.6837,-0.6878,-0.6919,-0.6913,-0.6957,-0.6967,-0.7018,-0.7038,-0.7045,-0.7048,-0.7071,-0.7095,-0.7095,-0.7095,-0.7095,-0.7095,-0.7095,-0.7095,-0.7095,-0.7095,-0.7095,-2.0615,-2.0615,-2.0615,-2.0089,-1.9173,-1.7868,-1.6609,-1.5436,-1.4496,-1.4088,-1.4088,-1.4088,-1.4088,-1.4088,-1.4068,-1.4021,-1.3801,-1.3794,-1.3761,-1.3514,-1.3527,-1.3561,-1.3534,-1.3394,-1.3287,-1.3085,-1.2844,-1.2663,-1.2478,-1.2358,-1.2311,-1.2305,-1.2311,-1.2305,-1.2305,-1.2305,-1.2305,-1.2298,-1.2271,-1.2278,-1.2305,-1.2285,-1.2291,-1.2305,-1.2305,-1.2305,-1.2305,-1.2305,-1.2305,-1.2305,-1.2305,-1.2305,-1.2305,-1.2305,-1.2305,-1.2305,-1.2305,-1.2298,-1.2305,-1.2305,-1.2305,-1.2305,-1.2305,-1.2305,-1.2305,-1.2305,-1.2305,-1.2305,-1.2318,-1.2318,-1.2331,-1.2325,-1.2365,-1.2365,-1.2438,-1.2445,-1.2405,-1.2412,-1.2685,-1.2639,-1.2559,-1.2847,-1.3121,-1.2893,-1.2229,-1.0528,-0.8936,-0.7811,-0.6702,-0.6849,-0.7136,-0.6997,-0.6892,-0.6943,-0.6997,-0.7051,-0.7048,-0.7088,-0.7095,-0.7095,-0.7092,-0.7071,-0.7085,-0.7095,-0.7095,-0.7095,-0.7095,-0.7095,-0.7095,-0.7095,-0.7095,-0.7095,-0.7095,-0.7095,-0.7095,-2.0615,-2.0605,-2.0566,-2.0059,-1.9094,-1.7706,-1.6,-1.4208,-1.413,-1.4088,-1.4088,-1.4088,-1.4088,-1.4088,-1.4088,-1.4068,-1.4041,-1.4041,-1.4015,-1.4008,-1.3928,-1.3975,-1.3908,-1.3768,-1.3553,-1.3407,-1.3166,-1.2918,-1.2764,-1.2556,-1.2385,-1.2412,-1.2492,-1.2498,-1.2485,-1.2425,-1.2385,-1.2331,-1.2305,-1.2305,-1.2305,-1.2305,-1.2305,-1.2305,-1.2305,-1.2305,-1.2305,-1.2305,-1.2305,-1.2305,-1.2305,-1.2305,-1.2305,-1.2305,-1.2305,-1.2305,-1.2305,-1.2305,-1.2305,-1.2305,-1.2305,-1.2305,-1.2305,-1.2305,-1.2305,-1.2305,-1.2305,-1.2365,-1.2418,-1.2385,-1.2371,-1.2425,-1.2478,-1.2559,-1.2659,-1.2639,-1.2585,-1.2759,-1.3126,-1.316,-1.2973,-1.3107,-1.3379,-1.3324,-1.3102,-1.1875,-1.0244,-0.9028,-0.7944,-0.6953,-0.7129,-0.7088,-0.7024,-0.7055,-0.7095,-0.7095,-0.7095,-0.7095,-0.7095,-0.7095,-0.7095,-0.7095,-0.7095,-0.7095,-0.7095,-0.7095,-0.7095,-0.7095,-0.7095,-0.7095,-0.7095,-0.7095,-0.7095,-0.7095,-0.7095,-2.0527,-2.0372,-2.0186,-1.9529,-1.8367,-1.6698,-1.5228,-1.4166,-1.4088,-1.4088,-1.4088,-1.4088,-1.4088,-1.4088,-1.4088,-1.4088,-1.4088,-1.4088,-1.4082,-1.4088,-1.4088,-1.4088,-1.4048,-1.3968,-1.3786,-1.362,-1.338,-1.3133,-1.2871,-1.267,-1.2804,-1.2933,-1.2852,-1.2886,-1.2826,-1.2726,-1.2538,-1.2378,-1.2358,-1.2305,-1.2305,-1.2305,-1.2305,-1.2305,-1.2305,-1.2305,-1.2305,-1.2305,-1.2305,-1.2305,-1.2305,-1.2305,-1.2305,-1.2305,-1.2305,-1.2305,-1.2305,-1.2305,-1.2305,-1.2305,-1.2305,-1.2311,-1.2318,-1.2305,-1.2305,-1.2318,-1.2331,-1.2465,-1.2572,-1.2579,-1.2512,-1.2525,-1.2699,-1.2899,-1.306,-1.3206,-1.3166,-1.328,-1.3621,-1.3607,-1.342,-1.338,-1.365,-1.377,-1.3442,-1.2583,-1.1565,-1.0261,-0.8914,-0.7774,-0.7166,-0.7136,-0.7095,-0.7095,-0.7095,-0.7095,-0.7095,-0.7095,-0.7095,-0.7095,-0.7095,-0.7095,-0.7095,-0.7095,-0.7095,-0.7095,-0.7095,-0.7095,-0.7095,-0.7095,-0.7095,-0.7095,-0.7095,-0.7095,-0.7095,-2.0411,-2.0098,-1.9696,-1.8687,-1.718,-1.5842,-1.4831,-1.4215,-1.4088,-1.4088,-1.4088,-1.4088,-1.4088,-1.4088,-1.4088,-1.4088,-1.4088,-1.4088,-1.4088,-1.4088,-1.4088,-1.4088,-1.4088,-1.4075,-1.3981,-1.3793,-1.3633,-1.3393,-1.3126,-1.3018,-1.306,-1.3146,-1.3206,-1.3213,-1.3133,-1.2999,-1.2866,-1.2652,-1.2485,-1.2351,-1.2325,-1.2331,-1.2311,-1.2338,-1.2331,-1.2331,-1.2331,-1.2338,-1.2325,-1.2311,-1.2305,-1.2305,-1.2305,-1.2305,-1.2305,-1.2305,-1.2305,-1.2305,-1.2305,-1.2305,-1.2305,-1.2345,-1.2418,-1.2522,-1.2432,-1.2405,-1.2538,-1.2685,-1.2759,-1.2792,-1.2699,-1.2665,-1.2986,-1.3253,-1.3574,-1.3861,-1.3888,-1.3908,-1.3955,-1.3981,-1.3921,-1.3841,-1.3928,-1.4035,-1.3864,-1.3026,-1.2136,-1.1011,-0.9445,-0.7888,-0.7305,-0.7095,-0.7095,-0.7095,-0.7095,-0.7095,-0.7095,-0.7095,-0.7095,-0.7095,-0.7095,-0.7095,-0.7095,-0.7095,-0.7095,-0.7095,-0.7095,-0.7095,-0.7095,-0.7095,-0.7095,-0.7095,-0.7095,-0.7095,-0.7095,-2.0323,-1.9824,-1.9085,-1.7617,-1.5752,-1.5193,-1.4671,-1.4124,-1.4088,-1.4088,-1.4088,-1.4088,-1.4088,-1.4088,-1.4088,-1.4088,-1.4088,-1.4088,-1.4088,-1.4088,-1.4088,-1.4088,-1.4088,-1.4082,-1.4048,-1.3975,-1.3868,-1.3707,-1.3567,-1.3427,-1.3267,-1.3267,-1.3347,-1.3407,-1.3414,-1.3293,-1.3193,-1.3113,-1.2772,-1.2525,-1.2478,-1.2418,-1.2371,-1.2425,-1.2438,-1.2432,-1.2425,-1.2398,-1.2371,-1.2385,-1.2405,-1.2445,-1.2458,-1.2465,-1.2458,-1.2458,-1.2518,-1.2392,-1.2412,-1.2438,-1.2478,-1.2538,-1.2619,-1.2831,-1.2806,-1.2679,-1.2799,-1.2966,-1.3066,-1.316,-1.3113,-1.3113,-1.3327,-1.3581,-1.3828,-1.3988,-1.4015,-1.4021,-1.4028,-1.4055,-1.4041,-1.3981,-1.3995,-1.4088,-1.3913,-1.327,-1.2747,-1.1746,-1.0188,-0.8408,-0.7577,-0.7228,-0.7095,-0.7095,-0.7095,-0.7095,-0.7095,-0.7095,-0.7095,-0.7095,-0.7095,-0.7095,-0.7095,-0.7095,-0.7095,-0.7095,-0.7095,-0.7095,-0.7095,-0.7095,-0.7095,-0.7095,-0.7095,-0.7095,-0.7095,-2.0216,-1.9508,-1.7917,-1.646,-1.5242,-1.4776,-1.4412,-1.4088,-1.4088,-1.4088,-1.4088,-1.4088,-1.4088,-1.4088,-1.4088,-1.4088,-1.4088,-1.4088,-1.4088,-1.4088,-1.4088,-1.4088,-1.4088,-1.4088,-1.4088,-1.4075,-1.4015,-1.3941,-1.3874,-1.3707,-1.3654,-1.3828,-1.3821,-1.3781,-1.3774,-1.3647,-1.3487,-1.3467,-1.324,-1.2993,-1.2986,-1.2993,-1.2993,-1.2966,-1.2953,-1.2919,-1.2926,-1.2946,-1.2973,-1.2999,-1.2999,-1.3006,-1.2999,-1.2979,-1.2986,-1.2993,-1.2913,-1.2712,-1.2592,-1.2699,-1.2886,-1.2966,-1.3093,-1.324,-1.3253,-1.3054,-1.3086,-1.3267,-1.3394,-1.3494,-1.3554,-1.3581,-1.3627,-1.3841,-1.4028,-1.4055,-1.4088,-1.4088,-1.4088,-1.4088,-1.4088,-1.4088,-1.4088,-1.3997,-1.3786,-1.3568,-1.3355,-1.2528,-1.1025,-0.9331,-0.7977,-0.7496,-0.7183,-0.7095,-0.7095,-0.7095,-0.7095,-0.7095,-0.7095,-0.7095,-0.7095,-0.7095,-0.7095,-0.7095,-0.7095,-0.7095,-0.7095,-0.7095,-0.7095,-0.7095,-0.7095,-0.7095,-0.7095,-0.7095,-0.7095,-2.0137,-1.9222,-1.7269,-1.5733,-1.4748,-1.437,-1.4201,-1.413,-1.4088,-1.4088,-1.4088,-1.4088,-1.4088,-1.4088,-1.4088,-1.4088,-1.4088,-1.4088,-1.4088,-1.4088,-1.4088,-1.4088,-1.4088,-1.4088,-1.4088,-1.4088,-1.4088,-1.4062,-1.4048,-1.3981,-1.3955,-1.4075,-1.4088,-1.4082,-1.4062,-1.3915,-1.3786,-1.3834,-1.3634,-1.3581,-1.3514,-1.3394,-1.3233,-1.3206,-1.3213,-1.3227,-1.3206,-1.3206,-1.3206,-1.32,-1.3173,-1.3173,-1.3153,-1.3153,-1.318,-1.318,-1.3133,-1.306,-1.2926,-1.3019,-1.336,-1.3454,-1.3427,-1.348,-1.3561,-1.34,-1.3587,-1.3748,-1.3774,-1.3861,-1.3848,-1.3868,-1.3881,-1.4015,-1.4062,-1.4075,-1.4088,-1.4088,-1.4088,-1.4088,-1.4088,-1.4088,-1.4088,-1.4088,-1.3913,-1.3913,-1.3695,-1.3483,-1.1972,-1.025,-0.8899,-0.7672,-0.7272,-0.7095,-0.7095,-0.7095,-0.7095,-0.7095,-0.7095,-0.7095,-0.7095,-0.7095,-0.7095,-0.7095,-0.7095,-0.7095,-0.7095,-0.7095,-0.7095,-0.7095,-0.7095,-0.7095,-0.7095,-0.7105,-0.7139,-1.9971,-1.8807,-1.6903,-1.5318,-1.4208,-1.4088,-1.4088,-1.4088,-1.4088,-1.4088,-1.4088,-1.4088,-1.4088,-1.4088,-1.4088,-1.4088,-1.4088,-1.4088,-1.4088,-1.4088,-1.4088,-1.4088,-1.4088,-1.4088,-1.4088,-1.4088,-1.4088,-1.4088,-1.4075,-1.4035,-1.4035,-1.4082,-1.4088,-1.4088,-1.4088,-1.4082,-1.4041,-1.4028,-1.3968,-1.4028,-1.3854,-1.3614,-1.346,-1.336,-1.332,-1.3327,-1.3327,-1.3333,-1.3333,-1.336,-1.342,-1.3434,-1.344,-1.346,-1.3434,-1.3447,-1.3454,-1.3407,-1.3347,-1.3373,-1.3674,-1.3834,-1.3713,-1.3686,-1.3726,-1.3848,-1.4001,-1.4048,-1.4075,-1.4082,-1.4075,-1.4068,-1.4082,-1.4088,-1.4088,-1.4088,-1.4088,-1.4088,-1.4088,-1.4088,-1.4088,-1.4088,-1.4088,-1.4088,-1.4088,-1.4088,-1.3997,-1.3828,-1.3094,-1.1241,-0.9641,-0.8197,-0.7228,-0.7095,-0.7095,-0.7095,-0.7095,-0.7095,-0.7095,-0.7095,-0.7095,-0.7095,-0.7095,-0.7095,-0.7095,-0.7095,-0.7095,-0.7095,-0.7095,-0.7095,-0.7095,-0.7095,-0.7095,-0.7119,-0.7196,-1.9432,-1.7585,-1.6494,-1.5318,-1.4208,-1.4088,-1.4088,-1.4088,-1.4088,-1.4088,-1.4088,-1.4088,-1.4088,-1.4088,-1.4088,-1.4088,-1.4088,-1.4088,-1.4088,-1.4088,-1.4088,-1.4088,-1.4088,-1.4088,-1.4088,-1.4088,-1.4088,-1.4088,-1.4088,-1.4088,-1.4088,-1.4088,-1.4088,-1.4088,-1.4088,-1.4088,-1.4088,-1.4088,-1.4088,-1.4088,-1.4088,-1.3948,-1.3961,-1.3915,-1.3915,-1.3921,-1.3921,-1.3928,-1.3928,-1.3921,-1.3874,-1.3848,-1.3821,-1.3808,-1.3801,-1.3774,-1.3781,-1.3794,-1.3774,-1.3774,-1.4001,-1.4008,-1.3935,-1.3948,-1.3975,-1.3981,-1.4068,-1.4068,-1.4088,-1.4088,-1.4082,-1.4082,-1.4088,-1.4088,-1.4088,-1.4088,-1.4088,-1.4088,-1.4088,-1.4088,-1.4088,-1.4088,-1.4088,-1.4046,-1.3955,-1.3997,-1.4082,-1.3913,-1.3737,-1.21,-1.0294,-0.8719,-0.7228,-0.7095,-0.7095,-0.7095,-0.7095,-0.7095,-0.7095,-0.7095,-0.7095,-0.7095,-0.7095,-0.7095,-0.7095,-0.7095,-0.7095,-0.7095,-0.7095,-0.7095,-0.7095,-0.7095,-0.7095,-0.7156,-0.7253]},{"header":{"parameterUnit":"m.s-1","parameterCategory":1,"la1":31.0,"la2":29.5877,"lo1":-88.7671,"lo2":-86.6584,"dy":0.0162,"dx":0.0185,"nx":115,"ny":88,"refTime":"2026-05-16T12:00:00:Z","depth":0,"parameterNumber":3,"parameterNumberName":"V-component_of_WINDS"},"data":[0.0,0.0,0.0,0.0,0.0,0.0,0.0,0.0,0.0,0.0,0.0,0.0,0.0,0.0,0.0,0.0,0.0,0.0,0.0,0.0,0.0,0.0,0.0,0.0,0.0,0.0,0.0,0.0,0.0,0.0,0.0,0.0,0.0,0.0,0.0,0.0,0.0,0.0,0.0,0.0,0.0,0.0,0.0,0.0,0.0,0.0,0.0,0.0,0.0,0.0,0.0,0.0,0.0,0.0,0.0,0.0,0.0,0.0,0.0,0.0,0.0,0.0,0.0,0.0,0.0,0.0,0.0,0.0,0.0,0.0,0.0,0.0,0.0,0.0,0.0,0.0,0.0,0.0,0.0,0.0,0.0,0.0,0.0,0.0,0.0,0.0,0.0,0.0,0.0,0.0,0.0,0.0,0.0,0.0,0.0,0.0,0.0,0.0,0.0,0.0,0.0,0.0,0.0,0.0,0.0,0.0,0.0,0.0,0.0,0.0,0.0,0.0,0.0,0.0,0.0,0.0,0.0,0.0,0.0,0.0,0.0,0.0,0.0,0.0,0.0,0.0,0.0,0.0,0.0,0.0,0.0,0.0,0.0,0.0,0.0,0.0,0.0,0.0,0.0,0.0,0.0,0.0,0.0,0.0,0.0,0.0,0.0,0.0,0.0,0.0,0.0,0.0,0.0,0.0,0.0,0.0,0.0,0.0,0.0,0.0,0.0,0.0,0.0,0.0,0.0,0.0,0.0,0.0,0.0,0.0,0.0,0.0,0.0,0.0,0.0,0.0,0.0,0.0,0.0,0.0,0.0,0.0,0.0,0.0,0.0,0.0,0.0,0.0,0.0,0.0,0.0,0.0,0.0,0.0,0.0,0.0,0.0,0.0,0.0,0.0,0.0,0.0,0.0,0.0,0.0,0.0,0.0,0.0,0.0,0.0,0.0,0.0,0.0,0.0,0.0,0.0,0.0,0.0,0.0,0.0,0.0,0.0,0.0,0.0,0.0,0.0,0.0,0.0,0.0,0.0,0.0,0.0,0.0,0.0,0.0,0.0,0.0,0.0,0.0,0.0,0.0,0.0,0.0,0.0,0.0,0.0,0.0,0.0,0.0,0.0,0.0,0.0,0.0,0.0,0.0,0.0,0.0,0.0,0.0,0.0,0.0,0.0,0.0,0.0,0.0,0.0,0.0,0.0,0.0,0.0,0.0,0.0,0.0,0.0,0.0,0.0,0.0,0.0,0.0,0.0,0.0,0.0,0.0,0.0,0.0,0.0,0.0,0.0,0.0,0.0,0.0,0.0,0.0,0.0,0.0,0.0,0.0,0.0,0.0,0.0,0.0,0.0,0.0,0.0,0.0,0.0,0.0,0.0,0.0,0.0,0.0,0.0,0.0,0.0,0.0,0.0,0.0,0.0,0.0,0.0,0.0,0.0,0.0,0.0,0.0,0.0,0.0,0.0,0.0,0.0,0.0,0.0,0.0,0.0,0.0,0.0,0.0,0.0,0.0,0.0,0.0,0.0,0.0,0.0,0.0,0.0,0.0,0.0,0.0,0.0,0.0,0.0,0.0,0.0,0.0,0.0,0.0,0.0,0.0,0.0,0.0,0.0,0.0,0.0,0.0,0.0,0.0,0.0,0.0,0.0,0.0,0.0,0.0,0.0,0.0,0.0,0.0,0.0,0.0,0.0,0.0,0.0,0.0,0.0,0.0,0.0,0.0,0.0,0.0,0.0,0.0,0.0,0.0,0.0,0.0,0.0,0.0,0.0,0.0,0.0,0.0,0.0,0.0,0.0,0.0,0.0,0.0,0.0,0.0,0.0,0.0,0.0,0.0,0.0,0.0,0.0,0.0,0.0,0.0,0.0,0.0,0.0,0.0,0.0,0.0,0.0,0.0,0.0,0.0,0.0,0.0,0.0,0.0,0.0,0.0,0.0,0.0,0.0,0.0,0.0,0.0,0.0,0.0,0.0,0.0,0.0,0.0,0.0,0.0,0.0,0.0,0.0,0.0,0.0,0.0,0.0,0.0,0.0,0.0,0.0,0.0,0.0,0.0,0.0,0.0,0.0,0.0,0.0,0.0,0.0,0.0,0.0,0.0,0.0,0.0,0.0,0.0,0.0,0.0,0.0,0.0,0.0,0.0,0.0,0.0,0.0,0.0,0.0,0.0,0.0,0.0,0.0,0.0,0.0,0.0,0.0,0.0,0.0,0.0,0.0,0.0,0.0,0.0,0.0,0.0,0.0,0.0,0.0,0.0,0.0,0.0,0.0,0.0,0.0,0.0,0.0,0.0,0.0,0.0,0.0,0.0,0.0,0.0,0.0,0.0,0.0,0.0,0.0,0.0,0.0,0.0,0.0,0.0,0.0,0.0,0.0,0.0,0.0,0.0,0.0,0.0,0.0,0.0,0.0,0.0,0.0,0.0,0.0,0.0,0.0,0.0,0.0,0.0,0.0,0.0,0.0,0.0,0.0,0.0,0.0,0.0,0.0,0.0,0.0,0.0,0.0,0.0,0.0,0.0,0.0,0.0,0.0,0.0,0.0,0.0,0.0,0.0,0.0,0.0,0.0,0.0,0.0,0.0,0.0,0.0,0.0,0.0,0.0,0.0,0.0,0.0,0.0,0.0,0.0,0.0,0.0,0.0,0.0,0.0,0.0,0.0,0.0,0.0,0.0,0.0,0.0,0.0,0.0,0.0,0.0,0.0,0.0,0.0,0.0,0.0,0.0,0.0,0.0,0.0,0.0,0.0,0.0,0.0,0.0,0.0,0.0,0.0,0.0,0.0,0.0,0.0,0.0,0.0,0.0,0.0,0.0,0.0,0.0,0.0,0.0,0.0,0.0,0.0,0.0,0.0,0.0,0.0,0.0,0.0,0.0,0.0,0.0,0.0,0.0,0.0,0.0,0.0,0.0,0.0,0.0,0.0,0.0,0.0,0.0,0.0,0.0,0.0,0.0,0.0,0.0,0.0,0.0,0.0,0.0,0.0,0.0,0.0,0.0,0.0,0.0,0.0,0.0,0.0,0.0,0.0,0.0,0.0,0.0,0.0,0.0,0.0,0.0,0.0,0.0,0.0,0.0,0.0,0.0,0.0,0.0,0.0,0.0,0.0,0.0,0.0,0.0,0.0,0.0,0.0,0.0,0.0,0.0,0.0,0.0,0.0,0.0,0.0,0.0,0.0,0.0,0.0,0.0,0.0,0.0,0.0,0.0,0.0,0.0,0.0,0.0,0.0,0.0,0.0,0.0,0.0,0.0,0.0,0.0,0.0,0.0,0.0,0.0,0.0,0.0,0.0,0.0,0.0,0.0,0.0,0.0,0.0,0.0,0.0,0.0,0.0,0.0,0.0,0.0,0.0,0.0,0.0,0.0,0.0,0.0,0.0,0.0,0.0,0.0,0.0,0.0,0.0,0.0,0.0,0.0,0.0,0.0,0.0,0.0,0.0,0.0,0.0,0.0,0.0,0.0,0.0,0.0,0.0,0.0,0.0,0.0,0.0,0.0,0.0,0.0,0.0,0.0,0.0,0.0,0.0,0.0,0.0,0.0,0.0,0.0,0.0,0.0,0.0,0.0,0.0,0.0,0.0,0.0,0.0,0.0,0.0,0.0,0.0,0.0,0.0,0.0,0.0,0.0,0.0,0.0,0.0,0.0,0.0,0.0,0.0,0.0,0.0,0.0,0.0,0.0,0.0,0.0,0.0,0.0,0.0,0.0,0.0,0.0,0.0,0.0,0.0,0.0,0.0,0.0,0.0,0.0,0.0,0.0,0.0,0.0,0.0,0.0,0.0,0.0,0.0,0.0,0.0,0.0,0.0,0.0,0.0,0.0,0.0,0.0,0.0,0.0,0.0,0.0,0.0,0.0,0.0,0.0,0.0,0.0,0.0,0.0,0.0,0.0,0.0,0.0,0.0,0.0,0.0,0.0,0.0,0.0,0.0,0.0,0.0,0.0,0.0,0.0,0.0,0.0,0.0,0.0,0.0,0.0,0.0,0.0,0.0,0.0,0.0,0.0,0.0,0.0,0.0,0.0,0.0,0.0,0.0,0.0,0.0,0.0,0.0,0.0,0.0,0.0,0.0,0.0,0.0,0.0,0.0,0.0,0.0,0.0,0.0,0.0,0.0,0.0,0.0,0.0,0.0,0.0,0.0,0.0,0.0,0.0,0.0,0.0,0.0,0.0,0.0,0.0,0.0,0.0,0.0,0.0,0.0,0.0,0.0,0.0,0.0,0.0,0.0,0.0,0.0,0.0,0.0,0.0,0.0,0.0,0.5012,0.0,0.0,0.0,0.0,0.0,0.0,0.0,0.0,0.0,0.0,0.0,0.0,0.0,0.0,0.0,0.0,0.0,0.0,0.0,0.0,0.0,0.0,0.0,0.0,0.0,0.0,0.0,0.0,0.0,0.0,0.0,0.0,0.0,0.0,0.0,0.0,0.0,0.0,0.0,0.0,0.0,0.0,0.0,0.0,0.0,0.0,0.0,0.0,0.0,0.0,0.0,0.0,0.0,0.0,0.0,0.0,0.0,0.0,0.0,0.0,0.0,0.0,0.0,0.0,0.0,0.0,0.0,0.0,0.0,0.0,0.0,0.0,0.0,0.0,0.0,0.0,0.0,0.0,0.0,0.0,0.0,0.0,0.0,0.0,0.0,0.0,0.0,0.0,0.0,0.0,0.0,0.0,0.0,0.0,0.0,0.0,0.0,0.0,0.0,0.0,0.0,0.0,0.0,0.0,0.0,0.0,0.0,0.0,0.0,0.0,0.4934,0.5007,0.501,0.5014,0.5066,0.0,0.0,0.0,0.0,0.0,0.0,0.0,0.0,0.0,0.0,0.0,0.0,0.0,0.0,0.0,0.0,0.0,0.0,0.0,0.0,0.0,0.0,0.0,0.0,0.0,0.0,0.0,0.0,0.0,0.0,0.0,0.0,0.0,0.0,0.0,0.0,0.0,0.0,0.0,0.0,0.0,0.0,0.0,0.0,0.0,0.0,0.0,0.0,0.0,0.0,0.0,0.0,0.0,0.0,0.0,0.0,0.0,0.0,0.0,0.0,0.0,0.0,0.0,0.0,0.0,0.0,0.0,0.0,0.0,0.0,0.0,0.0,0.0,0.0,0.0,0.0,0.0,0.0,0.0,0.0,0.0,0.0,0.0,0.0,0.0,0.0,0.0,0.0,0.0,0.0,0.0,0.0,0.0,0.0,0.0,0.0,0.0,0.0,0.0,0.0,0.0,0.0,0.0,0.0,0.0,0.0,0.0,0.0,0.0,0.0,0.0,0.0,0.5094,0.503,0.5081,0.0,0.0,0.0,0.0,0.0,0.0,0.0,0.0,0.0,0.0,0.0,0.0,0.0,0.0,0.0,0.0,0.0,0.0,0.0,0.0,0.0,0.0,0.0,0.0,0.0,0.0,0.0,0.0,0.0,0.0,0.0,0.0,0.0,0.0,0.0,0.0,0.0,0.0,0.0,0.0,0.0,0.0,0.0,0.0,0.0,0.0,0.0,0.0,0.0,0.0,0.0,0.0,0.0,0.0,0.0,0.0,0.0,0.0,0.0,0.0,0.0,0.0,0.0,0.0,0.0,0.0,0.0,0.0,0.0,0.0,0.0,0.0,0.0,0.0,0.0,0.0,0.0,0.0,0.0,0.0,0.0,0.0,0.0,0.0,0.0,0.0,0.0,0.0,0.0,0.0,0.0,0.0,0.0,0.0,0.0,0.0,0.0,0.0,0.0,0.0,0.0,0.0,0.0,0.0,0.0,0.0,0.0,0.0,0.0,0.0,0.5286,0.6047,0.5385,0.0,0.5018,0.0,0.0,0.0,0.0,0.0,0.0,0.0,0.0,0.0,0.0,0.0,0.0,0.0,0.0,0.0,0.0,0.0,0.0,0.0,0.0,0.0,0.0,0.0,0.0,0.0,0.0,0.0,0.0,0.0,0.0,0.0,0.0,0.0,0.0,0.0,0.0,0.0,0.0,0.0,0.0,0.0,0.0,0.0,0.0,0.0,0.0,0.0,0.0,0.0,0.0,0.0,0.0,0.0,0.0,0.0,0.0,0.0,0.0,0.0,0.0,0.0,0.0,0.0,0.0,0.0,0.0,0.0,0.0,0.0,0.0,0.0,0.0,0.0,0.0,0.0,0.0,0.0,0.0,0.0,0.0,0.0,0.0,0.0,0.0,0.0,0.0,0.0,0.0,0.0,0.0,0.0,0.0,0.0,0.0,0.0,0.0,0.0,0.0,0.0,0.0,0.0,0.0,0.0,0.0,0.0,0.0,0.0,0.0,0.0,0.0,0.5998,0.6829,0.6577,0.6186,0.0,0.0,0.0,0.0,0.0,0.0,0.0,0.0,0.0,0.0,0.0,0.0,0.0,0.0,0.0,0.0,0.0,0.0,0.0,0.0,0.0,0.0,0.0,0.0,0.0,0.0,0.0,0.0,0.0,0.0,0.0,0.0,0.0,0.0,0.0,0.0,0.0,0.0,0.0,0.0,0.0,0.0,0.0,0.0,0.0,0.0,0.0,0.0,0.0,0.0,0.0,0.0,0.0,0.0,0.0,0.0,0.0,0.0,0.0,0.0,0.0,0.0,0.0,0.0,0.0,0.0,0.0,0.0,0.0,0.0,0.0,0.0,0.0,0.0,0.0,0.0,0.0,0.0,0.0,0.0,0.0,0.0,0.0,0.0,0.0,0.0,0.0,0.0,0.0,0.0,0.0,0.0,0.0,0.0,0.0,0.0,0.0,0.0,0.0,0.0,0.0,0.0,0.0,0.0,0.0,0.0,0.0,0.0,0.0,0.0,0.5431,0.0,0.6636,0.7144,0.6944,0.5918,0.0,0.0,0.0,0.0,0.0,0.0,0.0,0.0,0.0,0.0,0.0,0.0,0.0,0.0,0.0,0.0,0.0,0.0,0.0,0.0,0.0,0.0,0.0,0.0,0.0,0.0,0.0,0.0,0.0,0.0,0.0,0.0,0.0,0.0,0.0,0.0,0.0,0.0,0.0,0.0,0.0,0.0,0.0,0.0,0.0,0.0,0.0,0.0,0.0,0.0,0.0,0.0,0.0,0.0,0.0,0.0,0.0,0.0,0.0,0.0,0.0,0.0,0.0,0.0,0.0,0.0,0.0,0.0,0.0,0.0,0.0,0.0,0.0,0.0,0.0,0.0,0.0,0.0,0.0,0.0,0.0,0.0,0.0,0.0,0.0,0.0,0.0,0.0,0.0,0.0,0.0,0.0,0.0,0.0,0.0,0.0,0.0,0.0,0.0,0.0,0.0,0.0,0.0,0.0,0.0,0.0,0.0,0.0,0.0,0.4932,0.4981,0.5131,0.6621,0.6718,0.0,0.0,0.0,0.0,0.0,0.0,0.0,0.0,0.0,0.0,0.0,0.0,0.0,0.0,0.0,0.0,0.0,0.0,0.0,0.0,0.0,0.0,0.0,0.0,0.0,0.0,0.0,0.0,0.0,0.0,0.0,0.0,0.0,0.0,0.0,0.0,0.0,0.0,0.0,0.0,0.0,0.0,0.0,0.0,0.0,0.0,0.0,0.0,0.0,0.0,0.0,0.0,0.0,0.0,0.0,0.0,0.0,0.0,0.0,0.0,0.0,0.0,0.0,0.0,0.0,0.0,0.0,0.0,0.0,0.0,0.0,0.0,0.0,0.0,0.0,0.0,0.0,0.0,0.0,0.0,0.0,0.0,0.0,0.0,0.0,0.0,0.0,0.0,0.0,0.0,0.0,0.0,0.0,0.0,0.0,0.0,0.0,0.0,0.0,0.0,0.0,0.0,0.0,0.0,0.0,0.0,0.0,0.0,0.0,0.483,0.5873,0.6441,0.647,0.7102,0.6909,0.0,0.0,0.0,0.0,0.0,0.0,0.0,0.0,0.0,0.0,0.0,0.0,0.0,0.0,0.0,0.0,0.0,0.0,0.0,0.0,0.0,0.0,0.0,0.0,0.0,0.0,0.0,0.0,0.0,0.0,0.0,0.0,0.0,0.0,0.0,0.0,0.0,0.0,0.0,0.0,0.0,0.0,0.0,0.0,0.0,0.0,0.0,0.0,0.0,0.0,0.0,0.0,0.0,0.0,0.0,0.0,0.0,0.0,0.0,0.0,0.0,0.0,0.0,0.0,0.0,0.0,0.0,0.0,0.0,0.0,0.0,0.0,0.0,0.0,0.0,0.0,0.0,0.0,0.0,0.0,0.0,0.0,0.0,0.0,0.0,0.0,0.0,0.0,0.0,0.0,0.0,0.0,0.0,0.0,0.0,0.0,0.0,0.0,0.0,0.0,0.0,0.0,0.0,0.0,0.0,0.0,0.0,0.0,0.0,0.5263,0.0,0.748,0.0,0.7275,0.693,0.0,0.0,0.0,0.0,0.0,0.0,0.0,0.0,0.0,0.0,0.0,0.0,0.0,0.0,0.0,0.0,0.0,0.0,0.0,0.0,0.0,0.0,0.0,0.0,0.0,0.0,0.0,0.0,0.0,0.0,0.0,0.0,0.0,0.0,0.0,0.0,0.0,0.0,0.0,0.0,0.0,0.0,0.0,0.0,0.0,0.0,0.0,0.0,0.0,0.0,0.0,0.0,0.0,0.0,0.0,0.0,0.0,0.0,0.0,0.0,0.0,0.0,0.0,0.0,0.0,0.0,0.0,0.0,0.0,0.0,0.0,0.0,0.0,0.0,0.0,0.0,0.0,0.0,0.0,0.0,0.0,0.0,0.0,0.0,0.0,0.0,0.0,0.0,0.0,0.0,0.0,0.0,0.0,0.0,0.0,0.0,0.0,0.0,0.0,0.0,0.0,0.0,0.0,0.0,0.0,0.0,0.0,0.0,0.5302,0.6163,0.7722,0.7848,0.633,0.7082,0.6718,0.0,0.0,0.0,0.0,0.0,0.0,0.0,0.0,0.0,0.0,0.0,0.0,0.0,0.0,0.0,0.0,0.0,0.0,0.0,0.0,0.0,0.0,0.0,0.0,0.0,0.0,0.0,0.0,0.0,0.0,0.0,0.0,0.0,0.0,0.0,0.0,0.0,0.0,0.0,0.0,0.0,0.0,0.0,0.0,0.0,0.0,0.0,0.0,0.0,0.0,0.0,0.0,0.0,0.0,0.0,0.0,0.0,0.0,0.0,0.0,0.0,0.0,0.0,0.0,0.0,0.0,0.0,0.0,0.0,0.0,0.0,0.0,0.0,0.0,0.0,0.0,0.0,0.0,0.0,0.0,0.0,0.0,0.0,0.0,0.0,0.0,0.0,0.0,0.0,0.0,0.0,0.0,0.0,0.0,0.0,0.0,0.0,0.0,0.0,0.0,0.0,0.0,0.0,0.0,0.0,0.0,0.0,0.0,0.0,0.7839,0.8323,0.8404,0.794,0.7703,0.7039,0.0,0.0,0.0,0.0,0.0,0.0,0.0,0.0,0.0,0.0,0.0,0.0,0.0,0.0,0.0,0.0,0.0,0.0,0.0,0.0,0.0,0.0,0.0,0.0,0.0,0.0,0.0,0.0,0.0,0.0,0.0,0.0,0.0,0.0,0.0,0.0,0.0,0.0,0.0,0.0,0.0,0.0,0.0,0.0,0.0,0.0,0.0,0.0,0.0,0.0,0.0,0.0,0.0,0.0,0.0,0.0,0.0,0.0,0.0,0.0,0.0,0.0,0.0,0.0,0.0,0.0,0.0,0.0,0.0,0.0,0.0,0.0,0.0,0.0,0.0,0.0,0.0,0.0,0.0,0.0,0.0,0.0,0.0,0.0,0.0,0.0,0.0,0.0,0.0,0.0,0.0,0.0,0.0,0.0,0.0,0.0,0.0,0.0,0.0,0.0,0.0,0.0,0.0,0.0,0.0,0.0,0.0,0.0,0.0,1.0013,1.0025,0.974,0.9199,0.8756,0.7984,0.6845,0.0,0.0,0.0,0.0,0.0,0.0,0.0,0.0,0.0,0.0,0.0,0.0,0.0,0.0,0.0,0.0,0.0,0.0,0.0,0.0,0.0,0.0,0.0,0.0,0.0,0.0,0.0,0.0,0.0,0.0,0.0,0.0,0.0,0.0,0.0,0.0,0.0,0.0,0.0,0.0,0.0,0.0,0.0,0.0,0.0,0.0,0.0,0.0,0.0,0.0,0.0,0.0,0.0,0.0,0.0,0.0,0.0,0.0,0.0,0.0,0.0,0.0,0.0,0.0,0.0,0.0,0.0,0.0,0.0,0.0,0.0,0.0,0.0,0.0,0.0,0.0,0.0,0.0,0.0,0.0,0.0,0.0,0.0,0.0,0.0,0.0,0.0,0.0,0.0,0.0,0.0,0.0,0.0,0.0,0.0,0.0,0.0,0.0,0.0,0.0,0.0,0.0,0.0,0.0,0.0,0.0,0.0,0.0,1.2383,1.2496,1.1789,1.029,1.0194,0.941,0.0,0.0,0.0,0.0,0.0,0.0,0.0,0.0,0.0,0.0,0.0,0.0,0.0,0.0,0.0,0.0,0.0,0.0,0.0,0.0,0.0,0.0,0.0,0.0,0.0,0.0,0.0,0.0,0.0,0.0,0.0,0.0,0.0,0.0,0.0,0.0,0.0,0.0,0.0,0.0,0.0,0.0,0.0,0.0,0.0,0.0,0.0,0.0,0.0,0.0,0.0,0.0,0.0,0.0,0.0,0.0,0.0,0.0,0.0,0.0,0.0,0.0,0.0,0.0,0.0,0.0,0.0,0.0,0.0,0.0,0.0,0.0,0.0,0.0,0.0,0.0,0.0,0.0,0.0,0.0,0.0,0.0,0.0,0.0,0.0,0.0,0.0,0.0,0.0,0.0,0.0,0.0,0.0,0.0,0.0,0.0,0.0,0.0,0.0,0.0,0.0,0.0,0.0,0.0,0.0,0.0,0.0,0.0,0.0,1.2478,1.3694,1.3804,1.274,1.1544,1.0434,0.0,0.0,0.0,0.0,0.0,0.0,0.0,0.0,0.0,0.0,0.0,0.0,0.0,0.0,0.0,0.0,0.0,0.0,0.0,0.0,0.0,0.0,0.0,0.0,0.0,0.0,0.0,0.0,0.0,0.0,0.0,0.0,0.0,0.0,0.0,0.0,0.0,0.0,0.0,0.0,0.0,0.0,0.0,0.0,0.0,0.0,0.0,0.0,0.0,0.0,0.0,0.0,0.0,0.0,0.0,0.0,0.0,0.0,0.0,0.0,0.0,0.0,0.0,0.0,0.0,0.0,0.0,0.0,0.0,0.0,0.0,0.0,0.0,0.0,0.0,0.0,0.0,0.0,0.0,0.0,0.0,0.0,0.0,0.0,0.0,0.0,0.0,0.0,0.0,0.0,0.0,0.0,0.0,0.0,0.0,0.0,0.0,0.0,0.0,0.0,0.0,0.0,0.0,0.0,0.0,0.0,0.0,0.0,1.2157,1.3035,1.4312,1.4768,1.4285,1.2636,1.1389,0.0,0.0,0.0,0.0,0.0,0.0,0.0,0.0,0.0,0.0,0.0,0.0,0.0,0.0,0.0,0.0,0.0,0.0,0.0,0.0,0.0,0.0,0.0,0.0,0.0,0.0,0.0,0.0,0.0,0.0,0.0,0.0,0.0,0.0,0.0,0.0,0.0,0.0,0.0,0.0,0.0,0.0,0.0,0.0,0.0,0.0,0.0,0.0,0.0,0.0,0.0,0.0,0.0,0.0,0.0,0.0,0.0,0.0,0.0,0.0,0.0,0.0,0.0,0.0,0.0,0.0,0.0,0.0,0.0,0.0,0.0,0.0,0.0,0.0,0.0,0.0,0.0,0.0,0.0,0.0,0.0,0.0,0.0,0.0,0.0,0.0,0.0,0.0,0.0,0.0,0.0,0.0,0.0,0.0,0.0,0.0,0.0,0.0,0.0,0.0,0.0,0.0,0.0,0.0,0.0,0.0,0.0,0.0,1.2928,1.3769,1.458,1.5007,1.5029,1.3506,1.2283,0.0,0.0,0.0,0.0,0.0,0.0,0.0,0.0,0.0,0.0,0.0,0.0,0.0,0.0,0.0,0.0,0.0,0.0,0.0,0.0,0.0,0.0,0.0,0.0,0.0,0.0,0.0,0.0,0.0,0.0,0.0,0.0,0.0,0.0,0.0,0.0,0.0,0.0,0.0,0.0,0.0,0.0,0.0,0.0,0.0,0.0,0.0,0.0,0.0,0.0,0.0,0.0,0.0,0.0,0.0,0.0,0.0,0.0,0.0,0.0,0.0,0.0,0.0,0.0,0.0,0.0,0.0,0.0,0.0,0.0,0.0,0.0,0.0,0.0,0.0,0.0,0.0,0.0,0.0,0.0,0.0,0.0,0.0,0.0,0.0,0.0,0.0,0.0,0.0,0.0,0.0,0.0,0.0,0.0,0.0,0.0,0.0,0.0,0.0,0.0,0.0,0.0,0.0,0.0,0.0,0.0,0.0,0.0,1.2904,1.3705,1.4567,1.5008,1.5019,1.4036,1.3163,0.0,0.0,0.0,0.0,0.0,0.0,0.0,0.0,0.0,0.0,0.0,0.0,0.0,0.0,0.0,0.0,0.0,0.0,0.0,0.0,0.0,0.0,0.0,0.0,0.0,0.0,0.0,0.0,0.0,0.0,0.0,0.0,0.0,0.0,0.0,0.0,0.0,0.0,0.0,0.0,0.0,0.0,0.0,0.0,0.0,0.0,0.0,0.0,0.5098,0.0,0.0,0.0,0.0,0.0,0.0,0.0,0.0,0.0,0.0,0.0,0.0,0.0,0.0,0.0,0.0,0.0,0.0,0.0,0.0,0.0,0.0,0.0,0.0,0.0,0.0,0.0,0.0,0.0,0.0,0.0,0.0,0.0,0.0,0.0,0.0,0.0,0.0,0.0,0.0,0.0,0.0,0.0,0.0,0.0,0.0,0.0,0.0,0.0,0.0,0.0,0.0,0.0,0.0,0.0,0.0,0.0,0.0,0.0,1.3382,1.4199,1.4684,1.4944,1.4933,1.4543,1.3783,0.0,0.0,0.0,0.0,0.0,0.0,0.0,0.0,0.0,0.0,0.0,0.0,0.0,0.0,0.0,0.0,0.0,0.0,0.0,0.0,0.0,0.0,0.0,0.0,0.0,0.0,0.0,0.0,0.0,0.0,0.0,0.0,0.0,0.0,0.0,0.0,0.0,0.0,0.0,0.0,0.0,0.0,0.0,0.0,0.0,0.0,0.0,0.0,0.0,0.0,0.0,0.0,0.0,0.0,0.0,0.0,0.0,0.0,0.0,0.0,0.0,0.0,0.0,0.0,0.0,0.0,0.0,0.0,0.0,0.0,0.0,0.0,0.0,0.0,0.0,0.0,0.0,0.0,0.0,0.0,0.0,0.0,0.0,0.0,0.0,0.0,0.0,0.0,0.0,0.0,0.0,0.0,0.0,0.0,0.0,0.0,0.0,0.0,0.0,0.0,0.0,0.0,0.0,0.0,0.0,0.0,0.0,1.3044,1.3896,1.4742,1.485,1.4891,1.4891,1.4872,1.4163,1.2614,0.0,0.0,0.0,0.0,0.0,0.0,0.0,0.0,0.0,0.0,0.0,0.0,0.0,0.0,0.0,0.0,0.0,0.0,0.0,0.0,0.0,0.0,0.0,0.0,0.0,0.0,0.0,0.0,0.0,0.0,0.0,0.0,0.0,0.0,0.0,0.0,0.0,0.0,0.481,0.6553,0.0,0.0,0.0,0.0,0.0,0.0,0.0,0.0,0.6055,0.0,0.0,0.0,0.0,0.0,0.0,0.0,0.0,0.0,0.0,0.0,0.0,0.0,0.0,0.0,0.0,0.0,0.0,0.0,0.0,0.0,0.0,0.0,0.0,0.0,0.0,0.0,0.0,0.0,0.0,0.0,0.0,0.0,0.0,0.0,0.0,0.0,0.0,0.0,0.0,0.0,0.0,0.0,0.0,0.0,0.0,0.0,0.0,0.0,0.0,0.0,0.0,0.0,0.0,0.0,0.0,1.2165,1.2989,1.382,1.4698,1.478,1.4813,1.4813,1.4804,1.4059,1.25,0.0,0.0,0.0,0.0,0.0,0.0,0.0,0.0,0.0,0.0,0.0,0.0,0.0,0.0,0.0,0.0,0.0,0.0,0.0,0.0,0.0,0.0,0.0,0.0,0.0,0.0,0.0,0.0,0.0,0.0,0.0,0.0,0.0,0.0,0.0,0.0,0.0,0.0,0.0,0.6553,0.834,0.0,0.0,0.0,0.0,0.0,0.0,0.0,0.0,0.5098,0.0,0.0,0.0,0.0,0.0,0.0,0.0,0.0,0.0,0.0,0.0,0.0,0.0,0.0,0.0,0.0,0.0,0.0,0.0,0.0,0.0,0.0,0.0,0.0,0.0,0.0,0.0,0.0,0.0,0.0,0.0,0.0,0.0,0.0,0.0,0.0,0.0,0.0,0.0,0.0,0.0,0.0,0.0,0.0,0.0,0.0,0.0,0.0,0.0,0.0,0.0,0.0,0.0,0.0,0.0,1.2148,1.3357,1.4183,1.4622,1.4717,1.4733,1.4733,1.4331,1.3567,0.0,0.0,0.0,0.0,0.0,0.0,0.0,0.0,0.0,0.0,0.0,0.0,0.0,0.0,0.0,0.0,0.0,0.0,0.0,0.0,0.0,0.0,0.0,0.0,0.0,0.0,0.0,0.0,0.0,0.0,0.0,0.0,0.0,0.0,0.0,0.0,0.0,0.0,0.0,0.0,0.7147,0.834,1.0078,0.0,0.0,0.0,0.0,0.0,0.0,0.7207,0.748,0.0,0.0,0.0,0.0,0.0,0.0,0.0,0.0,0.0,0.0,0.0,0.0,0.0,0.0,0.0,0.0,0.0,0.0,0.0,0.0,0.0,0.0,0.0,0.0,0.0,0.0,0.0,0.0,0.0,0.0,0.0,0.0,0.0,0.0,0.0,0.0,0.0,0.0,0.0,0.0,0.0,0.0,0.0,0.0,0.0,0.0,0.0,0.0,0.0,0.0,0.0,0.0,0.0,0.0,0.0,1.2182,1.3716,1.4522,1.46,1.4661,1.4707,1.4717,1.3938,1.3139,0.0,0.0,0.0,0.0,0.0,0.0,0.0,0.0,0.0,0.0,0.0,0.0,0.0,0.0,0.0,0.0,0.0,0.0,0.0,0.0,0.0,0.0,0.0,0.0,0.0,0.0,0.0,0.0,0.0,0.0,0.0,0.0,0.0,0.0,0.0,0.0,0.0,0.0,0.0,0.0,0.0,0.8965,1.1035,1.0742,0.0,0.0,0.0,0.0,0.8457,0.9395,0.0,0.0,0.0,0.0,0.0,0.0,0.0,0.0,0.0,0.0,0.0,0.0,0.0,0.0,0.0,0.0,0.0,0.0,0.0,0.0,0.0,0.0,0.0,0.0,0.0,0.0,0.0,0.0,0.0,0.0,0.0,0.0,0.0,0.0,0.0,0.0,0.0,0.0,0.0,0.0,0.0,0.0,0.0,0.0,0.0,0.0,0.0,0.0,0.0,0.0,0.0,0.0,0.0,0.0,0.0,0.0,1.2183,1.3729,1.4528,1.46,1.4685,1.4736,1.4774,1.4013,1.3205,0.0,0.0,0.0,0.0,0.0,0.0,0.0,0.0,0.0,0.0,0.0,0.0,0.0,0.0,0.0,0.0,0.0,0.0,0.0,0.0,0.0,0.0,0.0,0.0,0.0,0.0,0.0,0.0,0.0,0.0,0.0,0.0,0.0,0.0,0.0,0.0,0.0,0.0,0.0,0.0,0.0,1.1172,1.4375,1.2227,1.082,0.0,0.0,1.0234,1.002,1.0176,0.0,0.0,0.0,0.0,0.0,0.0,0.0,0.0,0.0,0.0,0.0,0.0,0.0,0.0,0.0,0.0,0.0,0.0,0.0,0.0,0.0,0.0,0.0,0.0,0.0,0.0,0.0,0.0,0.0,0.0,0.0,0.0,0.0,0.0,0.0,0.0,0.0,0.0,0.0,0.0,0.0,0.0,0.0,0.0,0.0,0.0,0.0,0.0,0.0,0.0,0.0,0.0,0.0,0.0,0.0,1.0539,1.2178,1.3724,1.4522,1.46,1.4661,1.4741,1.4794,1.4019,1.3232,0.0,0.0,0.0,0.0,0.0,0.0,0.0,0.0,0.0,0.0,0.0,0.0,0.0,0.0,0.0,0.0,0.0,0.0,0.0,0.0,0.0,0.0,0.0,0.0,0.0,0.0,0.0,0.0,0.0,0.0,0.0,0.0,0.0,0.0,0.0,0.0,0.0,0.0,0.0,0.0,0.0,0.0,1.4922,1.4141,0.0,0.0,0.0,1.2871,1.1934,0.0,0.0,0.0,0.0,0.0,0.0,0.0,0.0,0.0,0.0,0.0,0.0,0.0,0.0,0.0,0.0,0.0,0.0,0.0,0.0,0.0,0.0,0.0,0.0,0.0,0.0,0.0,0.0,0.0,0.0,0.0,0.0,0.0,0.0,0.0,0.0,0.0,0.0,0.0,0.0,0.0,0.0,0.0,0.0,0.0,0.0,0.0,0.0,0.0,0.0,0.0,0.0,0.0,0.0,0.0,0.0,0.0,1.216,1.3719,1.4522,1.456,1.4645,1.4707,1.4756,1.4017,0.0,0.0,0.0,0.0,0.0,0.0,0.0,0.0,0.0,0.0,0.0,0.0,0.0,0.0,0.0,0.0,0.0,0.0,0.0,0.0,0.0,0.0,0.0,0.0,0.0,0.0,0.0,0.0469,0.0,0.0,0.0,0.0,0.0,0.0,0.0,0.0,0.0,0.0,0.0,0.0,0.0,0.0,1.2031,1.498,1.541,1.4941,0.0,0.0,1.4961,1.373,1.2422,1.127,0.0,0.0,0.0,0.0,0.0,0.0,0.0,0.0,0.0,0.0,0.0,0.0,0.0,0.0,0.0,0.0,0.0,0.0,0.0,0.0,0.0,0.0,0.0,0.0,0.0,0.0,0.0,0.0,0.0,0.0,0.0,0.0,0.0,0.0,0.0,0.0,0.0,0.0,0.0,0.0,0.0,0.0,0.0,0.0,0.0,0.0,0.0,0.0,0.0,0.0,0.0,0.0,0.0,0.0,0.0,1.2096,1.3679,1.4505,1.4515,1.4581,1.4645,1.4693,1.3994,1.3231,0.0,0.0,0.0,0.0,0.0,0.0,0.0,0.0,0.0,0.0,0.0,0.0,0.0,0.0,0.0,0.0,0.0,0.0,0.0,0.0,0.0,0.0,0.0,0.0,0.0,0.0,0.0,0.0,0.0,0.0,0.0,0.0,0.0,0.0,0.0,0.0,0.0,0.0,0.0,0.0,0.0,1.3359,1.5156,1.541,1.5371,0.0,0.0,1.5352,1.5254,1.5117,1.3984,1.0801,0.0,0.0,0.0,0.0,0.0,0.0,0.0,0.0,0.0,0.0,0.0,0.0,0.0,0.0,0.0,0.0,0.0,0.0,0.0,0.0,0.0,0.0,0.0,0.0,0.0,0.0,0.0,0.0,0.0,0.0,0.0,0.0,0.0,0.0,0.0,0.0,0.0,0.0,0.0,0.0,0.0,0.0,0.0,0.0,0.0,0.0,0.0,0.0,0.0,0.0,0.0,0.0,0.0,1.0482,1.2114,1.4169,1.5258,1.5264,1.576,1.5821,1.5392,1.5133,1.4186,0.0,0.0,0.0,0.0,0.0,0.0,0.0,0.0,0.0,0.0,0.0,0.0,0.0,0.0,0.0,0.0,0.0,0.0,0.0,0.0,0.0,0.0,0.0,0.0,0.0,0.0,0.0,0.0,0.373,0.4395,0.5039,0.0,0.0,0.0,0.0,0.0,0.0,0.0,0.0,0.0,0.0,1.3515,1.5156,1.541,0.0,0.0,1.541,1.541,1.541,1.541,1.4238,1.084,1.1191,0.0,0.0,0.0,0.0,0.0,0.0,0.0,0.0,0.0,0.0,0.0,0.0,0.0,0.0,0.0,0.0,0.0,0.0,0.0,0.0,0.0,0.0,0.0,0.0,0.0,0.0,0.0,0.0,0.0,0.0,0.0,0.0,0.0,0.0,0.0,0.0,0.0,0.0,0.0,0.0,0.0,0.0,0.0,0.0,0.0,0.0,0.0,0.0,0.0,0.0,0.0,0.0,1.0975,1.2792,1.4725,1.5821,1.6078,1.6615,1.6543,1.5833,1.5842,1.4859,0.0,0.0,0.0,0.0,0.0,0.0,0.0,0.0,0.0,0.0,0.0,0.0,0.0,0.0,0.0,0.0,0.0,0.0,0.0,0.0,0.0,0.0,0.0,0.0,0.0,0.0,0.0,0.0,0.5098,0.5098,0.5098,0.0,0.0,0.0,0.0,0.0,0.0,0.0,0.0,0.0,0.0,1.4446,1.6641,1.6953,1.6953,1.6972,1.695,1.6579,1.5566,1.541,1.4238,1.084,0.0,0.0,0.0,0.0,0.0,0.0,0.0,0.0,0.0,0.0,0.0,0.0,0.0,0.0,0.0,0.0,0.0,0.0,0.0,0.0,0.0,0.0,0.0,0.0,0.0,0.0,0.0,1.1063,0.0,0.0,0.999,0.0,0.0,0.0,0.0,0.0,0.0,0.0,0.0,0.0,0.0,0.0,0.0,0.0,0.0,0.0,0.0,0.0,0.0,0.0,0.0,0.0,0.0,1.2053,1.4402,1.5307,1.6114,1.6853,1.6908,1.658,1.5852,1.582,1.5072,1.3505,0.0,0.0,0.0,0.0,0.0,0.0,0.0,0.0,0.0,0.0,0.0,0.0,0.0,0.0,0.0,0.0,0.0,0.0,0.0,0.0,0.0,0.0,0.0,0.0,0.0,0.0,0.5254,0.5137,0.5176,0.0,0.0,0.0,0.0,0.0,0.0,0.0,0.0,0.0,0.0,1.5259,1.6612,1.9941,2.0449,2.0351,2.038,2.0342,1.919,1.5956,1.543,1.4238,0.0,0.0,0.0,0.0,0.0,0.0,0.0,0.0,0.0,0.0,0.0,0.0,0.0,0.0,0.0,0.0,0.0,0.0,0.0,0.0,0.0,0.0,0.0,0.0,0.0,0.0,0.0,1.3357,1.3231,0.0,0.0,0.0,0.0,0.0,0.0,0.0,0.0,0.0,0.0,0.0,1.6121,1.6108,0.0,0.0,0.0,0.0,0.0,0.0,0.0,0.0,0.0,0.0,0.0,0.0,1.2622,1.4469,1.6353,1.7429,1.7697,1.8225,1.7858,1.6561,1.6551,1.5556,1.3509,0.0,0.0,0.0,0.0,0.0,0.0,0.0,0.0,0.0,0.0,0.0,0.0,0.0,0.0,0.0,0.0,0.0,0.0,0.0,0.0,0.0,0.0,0.0,0.0,0.0,0.7578,0.0,0.0,0.0,0.0,0.0,0.0,0.0,0.0,0.0,0.0,0.0,1.6116,1.8299,1.7663,1.786,2.0207,2.0545,2.0514,0.0,0.0,0.0,0.0,0.0,0.0,0.0,0.0,0.0,0.0,0.0,0.0,0.0,0.0,1.918,1.7461,1.4199,1.2637,1.5683,0.0,0.0,0.0,0.0,0.0,0.0,0.0,0.0,0.0,0.0,0.0,0.0,0.0,0.0,1.5467,0.0,1.4322,0.0,0.0,0.0,0.0,0.0,0.0,0.0,0.0,1.7658,1.8202,1.8491,1.8262,1.8155,0.0,1.7869,1.6775,0.0,0.0,0.0,0.0,0.0,0.0,0.0,0.0,1.3728,1.535,1.716,1.8243,1.8519,1.9032,1.8665,1.7367,1.68,1.5538,1.3504,1.25,1.1725,0.0,0.0,0.0,0.0,0.0,0.0,0.0,0.0,0.0,0.0,0.0,0.0,0.0,0.0,0.0,0.0,0.0,0.0,0.0,0.0,0.0,0.0,0.0,0.9023,0.0,0.0,0.0,0.0,0.0,0.0,0.0,0.0,0.0,1.3574,1.4971,1.6966,1.9915,1.9349,1.9104,2.0264,0.0,0.0,0.0,0.0,0.0,0.0,0.0,1.6081,1.5488,1.6836,1.7617,1.6504,1.6797,1.7949,2.0195,0.0,0.0,2.0605,1.8164,1.668,1.8535,1.7988,1.7304,1.7554,1.691,1.6812,0.0,0.0,0.0,0.0,0.0,0.0,0.0,0.0,1.7995,1.7497,0.0,1.5833,0.0,0.0,0.0,0.0,0.0,1.6352,0.0,0.0,1.9804,2.068,2.137,2.0784,2.0494,2.0466,1.974,1.8941,1.8052,1.5796,0.0,0.0,0.0,0.0,0.0,0.0,1.535,1.689,1.7734,1.85,1.9242,1.9279,1.8911,1.8078,1.6607,1.5129,1.3672,1.3569,1.2873,1.1358,1.0453,0.0,0.0,0.0,0.0,0.0,0.0,0.0,0.0,0.0,0.0,0.0,0.0,0.0,0.0,0.0,0.0,0.0,0.0,0.0,0.0,0.9791,0.0,0.0,0.0,0.0,0.0,0.0,0.0,0.0,0.0,0.0,1.9407,1.8326,1.7838,2.0104,0.0,0.0,0.0,0.0,2.0346,2.0502,2.0488,2.0481,2.0391,1.9021,1.7481,1.6073,0.0,0.0,1.8086,1.9453,2.0508,2.0605,2.0684,2.0664,2.0625,2.0488,2.041,2.0508,2.041,2.0254,1.9531,1.8789,1.8711,2.0976,0.0,0.0,0.0,0.0,2.0092,2.0338,2.0378,1.9973,1.9703,1.9515,1.8602,0.0,0.0,0.0,0.0,0.0,0.0,1.938,2.0319,2.0639,2.0952,2.1259,2.1178,2.1161,2.1198,2.1023,2.0538,1.9766,1.8559,1.6958,1.5013,0.0,0.0,0.0,0.0,1.6725,1.7741,1.8555,1.9069,1.9279,1.9279,1.893,1.8115,1.6607,1.5622,1.5216,1.4167,1.3401,1.2908,1.1056,0.0,0.0,0.0,0.0,0.0,0.0,0.0,0.0,0.0,0.0,0.0,0.0,0.0,0.0,0.0,0.0,0.0,0.0,0.0,1.1422,1.0784,1.0259,0.0,0.0,0.0,0.0,0.0,0.0,0.0,0.0,0.0,1.9781,1.9761,2.0015,0.0,0.0,2.0288,2.0288,2.0337,2.0836,2.2137,2.2325,0.0,2.0587,2.0005,2.0395,2.2401,2.1172,1.9863,1.9844,2.0273,2.0605,2.0625,2.1602,2.2031,2.084,2.0605,2.0625,2.0605,2.0605,2.0762,2.1074,2.1074,2.1289,2.3405,2.1785,2.1813,2.1839,2.1822,2.2183,2.2447,2.2569,2.2397,2.2233,2.2052,2.1389,2.0766,2.0195,2.0033,0.0,0.0,0.0,2.1353,2.2053,2.1809,2.1936,2.2297,2.1868,2.1698,2.175,2.1568,2.1289,2.0887,2.0148,1.9043,1.7575,0.0,0.0,1.62,1.6988,1.7631,1.8115,1.8893,1.9279,1.9279,1.9279,1.8911,1.8115,1.692,1.6146,1.5899,1.4703,1.3895,1.3587,1.2207,1.0996,0.0,0.0,0.0,0.0,0.0,0.0,0.0,0.0,0.0,0.0,0.0,0.5949,0.0,0.0,0.0,0.0,1.0337,1.2071,1.3561,1.2173,0.0,0.0,0.0,0.0,0.0,0.0,0.0,1.7051,1.6653,1.751,2.0796,2.1293,2.1543,2.2216,2.1696,2.1293,2.1293,0.0,2.2627,2.3054,2.3677,2.3514,2.1762,2.0886,2.1636,2.5136,2.4062,2.2383,2.1738,2.2148,2.2598,2.2676,2.291,2.3027,2.2676,2.2109,2.1621,2.1621,2.1621,2.1758,2.2031,2.2559,2.2852,2.5595,2.4944,2.3718,2.3624,2.4243,2.4195,2.4475,2.4977,2.4832,2.4671,2.4455,2.3915,2.3335,2.2743,2.2228,0.0,2.3058,2.2929,2.3225,2.385,2.324,2.3367,2.3999,2.2757,2.2204,2.2273,2.1721,2.1501,2.1533,2.0967,2.0633,2.0523,1.8361,1.7206,1.7128,1.7814,1.8207,1.8207,1.893,1.9279,1.9279,1.9279,1.8948,1.8225,1.7417,1.6682,1.6005,1.5157,1.4382,1.3749,1.3623,1.2559,1.0433,0.0,0.0,0.0,0.0,0.0,0.0,0.0,0.0,0.0,0.0,0.0,0.0,0.0,0.0,0.0,1.2305,0.0,1.5353,1.4044,0.0,0.0,0.0,1.7411,1.5937,1.6396,1.7706,2.0027,0.0,0.0,2.2566,2.3009,2.2677,2.1812,2.2331,2.2836,2.2966,2.4423,2.5026,2.3577,2.4661,2.5094,2.3528,2.21,2.2241,2.5154,2.5703,2.498,2.3769,2.4492,2.5547,2.5488,2.4414,2.3809,2.543,2.4316,2.3398,2.3398,2.3398,2.3223,2.2695,2.3262,2.3437,2.7775,2.7063,2.6757,2.5937,2.4882,2.4763,2.4767,2.4849,2.472,2.4599,2.4489,2.4399,2.4347,2.4313,2.3686,2.3769,2.4419,2.4345,2.4376,2.4474,2.4388,2.4167,2.3884,2.3637,2.3307,2.2893,2.288,2.2632,2.2137,2.21,2.1815,2.1261,2.0732,1.9896,1.8775,1.893,1.9003,1.8996,1.9205,1.9279,1.9279,1.9279,1.9205,1.9014,1.77,1.6941,1.681,1.5431,1.4619,1.4433,1.384,1.3514,1.3466,1.1801,0.0,0.0,0.0,0.0,0.0,0.0,0.0,0.0,0.0,0.8631,0.9444,0.0,1.0038,0.0,1.3462,1.5605,1.7591,1.7006,0.0,0.0,1.8455,1.9559,1.9175,1.9294,1.9628,2.0215,1.9946,2.0966,2.4288,2.4692,2.4409,2.3605,2.3067,2.3254,2.449,2.5123,2.5385,2.5018,2.5321,2.5554,2.5073,2.4709,2.4602,2.5561,2.5703,2.5547,2.5176,2.541,2.5703,2.5684,2.541,2.5312,2.5625,2.5352,2.5117,2.5098,2.5098,2.4785,2.3828,2.3984,2.4336,2.8721,2.8349,2.8332,2.776,2.6778,2.6031,2.5678,2.5647,2.5569,2.5538,2.5472,2.5538,2.5601,2.5676,2.5326,2.5345,2.5693,2.5678,2.5631,2.5584,2.5307,2.4944,2.4564,2.4002,2.3595,2.3328,2.3157,2.2929,2.2598,2.2428,2.2162,2.182,2.1585,2.1071,2.031,2.0366,2.0233,1.984,1.9473,1.9279,1.9279,1.9279,1.9279,1.926,1.7803,1.7033,1.704,1.5494,1.4656,1.4648,1.4242,1.4159,1.4501,1.304,1.1121,0.0,0.0,0.0,0.0,0.0,0.0,0.0,0.0,0.0,0.0,0.0,1.3055,1.4692,1.6442,1.7834,1.8698,1.8819,1.8876,1.8925,1.9738,2.0288,2.0288,2.0735,2.1432,2.2408,2.187,2.2408,2.4942,2.5308,2.5154,2.4702,2.4216,2.4235,2.5082,2.5379,2.5423,2.541,2.549,2.5518,2.5518,2.5514,2.5551,2.5644,2.5696,2.5703,2.5703,2.5703,2.5703,2.5703,2.5703,2.5703,2.5703,2.5703,2.5703,2.5703,2.5703,2.5469,2.4902,2.4863,2.5156,2.9211,2.9145,2.9145,2.9094,2.8908,2.7571,2.6928,2.6826,2.6843,2.6793,2.6708,2.6708,2.6708,2.6708,2.6708,2.6708,2.6708,2.6708,2.6708,2.6657,2.6048,2.5677,2.5525,2.4289,2.3636,2.3576,2.3078,2.2885,2.2938,2.2406,2.2192,2.2298,2.1837,2.1645,2.1797,2.199,2.1584,2.0521,1.9822,1.9407,1.9279,1.9279,1.9279,1.9224,1.79,1.7154,1.7101,1.5697,1.4884,1.4883,1.4816,1.4666,1.4505,1.3849,1.2468,0.0,1.097,0.0,0.0,0.0,0.0,0.0,0.0,0.0,0.0,1.4618,1.6423,1.8635,1.9908,2.0254,1.9396,1.9908,2.0288,2.0308,2.0712,2.0942,2.0981,2.1712,2.3,2.5077,2.4024,2.3697,2.5077,2.5308,2.5308,2.525,2.5192,2.5173,2.5288,2.5313,2.5317,2.5308,2.5308,2.5331,2.5327,2.5364,2.5441,2.5554,2.5641,2.5678,2.5703,2.5703,2.5703,2.5703,2.5703,2.5703,2.5703,2.5703,2.5703,2.5703,2.5703,2.5684,2.5625,2.5605,2.5703,3.0429,2.9888,2.9905,2.955,2.8976,2.8688,2.818,2.7587,2.7587,2.7266,2.6708,2.6708,2.6708,2.6708,2.6708,2.6708,2.6708,2.6708,2.6708,2.6708,2.6556,2.6167,2.5592,2.5321,2.4606,2.3573,2.3508,2.324,2.276,2.2732,2.2842,2.3006,2.3053,2.316,2.3353,0.0,0.0,0.0,2.0338,1.996,1.9334,1.9279,1.9279,1.9279,1.8397,0.0,1.7861,1.6972,1.6469,1.6458,1.5858,0.0,0.0,0.0,0.0,0.0,0.0,0.0,0.0,0.0,0.0,0.0,1.6078,1.6232,1.5865,1.6679,1.8003,1.9808,2.1408,2.1966,2.11,2.0562,2.0288,2.0385,2.2712,2.4346,2.4327,2.3731,2.3827,2.5096,2.5019,2.4923,2.5212,2.5308,2.5308,2.5365,2.5308,2.5308,2.5308,2.5308,2.5308,2.5308,2.5308,2.5308,2.5308,2.5298,2.534,2.5426,2.5546,2.563,2.5684,2.5694,2.5692,2.5688,2.5703,2.5703,2.5703,2.5703,2.5703,2.5703,2.5703,2.5703,2.5703,2.5703,2.5703,3.0987,3.0649,3.0649,3.0429,0.0,3.0093,2.9651,2.8906,2.8552,2.818,2.7859,2.7842,2.7825,2.7808,2.7418,2.7232,2.7232,2.686,2.6708,2.6708,2.6708,2.6505,2.6133,2.5761,2.5235,2.4537,2.3864,2.3377,2.3044,2.2754,2.2725,2.2952,2.323,2.3459,2.3703,2.4026,2.3373,2.1758,2.0924,2.0309,1.9895,1.9517,1.9279,1.926,1.8519,0.0,0.0,0.0,0.0,0.0,0.0,0.0,0.0,0.0,0.0,1.3858,1.4725,1.491,1.4204,1.569,1.704,1.797,1.9302,1.9575,1.8474,1.7965,1.8776,2.1293,2.2312,2.2624,2.2177,2.1773,2.1543,2.1639,2.3788,2.5308,2.525,2.4808,2.4673,2.5154,2.5308,2.5308,2.5308,2.5308,2.5558,2.6,2.563,2.5346,2.5308,2.5308,2.5308,2.5308,2.5308,2.5308,2.5308,2.5308,2.5337,2.5374,2.5456,2.5528,2.5595,2.5549,2.5544,2.5611,2.567,2.5703,2.5703,2.5703,2.5703,2.5703,2.5703,2.5703,2.5703,2.5703,2.5703,3.119,3.119,3.119,3.119,3.119,3.119,3.0869,3.0243,0.0,0.0,0.0,2.8993,2.8993,2.8942,2.8298,2.7942,2.7773,2.7182,2.6826,2.6708,2.6708,2.6708,2.6674,2.6082,2.571,2.5525,2.4374,2.3646,2.3376,2.2801,2.2538,2.2716,2.3007,2.3335,2.3671,2.4006,2.3868,2.3171,2.1722,2.0804,2.0511,1.9858,1.9426,1.9297,1.8665,1.8317,1.8298,1.7686,1.7319,1.7312,1.7183,1.6908,1.6493,1.6801,1.6779,1.6393,1.6929,1.6978,1.636,1.7249,1.852,2.0192,2.1664,2.2012,2.077,1.9416,1.975,2.254,2.3016,2.3174,2.3006,2.3154,2.3235,2.3254,2.4481,2.5308,2.5308,2.5308,2.525,2.5308,2.5308,2.5308,2.5327,2.5962,2.6303,2.6788,2.6687,2.6187,2.6212,2.6442,2.6519,2.6538,2.6,2.538,2.5731,2.5865,2.5746,2.5786,2.5569,2.5404,2.5449,2.5372,2.5391,2.5548,2.5639,2.5684,2.5684,2.5703,2.5703,2.5703,2.5703,2.5703,2.5703,2.5703,2.5703,3.119,3.119,3.119,3.119,3.119,3.119,3.114,3.092,2.9602,2.8993,2.8993,2.8993,2.8993,2.8993,2.8891,2.845,2.7807,2.7705,2.73,2.6708,2.6708,2.6708,2.6708,2.659,2.6218,2.5609,2.5373,2.4644,2.3511,2.3291,2.3034,2.2718,2.2943,2.3399,2.3896,2.4046,2.4096,2.4025,2.3116,2.196,2.0539,2.0382,1.9979,1.9334,1.9179,1.9124,1.9113,1.8996,1.8967,1.8948,1.8309,1.7887,1.7796,1.727,1.6885,1.6848,1.7523,1.7897,1.7831,1.9291,2.0667,2.1665,2.2082,2.2262,2.2279,2.2163,2.2258,2.2703,2.3897,2.4473,2.3896,2.4418,2.4846,2.4885,2.5135,2.5308,2.5308,2.5308,2.5404,2.5558,2.5308,2.5346,2.5788,2.7827,2.875,2.775,2.8308,2.95,2.9346,2.9673,2.9673,2.9288,2.7154,2.6192,2.7024,2.7525,2.7304,2.6842,2.5924,2.5332,2.5336,2.5317,2.5351,2.5488,2.5809,2.587,2.5829,2.5703,2.5859,2.5898,2.5859,2.5723,2.582,2.582,2.5703,3.119,3.119,3.119,3.119,3.119,3.119,3.119,3.114,3.0499,3.0211,3.0211,3.0176,3.0211,3.0161,2.9788,2.9161,2.8433,2.7993,2.7418,2.6725,2.6708,2.6708,2.6708,2.6708,2.6505,2.6184,2.5778,2.5237,2.4577,2.3799,2.3294,2.3151,2.3144,2.3394,2.3806,2.3927,2.4064,2.4171,2.341,2.2612,2.1868,2.1418,2.0813,1.9987,1.995,1.973,1.9315,1.9279,1.9279,1.9279,1.8941,1.8739,1.8739,1.8408,1.8199,1.8225,1.8951,1.941,1.9392,2.1055,2.224,2.2669,2.321,2.3543,2.3695,2.3075,2.2988,2.3689,2.4458,2.473,2.4467,2.4938,2.5253,2.5303,2.5308,2.5308,2.5308,2.5308,2.6038,2.7481,2.6399,2.6014,2.7865,2.9442,3.011,2.9096,2.9904,3.0404,3.0404,3.0404,3.0404,3.0115,2.7558,2.65,2.7942,2.8904,2.8698,2.7698,2.6255,2.5423,2.5308,2.5327,2.5366,2.5566,2.6841,2.7783,2.7307,2.7092,2.7101,2.7025,2.6229,2.6093,2.6679,2.6425,2.5742,3.119,3.119,3.119,3.119,3.119,3.119,3.119,3.119,3.1173,3.119,3.119,3.119,3.119,3.1123,3.0598,2.9854,2.8993,2.8366,2.7588,2.6759,2.6708,2.6708,2.6708,2.6708,2.6708,2.6623,2.6116,2.5778,2.5474,2.4441,2.3786,2.3616,2.331,2.3307,2.3649,2.3806,2.3986,2.4143,2.3584,2.318,2.2988,2.2391,2.1675,2.0859,2.0804,2.0427,1.9656,1.9756,1.9774,1.9591,1.9756,1.9866,1.9866,1.9866,1.9848,1.9921,2.0446,2.0859,2.1116,2.2357,2.3228,2.342,2.4082,2.4515,2.4429,2.3594,2.3435,2.452,2.4564,2.4594,2.478,2.5006,2.5214,2.5452,2.5384,2.5308,2.5327,2.5615,2.6788,2.9077,2.7558,2.7154,2.9173,3.0173,3.0346,3.0308,3.0404,3.0404,3.0404,3.0404,3.0404,2.9923,2.8096,2.7341,2.8865,2.9731,2.964,2.8376,2.7371,2.6654,2.6346,2.6192,2.6476,2.6939,2.8632,2.9635,2.8932,2.8486,2.8328,2.8065,2.7557,2.7495,2.8533,2.7538,2.6172,3.119,3.119,3.119,3.119,3.119,3.119,3.119,3.119,3.119,3.119,3.119,3.119,3.119,3.119,3.1106,3.0311,2.9077,2.8925,2.8096,2.6826,2.6708,2.6708,2.6708,2.6708,2.6708,2.6691,2.659,2.6218,2.566,2.5406,2.4786,2.3759,2.3246,2.3176,2.35,2.3721,2.3937,2.419,2.4135,2.3731,2.3043,2.2933,2.2501,2.1702,2.1684,2.1272,2.0437,2.1143,2.1198,2.0548,2.1133,2.1537,2.1519,2.1537,2.1537,2.1537,2.1629,2.1996,2.2676,2.2905,2.3355,2.4035,2.4173,2.4238,2.4247,2.4118,2.4171,2.4505,2.4384,2.4411,2.4665,2.4805,2.5229,2.6104,2.5866,2.5308,2.5596,2.6717,2.7813,2.8005,2.8231,2.8385,2.8582,2.9596,3.0365,3.0404,3.0404,3.0404,3.0404,3.0404,3.0404,3.0404,2.9904,2.9846,3.0173,3.0269,2.9981,2.9223,2.9525,2.8981,2.8275,2.8731,2.9846,2.9019,2.98,3.0202,3.0057,2.9577,2.8745,2.8757,2.9148,3.0234,3.0406,2.9258,2.7754,3.119,3.119,3.119,3.119,3.119,3.119,3.119,3.119,3.119,3.119,3.119,3.119,3.119,3.119,3.119,3.0632,2.9651,2.9196,2.8417,2.7368,2.6911,2.6708,2.6708,2.6708,2.6708,2.6708,2.6708,2.6556,2.615,2.5389,2.4469,2.357,2.3047,2.2993,2.3311,2.3566,2.3865,2.419,2.4199,2.4025,2.3768,2.3712,2.3327,2.2611,2.252,2.2116,2.14,2.161,2.1647,2.1308,2.161,2.1794,2.1794,2.1794,2.1794,2.1812,2.2244,2.285,2.3657,2.3712,2.3859,2.419,2.4199,2.4199,2.4199,2.4199,2.4247,2.4331,2.4256,2.4441,2.5021,2.4794,2.5126,2.6575,2.7597,2.7838,2.6956,2.8327,2.9385,2.9352,2.8692,2.8615,2.9256,2.9962,3.0365,3.0404,3.0404,3.0404,3.0404,3.0404,3.0404,3.0404,3.0404,3.0404,3.0404,3.0404,3.0212,3.0038,3.0154,2.9942,2.975,2.9788,3.0365,3.0404,3.0404,3.041,3.0386,3.0253,2.9766,2.9676,2.9841,3.0778,3.0858,3.0332,2.9492,3.136,3.1207,3.119,3.119,3.119,3.119,3.119,3.119,3.119,3.119,3.119,3.119,3.119,3.119,3.119,3.0801,3.0072,2.955,2.8755,2.7824,2.7215,2.6911,2.6725,2.6708,2.6708,2.6758,2.6775,2.6808,2.6672,2.5344,2.4373,2.3806,2.3154,2.2973,2.3253,2.3504,2.3827,2.417,2.4199,2.4199,2.4199,2.4199,2.3914,2.3391,2.3318,2.296,2.2171,2.2345,2.2345,2.2143,2.2326,2.2455,2.2455,2.2455,2.2455,2.2492,2.2997,2.3556,2.4163,2.4199,2.4199,2.4199,2.4199,2.4199,2.4199,2.4199,2.4199,2.4199,2.4199,2.4559,2.5252,2.4764,2.5236,2.7245,2.9093,2.9544,2.8775,2.9715,3.0285,3.0257,2.9342,2.8939,3.0071,3.0385,3.0404,3.0404,3.0404,3.0404,3.0404,3.0404,3.0404,3.0404,3.0404,3.0404,3.0404,3.0404,3.0404,3.0404,3.0404,3.0404,3.0404,3.0404,3.0404,3.0404,3.0404,3.0404,3.0416,3.0411,3.0436,3.0533,3.0633,3.0734,3.0878,3.084,3.0859,3.1836,3.1258,3.1207,3.1258,3.1207,3.1224,3.119,3.119,3.119,3.119,3.119,3.119,3.119,3.119,3.119,3.0801,3.0192,3.004,2.9244,2.801,2.7756,2.7367,2.6725,2.6691,2.6758,2.6876,2.6957,2.7054,2.7078,2.5749,2.4942,2.4867,2.3724,2.3211,2.341,2.366,2.3917,2.417,2.4199,2.4199,2.4199,2.4199,2.4153,2.4098,2.4116,2.3731,2.3134,2.3676,2.3712,2.2951,2.3602,2.4006,2.4043,2.4034,2.3969,2.4016,2.408,2.4135,2.419,2.4199,2.4199,2.4208,2.4273,2.4236,2.43,2.4236,2.4254,2.4245,2.452,2.4898,2.5268,2.4734,2.5392,2.7895,2.9083,2.9731,3.0087,2.9982,3.0241,3.0324,3.0081,3.003,3.0354,3.0404,3.0404,3.0404,3.0404,3.0404,3.0404,3.0404,3.0404,3.0404,3.0404,3.0404,3.0404,3.0404,3.0404,3.0404,3.0404,3.0404,3.0404,3.0404,3.0404,3.0404,3.0404,3.0404,3.0404,3.0402,3.0442,3.0506,3.0568,3.0689,3.0857,3.0898,3.0918,3.2848,3.2611,3.2611,3.2341,3.1921,3.1921,3.165,3.1207,3.119,3.119,3.119,3.119,3.119,3.119,3.119,3.1055,3.0768,3.0328,2.9785,2.9176,2.8263,2.7655,2.7384,2.6945,2.6792,2.6975,2.7135,2.7334,2.7516,2.6613,2.5858,2.5274,2.4491,2.3922,2.3696,2.3774,2.3976,2.418,2.4199,2.4199,2.4199,2.4199,2.4199,2.4199,2.4199,2.4061,2.3768,2.4061,2.4061,2.3768,2.4061,2.4199,2.4199,2.4199,2.4199,2.4199,2.4199,2.4199,2.4199,2.4199,2.4199,2.4236,2.4695,2.497,2.4879,2.4548,2.4475,2.5217,2.6565,2.6935,2.5678,2.4805,2.5472,2.8248,2.9253,2.9579,2.9744,2.976,2.9794,2.9946,3.0142,3.0355,3.0386,3.0404,3.0404,3.0404,3.0404,3.0404,3.0404,3.0404,3.0404,3.0404,3.0404,3.0404,3.0404,3.0404,3.0404,3.0404,3.0404,3.0404,3.0404,3.0404,3.0404,3.0404,3.0404,3.0404,3.0404,3.0404,3.0439,3.0479,3.0539,3.0647,3.0857,3.0879,3.0898,3.3389,3.3389,3.3389,3.3119,3.2649,3.2395,3.2022,3.1532,3.1292,3.119,3.119,3.119,3.119,3.119,3.119,3.119,3.114,3.0666,3.0328,3.004,2.9024,2.828,2.7773,2.73,2.7046,2.7089,2.7352,2.7692,2.7935,2.7299,2.6498,2.5679,2.5052,2.4408,2.389,2.3896,2.4036,2.417,2.4199,2.4199,2.4199,2.4199,2.4199,2.4199,2.4199,2.4199,2.4199,2.4199,2.4199,2.4199,2.4199,2.4199,2.4199,2.4199,2.4199,2.4199,2.4199,2.4199,2.4199,2.4199,2.4428,2.4924,2.5209,2.5466,2.5686,2.5291,2.5346,2.6117,2.7703,2.8216,2.6814,2.5988,2.672,2.8769,2.924,2.9318,2.9453,2.9402,2.9483,2.9741,3.014,3.0355,3.0404,3.0404,3.0404,3.0404,3.0404,3.0404,3.0404,3.0404,3.0404,3.0404,3.0404,3.0404,3.0404,3.0404,3.0404,3.0404,3.0404,3.0404,3.0404,3.0404,3.0404,3.0404,3.0404,3.0404,3.0404,3.0404,3.0427,3.048,3.052,3.0597,3.0741,3.0855,3.0879,3.3457,3.3525,3.3423,3.3508,3.3339,3.2784,3.2361,3.2124,3.1549,3.1275,3.1207,3.119,3.119,3.119,3.119,3.119,3.1173,3.1106,3.0768,3.0226,3.0006,2.9193,2.8043,2.779,2.7487,2.7215,2.7651,2.8065,2.836,2.7689,2.6915,2.6063,2.5416,2.4733,2.3907,2.4044,2.4141,2.418,2.4199,2.4199,2.4199,2.4199,2.4199,2.4199,2.4199,2.4199,2.4199,2.4199,2.4199,2.4199,2.4199,2.4199,2.4199,2.4199,2.4199,2.4199,2.4199,2.4199,2.4199,2.4273,2.4997,2.5988,2.587,2.5962,2.6465,2.6612,2.6502,2.6557,2.7739,2.851,2.7794,2.8051,2.8654,2.9082,2.9078,2.9152,2.9272,2.9163,2.9192,2.9672,3.0101,3.038,3.0398,3.0398,3.0404,3.0404,3.0404,3.0404,3.0404,3.0404,3.0404,3.0404,3.0404,3.0404,3.0404,3.0404,3.0404,3.0404,3.0404,3.0404,3.0404,3.0404,3.0404,3.0404,3.0404,3.0404,3.0404,3.0404,3.0404,3.0431,3.0501,3.0629,3.0655,3.0773,3.0853,3.4906,3.4906,3.4906,3.4607,3.4167,3.3897,3.3292,3.2327,3.2039,3.1701,3.1258,3.119,3.119,3.119,3.119,3.119,3.119,3.119,3.1055,3.0784,3.0345,2.9852,2.9244,2.8298,2.774,2.7712,2.8055,2.8435,2.8676,2.8548,2.7782,2.6607,2.6228,2.54,2.424,2.4151,2.418,2.419,2.4199,2.4199,2.4199,2.4199,2.4199,2.4199,2.4199,2.4199,2.4199,2.4199,2.4199,2.4199,2.4199,2.4199,2.4199,2.4199,2.4199,2.4199,2.4199,2.4199,2.4281,2.474,2.5466,2.641,2.6833,2.7137,2.7457,2.7904,2.8088,2.7959,2.8656,2.8803,2.8656,2.8767,2.8998,2.9033,2.8998,2.9028,2.91,2.9055,2.9123,2.9361,2.9777,3.0087,3.0246,3.0311,3.0404,3.0404,3.0404,3.0404,3.0404,3.0404,3.0404,3.0404,3.0404,3.0404,3.0404,3.0481,3.0577,3.0615,3.0615,3.0423,3.0404,3.0404,3.0404,3.0404,3.0404,3.0404,3.0404,3.0404,3.0404,3.075,3.1094,3.1009,3.0737,3.0704,3.0808,3.5616,3.5616,3.5616,3.5346,3.4878,3.4641,3.3981,3.3089,3.2513,3.2039,3.1633,3.1328,3.119,3.119,3.119,3.119,3.119,3.119,3.119,3.114,3.0768,3.0395,2.9974,2.8694,2.8126,2.8282,2.8362,2.8607,2.8964,2.895,2.8326,2.7255,2.7053,2.6429,2.5217,2.5061,2.4979,2.4713,2.4649,2.4658,2.4585,2.4365,2.4346,2.4548,2.4355,2.4218,2.4199,2.4199,2.4199,2.4199,2.4199,2.4199,2.4199,2.4208,2.4318,2.4593,2.464,2.4548,2.4365,2.5246,2.6355,2.7291,2.7695,2.7952,2.8227,2.8785,2.8968,2.8987,2.8987,2.8987,2.8987,2.8987,2.8987,2.8987,2.8987,2.8987,2.9017,2.9096,2.9119,2.9232,2.9394,2.9662,2.9937,3.0266,3.0367,3.0404,3.0404,3.0404,3.0404,3.0404,3.0423,3.0423,3.0404,3.0404,3.0404,3.0538,3.0731,3.0827,3.0923,3.0615,3.0404,3.0404,3.0404,3.0404,3.0404,3.0404,3.0404,3.0423,3.0462,3.1019,3.1756,3.1857,3.1719,3.0849,3.0762,3.5616,3.5616,3.5616,3.5583,3.5464,3.4895,3.4506,3.4223,3.3123,3.2446,3.2141,3.1616,3.1258,3.1207,3.119,3.119,3.119,3.119,3.119,3.119,3.1072,3.0768,2.9991,2.9007,2.8666,2.8827,2.8559,2.8607,2.8975,2.8987,2.8583,2.7787,2.764,2.7346,2.6521,2.6528,2.6043,2.5374,2.5393,2.5429,2.5319,2.4832,2.4667,2.5311,2.4814,2.4483,2.4401,2.4511,2.4447,2.4309,2.4447,2.4575,2.441,2.4337,2.4814,2.5429,2.5476,2.5136,2.4887,2.586,2.7244,2.851,2.8282,2.8154,2.8785,2.8932,2.8987,2.8987,2.8987,2.8987,2.8987,2.8987,2.8987,2.8987,2.8987,2.8987,2.9017,2.9229,2.9294,2.9119,2.9062,2.9243,2.981,3.03,3.0592,3.0404,3.0404,3.0404,3.0404,3.0423,3.0462,3.0596,3.0808,3.0712,3.0846,3.2231,3.2327,3.1808,3.1846,3.1577,3.0673,3.0423,3.0404,3.0404,3.0885,3.075,3.0519,3.0615,3.1173,3.2038,3.2583,3.2889,3.2618,3.1884,3.1641,3.5616,3.5616,3.5616,3.5616,3.5583,3.5363,3.4979,3.4489,3.4121,3.3258,3.2462,3.2107,3.1681,3.1241,3.1207,3.119,3.119,3.119,3.119,3.119,3.119,3.0784,3.0131,2.9521,2.915,2.9003,2.8702,2.8589,2.8964,2.8987,2.8594,2.7835,2.786,2.7457,2.6712,2.6693,2.619,2.5613,2.6043,2.597,2.5595,2.5823,2.575,2.5393,2.5731,2.5603,2.5227,2.5676,2.5658,2.5172,2.5676,2.5978,2.5841,2.586,2.5952,2.619,2.6282,2.6245,2.6227,2.6888,2.7941,2.8822,2.8767,2.8767,2.895,2.8987,2.8987,2.8987,2.8987,2.8987,2.8987,2.8987,2.8987,2.8987,2.8987,2.8987,2.9055,2.9349,2.95,2.9232,2.9349,2.9654,3.0178,3.112,3.1673,3.0942,3.0615,3.0712,3.1019,3.0462,3.0538,3.1365,3.1654,3.1404,3.1769,3.3385,3.3885,3.3141,3.3006,3.3077,3.1769,3.0481,3.0442,3.0404,3.1981,3.2346,3.1519,3.1096,3.2019,3.3026,3.3801,3.4251,3.388,3.332,3.3394,3.5616,3.5616,3.5616,3.5616,3.5616,3.5616,3.5346,3.4962,3.459,3.4049,3.3224,3.253,3.2073,3.1667,3.1343,3.119,3.119,3.119,3.119,3.119,3.119,3.0954,3.0523,3.0137,2.9795,2.9465,2.905,2.8938,2.8983,2.8987,2.8712,2.8429,2.8301,2.8062,2.7739,2.7592,2.72,2.666,2.6888,2.6851,2.6513,2.6502,2.6594,2.6329,2.6612,2.6319,2.6043,2.6667,2.6733,2.6182,2.6337,2.651,2.63,2.6492,2.6693,2.6877,2.7034,2.7236,2.7629,2.8069,2.8484,2.8895,2.8987,2.8987,2.8987,2.8987,2.8987,2.8987,2.8987,2.8987,2.8987,2.8987,2.8987,2.8987,2.8987,2.8987,2.8987,2.9299,2.9412,2.9384,2.9598,2.9948,3.0278,3.1668,3.2417,3.2442,3.2019,3.2288,3.25,3.1481,3.1212,3.2423,3.3038,3.2923,3.2788,3.3962,3.4808,3.4199,3.4007,3.4154,3.2904,3.1192,3.0788,3.1212,3.2833,3.3757,3.3,3.2481,3.2904,3.3904,3.4923,3.5226,3.4756,3.4425,3.4617,3.5616,3.5616,3.5616,3.5616,3.5616,3.5616,3.5566,3.5447,3.4945,3.4556,3.415,3.3072,3.2547,3.2276,3.1684,3.1292,3.119,3.119,3.1247,3.1249,3.1269,3.1203,3.1162,3.0672,3.0299,2.9982,2.9683,2.9306,2.9076,2.8987,2.8987,2.8877,2.8895,2.895,2.8712,2.8822,2.8539,2.7805,2.7787,2.7769,2.753,2.7273,2.7291,2.7394,2.7053,2.6979,2.7071,2.7512,2.7585,2.6895,2.684,2.6814,2.641,2.6722,2.7079,2.7537,2.7842,2.8209,2.8767,2.8822,2.8932,2.8987,2.8987,2.8987,2.8987,2.8987,2.8987,2.8987,2.8987,2.8987,2.8987,2.8987,2.8987,2.8987,2.8987,2.8987,2.9033,2.9174,2.9304,2.9334,2.976,3.0118,3.0606,3.1519,3.2923,3.4019,3.3692,3.3712,3.375,3.3135,3.3385,3.4462,3.4712,3.4661,3.45,3.45,3.5019,3.5135,3.5019,3.4846,3.3962,3.2635,3.1731,3.2019,3.3808,3.4769,3.4808,3.4558,3.4308,3.45,3.5288,3.5483,3.5438,3.5181,3.519,3.5616,3.5616,3.5616,3.5616,3.5616,3.5616,3.5616,3.5583,3.543,3.503,3.4523,3.4138,3.3359,3.2344,3.2141,3.1785,3.1295,3.1244,3.1269,3.144,3.1483,3.156,3.1498,3.1025,3.0489,3.0159,2.9701,2.936,2.9113,2.9042,2.8987,2.8987,2.8987,2.8987,2.8987,2.8968,2.8613,2.8044,2.8393,2.8356,2.8081,2.8227,2.8161,2.7915,2.764,2.7897,2.8363,2.8656,2.8656,2.8528,2.84,2.8198,2.8143,2.8253,2.8381,2.8473,2.862,2.8803,2.8968,2.8987,2.8987,2.8987,2.8987,2.8987,2.8987,2.8987,2.8987,2.8987,2.8987,2.8987,2.8987,2.8987,2.8987,2.8987,2.8987,2.8987,2.9021,2.9229,2.9421,2.9414,2.9753,3.0126,3.0451,3.175,3.3295,3.4942,3.5327,3.5173,3.4846,3.4462,3.4865,3.55,3.5385,3.5135,3.5077,3.4942,3.5173,3.55,3.55,3.5442,3.4558,3.4276,3.3442,3.3788,3.4885,3.5423,3.5462,3.5442,3.4942,3.5308,3.5488,3.5515,3.5534,3.5547,3.556,3.5616,3.5616,3.5616,3.5616,3.5616,3.5616,3.5616,3.5616,3.5616,3.538,3.4996,3.4675,3.4053,3.3275,3.2632,3.2056,3.1721,3.1443,3.1445,3.1637,3.1786,3.1932,3.2109,3.1793,3.138,3.084,3.037,2.9969,2.96,2.9207,2.8987,2.8987,2.8987,2.8987,2.8987,2.8987,2.8803,2.8528,2.8748,2.8767,2.8539,2.873,2.8877,2.8436,2.8374,2.8601,2.8913,2.8968,2.8987,2.8987,2.8987,2.8987,2.8987,2.8987,2.8987,2.8987,2.8987,2.8987,2.8987,2.8987,2.8987,2.8987,2.8987,2.8987,2.8987,2.8987,2.8987,2.8987,2.8987,2.8987,2.8987,2.8987,2.8987,2.8987,2.8987,2.8987,2.915,2.9795,2.9946,2.9699,3.0058,3.0373,3.1001,3.2244,3.3442,3.5058,3.5442,3.5327,3.5327,3.5038,3.5154,3.55,3.55,3.5442,3.5442,3.5385,3.5346,3.55,3.55,3.55,3.5135,3.5173,3.5269,3.5462,3.5442,3.5462,3.5481,3.55,3.55,3.55,3.5488,3.5494,3.5501,3.5501,3.5527,3.5616,3.5616,3.5616,3.5616,3.5616,3.5616,3.5616,3.5616,3.5616,3.5566,3.5515,3.4928,3.4539,3.4015,3.3038,3.2446,3.2038,3.1844,3.1711,3.1932,3.2144,3.235,3.255,3.2606,3.2467,3.1852,3.1351,3.086,3.0119,2.9555,2.9225,2.906,2.8987,2.8987,2.8987,2.8987,2.895,2.8895,2.8932,2.8987,2.8913,2.8968,2.895,2.8913,2.8895,2.8895,2.8987,2.8987,2.8987,2.8987,2.8987,2.8987,2.8987,2.8987,2.8987,2.8987,2.8987,2.8987,2.8987,2.8987,2.8987,2.8987,2.8987,2.8987,2.8987,2.8987,2.8987,2.8987,2.8987,2.8987,2.8987,2.8987,2.8987,2.8987,2.8987,2.9207,2.9909,3.1083,3.0961,2.9613,3.0458,3.1366,3.1891,3.2852,3.3961,3.4923,3.5269,3.55,3.55,3.55,3.55,3.55,3.55,3.55,3.55,3.55,3.55,3.55,3.55,3.55,3.55,3.55,3.55,3.55,3.5481,3.55,3.55,3.55,3.55,3.55,3.5488,3.5488,3.5488,3.5481,3.5526,3.5616,3.5616,3.5616,3.5616,3.5616,3.5616,3.5616,3.5616,3.5616,3.5616,3.5566,3.5414,3.4619,3.3829,3.344,3.2642,3.1908,3.1817,3.2074,3.2317,3.255,3.2813,3.3019,3.319,3.3204,3.3027,3.2442,3.1508,3.057,3.0026,2.961,2.9152,2.8987,2.8987,2.8987,2.8987,2.8987,2.8987,2.8987,2.8987,2.8987,2.8987,2.8987,2.8987,2.8987,2.8987,2.8987,2.8987,2.8987,2.8987,2.8987,2.8987,2.8987,2.8987,2.8987,2.8987,2.8987,2.8987,2.8987,2.8987,2.8987,2.8987,2.8987,2.8987,2.8987,2.8987,2.8987,2.8987,2.8987,2.8987,2.8987,2.8987,2.8987,2.8987,2.9464,3.0198,3.2137,3.2787,3.2224,3.0312,3.1333,3.2598,3.3179,3.3686,3.4491,3.5146,3.5332,3.5474,3.55,3.55,3.55,3.55,3.55,3.55,3.55,3.55,3.55,3.55,3.55,3.55,3.55,3.55,3.55,3.55,3.55,3.55,3.55,3.55,3.55,3.55,3.55,3.55,3.5558,3.5615,3.5596,3.5616,3.5616,3.5616,3.5616,3.5616,3.5616,3.5616,3.5616,3.5616,3.5616,3.5481,3.5177,3.4692,3.3897,3.3068,3.2355,3.1934,3.2056,3.2418,3.2779,3.305,3.3262,3.3426,3.3577,3.3619,3.3533,3.3182,3.2514,3.1445,3.0528,3.0087,2.9647,2.9244,2.8987,2.8987,2.8987,2.9005,2.9005,2.8987,2.8987,2.8987,2.8987,2.8987,2.8987,2.8987,2.8987,2.8987,2.8987,2.8987,2.8987,2.8987,2.8987,2.8987,2.8987,2.8987,2.8987,2.8987,2.8987,2.8987,2.8987,2.8987,2.8987,2.9005,2.8987,2.8987,2.8987,2.9042,2.9005,2.8987,2.8987,2.8987,2.9023,2.8987,2.9317,3.0308,3.2027,3.3256,3.3715,3.2724,3.1421,3.2481,3.3577,3.4412,3.4877,3.5239,3.5424,3.5453,3.5467,3.55,3.55,3.55,3.55,3.55,3.55,3.55,3.55,3.55,3.55,3.55,3.55,3.55,3.55,3.55,3.55,3.55,3.55,3.55,3.55,3.55,3.5519,3.5635,3.5712,3.5731,3.575,3.5904,3.5616,3.5616,3.5616,3.5616,3.5616,3.5616,3.5622,3.5644,3.5684,3.5734,3.5649,3.5166,3.4763,3.41,3.3045,3.2151,3.1968,3.2351,3.2813,3.3187,3.3412,3.3615,3.3753,3.3807,3.3793,3.3748,3.3707,3.3385,3.2362,3.1427,3.076,3.0375,2.9739,2.9335,2.9354,2.9372,2.9207,2.9005,2.8987,2.8987,2.8987,2.8987,2.8987,2.8987,2.8987,2.8987,2.8987,2.8987,2.8987,2.8987,2.8987,2.8987,2.8987,2.8987,2.8987,2.8987,2.8987,2.8987,2.8987,2.8987,2.8987,2.8987,2.917,2.9225,2.9299,2.939,2.9299,2.9097,2.9317,2.9519,2.9647,2.9225,2.9262,3.0087,3.1953,3.3788,3.3697,3.3807,3.3807,3.3388,3.3908,3.4136,3.4569,3.4973,3.5134,3.5297,3.5327,3.5474,3.55,3.55,3.55,3.55,3.55,3.55,3.55,3.55,3.55,3.55,3.55,3.55,3.55,3.55,3.55,3.55,3.55,3.55,3.55,3.55,3.55,3.5577,3.5788,3.5846,3.5769,3.6308,3.6853,3.5616,3.5616,3.5616,3.5616,3.5616,3.5616,3.5684,3.5795,3.5927,3.6019,3.6127,3.5989,3.5239,3.4042,3.2887,3.2336,3.2453,3.2782,3.3144,3.3459,3.3601,3.3712,3.3775,3.3807,3.3807,3.3807,3.3807,3.3348,3.2766,3.2344,3.1861,3.1311,3.0999,3.076,3.0099,2.9916,2.9684,2.9152,2.9005,2.8987,2.8987,2.8987,2.8987,2.8987,2.8987,2.8987,2.8987,2.8987,2.8987,2.8987,2.8987,2.8987,2.8987,2.8987,2.8987,2.8987,2.8987,2.8987,2.9005,2.8987,2.9133,2.9262,2.961,2.9959,3.0155,3.0155,2.9934,2.9097,2.9824,3.065,3.076,2.9861,2.9989,3.0944,3.2522,3.3587,3.3807,3.3807,3.3807,3.3807,3.3873,3.386,3.4055,3.4502,3.4879,3.5053,3.5219,3.5383,3.55,3.55,3.55,3.55,3.55,3.55,3.55,3.55,3.55,3.55,3.55,3.55,3.55,3.55,3.55,3.55,3.55,3.55,3.55,3.55,3.55,3.5808,3.6269,3.6058,3.5692,3.6546,3.7738,3.5616,3.5616,3.5616,3.5616,3.5616,3.5616,3.5734,3.5932,3.6135,3.6308,3.6394,3.6197,3.5279,3.402,3.3317,3.311,3.2999,3.3193,3.3448,3.3615,3.3726,3.378,3.3807,3.3807,3.3807,3.3807,3.3788,3.3715,3.3238,3.2784,3.2344,3.2118,3.1641,3.1231,3.0834,3.0411,3.0063,2.9647,2.928,2.9005,2.8987,2.9005,2.9005,2.9023,2.9042,2.906,2.906,2.8987,2.8987,2.8987,2.8987,2.8987,2.8987,2.8987,2.9005,2.9042,2.9464,2.9464,2.9097,2.9042,2.9354,2.9769,3.0191,3.0485,3.0962,3.0938,3.1231,3.1788,3.1513,3.1874,3.221,3.1256,3.0999,3.1654,3.2957,3.3421,3.3807,3.3807,3.3807,3.3807,3.3807,3.3807,3.3807,3.4074,3.4556,3.4935,3.5102,3.5289,3.5424,3.55,3.55,3.55,3.55,3.55,3.55,3.55,3.55,3.55,3.55,3.55,3.55,3.55,3.55,3.55,3.55,3.55,3.5558,3.55,3.55,3.6115,3.6846,3.6788,3.6834,3.77,3.8775,3.5616,3.5616,3.5616,3.5622,3.5667,3.5689,3.5888,3.6174,3.6471,3.6701,3.6712,3.6395,3.551,3.4564,3.4269,3.389,3.362,3.3582,3.3647,3.3753,3.3807,3.3807,3.3807,3.3807,3.3807,3.3807,3.3807,3.3752,3.3587,3.3293,3.2968,3.2876,3.2485,3.1971,3.1586,3.1256,3.0858,3.0467,2.9769,2.9537,2.9647,2.9464,2.9519,2.9574,2.9592,2.9592,2.9574,2.9372,2.9335,2.9335,2.9078,2.9005,2.8987,2.8987,2.9372,2.9592,3.0099,3.0044,2.9849,2.9879,3.0081,3.0485,3.0999,3.1476,3.2296,3.1837,3.1764,3.333,3.2963,3.3073,3.3293,3.2559,3.2339,3.2485,3.3146,3.3532,3.3807,3.3807,3.3807,3.3807,3.3807,3.3807,3.3807,3.3807,3.4172,3.4696,3.4999,3.5209,3.5354,3.5474,3.55,3.55,3.55,3.55,3.55,3.55,3.55,3.5558,3.5558,3.55,3.55,3.55,3.55,3.55,3.5596,3.6584,3.7315,3.6392,3.5558,3.6231,3.6949,3.7834,3.8354,3.9092,3.9576,3.5616,3.5616,3.5616,3.5667,3.5778,3.5932,3.6195,3.6574,3.6898,3.7226,3.7398,3.695,3.6657,3.6169,3.5252,3.4706,3.4506,3.3962,3.3822,3.3817,3.3807,3.3807,3.3807,3.3807,3.3807,3.3807,3.3807,3.3807,3.3788,3.3678,3.3623,3.366,3.3293,3.3036,3.2651,3.2192,3.1678,3.1182,3.0448,3.0485,3.0632,3.0558,3.0411,3.0962,3.1146,3.1219,3.1164,3.0485,3.0118,3.0087,2.9647,2.9262,2.9317,2.9372,2.9898,3.0687,3.0705,3.0779,3.0907,3.0925,3.1176,3.1494,3.1971,3.2577,3.3256,3.3568,3.3752,3.3733,3.3476,3.3568,3.3733,3.3642,3.3238,3.3311,3.3476,3.3605,3.3807,3.3807,3.3807,3.3807,3.3807,3.3807,3.3939,3.3965,3.4148,3.4685,3.4999,3.5218,3.5369,3.55,3.55,3.55,3.55,3.55,3.5519,3.5673,3.6154,3.6019,3.5827,3.5654,3.55,3.55,3.5519,3.5865,3.6173,3.7642,3.8746,3.7834,3.7103,3.6699,3.7161,3.8527,3.9142,3.9554,3.9977,3.5616,3.5616,3.5616,3.5711,3.5932,3.6174,3.6495,3.6937,3.7395,3.7861,3.8201,3.8008,3.7656,3.7124,3.6717,3.5773,3.4983,3.4645,3.4275,3.3903,3.3807,3.3807,3.3807,3.388,3.3807,3.3844,3.3825,3.3807,3.3807,3.3807,3.3807,3.3807,3.3807,3.366,3.3311,3.2852,3.2228,3.1623,3.1164,3.1195,3.1195,3.1182,3.1072,3.1329,3.1403,3.1403,3.1311,3.1109,3.098,3.0852,3.0577,3.0265,3.0044,3.0228,3.087,3.177,3.1604,3.1788,3.1898,3.1806,3.1604,3.2265,3.2852,3.3458,3.3788,3.3807,3.3807,3.3807,3.3807,3.3807,3.3807,3.3788,3.3697,3.3788,3.3807,3.3807,3.3807,3.3807,3.3807,3.3807,3.3807,3.3807,3.3978,3.4124,3.4371,3.4674,3.4963,3.5237,3.5415,3.5654,3.5731,3.5538,3.55,3.6019,3.6115,3.65,3.6949,3.6642,3.6238,3.6038,3.5904,3.5538,3.5654,3.6077,3.7103,3.8738,3.9534,3.9161,3.8777,3.845,3.8873,3.9804,4.0131,4.0073,4.0246,3.5616,3.5616,3.5616,3.5778,3.6084,3.6354,3.6781,3.7264,3.7773,3.8285,3.8673,3.867,3.8414,3.7933,3.7477,3.6964,3.5962,3.5518,3.5078,3.4835,3.4688,3.4541,3.4468,3.4357,3.4284,3.4119,3.3862,3.3807,3.3807,3.3807,3.3807,3.3807,3.3807,3.377,3.3642,3.3275,3.2651,3.2228,3.1843,3.1971,3.2076,3.188,3.2008,3.2137,3.2284,3.2284,3.2192,3.2008,3.177,3.1641,3.1458,3.1268,3.1213,3.136,3.1856,3.2339,3.2632,3.2693,3.2711,3.2614,3.2375,3.2963,3.3348,3.3715,3.3807,3.3807,3.3807,3.3807,3.3807,3.3807,3.3807,3.3807,3.3807,3.3807,3.3807,3.3807,3.3807,3.3807,3.3807,3.3807,3.3807,3.382,3.4033,3.4247,3.4712,3.4946,3.5166,3.5404,3.5578,3.5846,3.6192,3.5885,3.55,3.6192,3.693,3.7296,3.7642,3.7719,3.7296,3.6796,3.6519,3.6346,3.6853,3.793,3.9065,4.0189,4.0246,3.9823,3.9996,4.0265,4.0458,4.0419,4.04,4.0304,4.0362,3.5616,3.5616,3.5616,3.5822,3.6229,3.6542,3.7018,3.7541,3.807,3.8453,3.8673,3.8707,3.8689,3.8414,3.7933,3.7437,3.707,3.6505,3.6101,3.5917,3.5752,3.6009,3.5789,3.5371,3.4894,3.4766,3.4394,3.4009,3.3807,3.3807,3.3807,3.3807,3.3807,3.3807,3.3788,3.3788,3.3733,3.3605,3.2871,3.3018,3.3164,3.2834,3.2944,3.3201,3.333,3.3275,3.3164,3.2816,3.2596,3.2522,3.2063,3.1966,3.2186,3.1837,3.2357,3.344,3.2981,3.3073,3.3605,3.366,3.3605,3.355,3.3752,3.3788,3.3807,3.3807,3.3807,3.3807,3.3807,3.3807,3.3807,3.3807,3.3807,3.3807,3.3807,3.3807,3.3807,3.3807,3.3807,3.3807,3.3807,3.3852,3.4052,3.437,3.4968,3.5299,3.5426,3.5577,3.5731,3.6769,3.7411,3.6834,3.6449,3.7046,3.7834,3.8065,3.8315,3.8476,3.8476,3.8123,3.8238,3.8565,3.9207,3.9938,4.0131,4.0458,4.0496,4.0419,4.0496,4.0496,4.0496,4.0477,4.0496,4.0496,4.0496,3.5616,3.5616,3.5616,3.5866,3.6301,3.6823,3.7284,3.7756,3.8287,3.8611,3.8673,3.8707,3.8707,3.8579,3.8432,3.8006,3.7511,3.7364,3.6978,3.6376,3.6413,3.6266,3.6174,3.6064,3.5605,3.5096,3.4637,3.4229,3.3807,3.3825,3.3807,3.3807,3.3807,3.3807,3.3807,3.3807,3.3788,3.3752,3.3532,3.3532,3.3733,3.3532,3.3513,3.3807,3.3807,3.3807,3.3807,3.3385,3.3311,3.3311,3.2834,3.2963,3.3141,3.2852,3.3164,3.377,3.3421,3.3513,3.377,3.377,3.3788,3.3807,3.3807,3.3807,3.3807,3.3807,3.3807,3.3807,3.3807,3.3807,3.3807,3.3807,3.3807,3.3807,3.3807,3.3807,3.3807,3.3807,3.3807,3.3807,3.3807,3.4683,3.5114,3.5489,3.6005,3.5894,3.5959,3.5808,3.5858,3.8115,3.9431,3.843,3.795,3.8354,3.8777,3.9008,3.9238,3.9457,3.9708,3.9765,4.0054,4.0169,4.0208,4.0227,4.0362,4.0496,4.0496,4.0496,4.0496,4.0496,4.0496,4.0496,4.0496,4.0496,4.0496,3.5616,3.5616,3.5616,3.5871,3.6346,3.6941,3.7524,3.8085,3.8515,3.8707,3.8707,3.8707,3.8707,3.8707,3.8652,3.8524,3.7918,3.79,3.7808,3.7129,3.7165,3.7257,3.7184,3.6798,3.6505,3.583,3.5169,3.4674,3.4284,3.3954,3.3825,3.3807,3.3825,3.3807,3.3807,3.3807,3.3807,3.3788,3.3715,3.3733,3.3807,3.3752,3.377,3.3807,3.3807,3.3807,3.3807,3.3807,3.3807,3.3807,3.3807,3.3807,3.3807,3.3807,3.3807,3.3807,3.3807,3.3788,3.3807,3.3807,3.3807,3.3807,3.3807,3.3807,3.3807,3.3807,3.3807,3.3807,3.3844,3.3844,3.388,3.3862,3.3972,3.3972,3.4174,3.4192,3.4082,3.41,3.4853,3.4724,3.4504,3.5418,3.6295,3.6791,3.7222,3.6866,3.652,3.6358,3.638,3.8596,4.0469,3.9681,3.9084,3.9373,3.9681,3.9988,4.0227,4.0458,4.0496,4.0496,4.0477,4.0362,4.0439,4.0496,4.0496,4.0496,4.0496,4.0496,4.0496,4.0496,4.0496,4.0496,4.0496,4.0496,4.0496,3.5616,3.56,3.5622,3.591,3.6388,3.7018,3.7808,3.8643,3.8692,3.8707,3.8707,3.8707,3.8707,3.8707,3.8707,3.8652,3.8579,3.8579,3.8505,3.8487,3.8267,3.8395,3.8212,3.7826,3.7364,3.6835,3.6174,3.5371,3.4949,3.438,3.4027,3.41,3.4321,3.4339,3.4302,3.4137,3.4027,3.388,3.3807,3.3807,3.3807,3.3807,3.3807,3.3807,3.3807,3.3807,3.3807,3.3807,3.3807,3.3807,3.3807,3.3807,3.3807,3.3807,3.3807,3.3807,3.3807,3.3807,3.3807,3.3807,3.3807,3.3807,3.3807,3.3807,3.3807,3.3807,3.3807,3.3972,3.4119,3.4027,3.399,3.4137,3.4284,3.4504,3.478,3.4724,3.4578,3.5055,3.6064,3.6156,3.5642,3.6134,3.7136,3.7757,3.7917,3.7808,3.7574,3.7784,3.7987,3.8935,4.0431,4.0458,4.0092,4.0265,4.0496,4.0496,4.0496,4.0496,4.0496,4.0496,4.0496,4.0496,4.0496,4.0496,4.0496,4.0496,4.0496,4.0496,4.0496,4.0496,4.0496,4.0496,4.0496,4.0496,4.0496,3.5644,3.5734,3.5861,3.6156,3.6739,3.7505,3.8168,3.8658,3.8707,3.8707,3.8707,3.8707,3.8707,3.8707,3.8707,3.8707,3.8707,3.8707,3.8689,3.8707,3.8707,3.8707,3.8597,3.8377,3.8006,3.7547,3.6886,3.6083,3.5243,3.4692,3.5059,3.5532,3.5312,3.5404,3.5238,3.4963,3.4449,3.4009,3.3954,3.3807,3.3807,3.3807,3.3807,3.3807,3.3807,3.3807,3.3807,3.3807,3.3807,3.3807,3.3807,3.3807,3.3807,3.3807,3.3807,3.3807,3.3807,3.3807,3.3807,3.3807,3.3807,3.3825,3.3844,3.3807,3.3807,3.3844,3.388,3.4247,3.4541,3.4559,3.4376,3.4412,3.489,3.544,3.5881,3.6285,3.6174,3.6486,3.7422,3.7386,3.6872,3.6886,3.7889,3.822,3.8357,3.8442,3.8577,3.8803,3.9194,3.9994,4.0385,4.0469,4.0496,4.0496,4.0496,4.0496,4.0496,4.0496,4.0496,4.0496,4.0496,4.0496,4.0496,4.0496,4.0496,4.0496,4.0496,4.0496,4.0496,4.0496,4.0496,4.0496,4.0496,4.0496,4.0496,3.5711,3.5888,3.6088,3.6577,3.7266,3.7896,3.8387,3.8661,3.8707,3.8707,3.8707,3.8707,3.8707,3.8707,3.8707,3.8707,3.8707,3.8707,3.8707,3.8707,3.8707,3.8707,3.8707,3.867,3.8414,3.8025,3.7584,3.6923,3.6064,3.5646,3.5881,3.6119,3.6285,3.6303,3.6083,3.5716,3.5349,3.4761,3.4302,3.3935,3.3862,3.388,3.3825,3.3899,3.388,3.388,3.388,3.3899,3.3862,3.3825,3.3807,3.3807,3.3807,3.3807,3.3807,3.3807,3.3807,3.3807,3.3807,3.3807,3.3807,3.3917,3.4119,3.4289,3.4156,3.4082,3.4449,3.4853,3.5055,3.5147,3.489,3.4798,3.5679,3.6538,3.7294,3.8083,3.8157,3.8212,3.834,3.8414,3.8248,3.8028,3.8267,3.856,3.8747,3.8789,3.8934,3.9206,3.9532,4.0111,4.0399,4.0496,4.0496,4.0496,4.0496,4.0496,4.0496,4.0496,4.0496,4.0496,4.0496,4.0496,4.0496,4.0496,4.0496,4.0496,4.0496,4.0496,4.0496,4.0496,4.0496,4.0496,4.0496,4.0496,4.0496,3.5739,3.6041,3.6371,3.7039,3.7912,3.8203,3.8469,3.8673,3.8707,3.8707,3.8707,3.8707,3.8707,3.8707,3.8707,3.8707,3.8707,3.8707,3.8707,3.8707,3.8707,3.8707,3.8707,3.8689,3.8597,3.8395,3.8102,3.7661,3.7401,3.689,3.645,3.645,3.667,3.6835,3.6853,3.6523,3.6248,3.6028,3.5092,3.4412,3.4284,3.4119,3.399,3.4137,3.4174,3.4156,3.4137,3.4064,3.399,3.4027,3.4082,3.4192,3.4229,3.4247,3.4229,3.4229,3.4394,3.4045,3.41,3.4174,3.4284,3.4449,3.4669,3.5133,3.5183,3.4835,3.5165,3.5624,3.5899,3.6156,3.6028,3.6028,3.6615,3.7312,3.7991,3.8432,3.8505,3.8524,3.8542,3.8615,3.8579,3.8414,3.845,3.8707,3.875,3.8954,3.9087,3.9338,3.975,4.0204,4.0389,4.0473,4.0496,4.0496,4.0496,4.0496,4.0496,4.0496,4.0496,4.0496,4.0496,4.0496,4.0496,4.0496,4.0496,4.0496,4.0496,4.0496,4.0496,4.0496,4.0496,4.0496,4.0496,4.0496,4.0496,3.5822,3.6212,3.6939,3.7632,3.8204,3.8366,3.8546,3.8707,3.8707,3.8707,3.8707,3.8707,3.8707,3.8707,3.8707,3.8707,3.8707,3.8707,3.8707,3.8707,3.8707,3.8707,3.8707,3.8707,3.8707,3.867,3.8505,3.8303,3.812,3.7661,3.7514,3.7991,3.7973,3.7863,3.7845,3.7496,3.718,3.7125,3.6376,3.5697,3.5679,3.5697,3.5697,3.5624,3.5587,3.5495,3.5514,3.5569,3.5642,3.5716,3.5716,3.5734,3.5716,3.5661,3.5679,3.5697,3.5477,3.4926,3.4596,3.489,3.5404,3.5624,3.5973,3.6376,3.6413,3.5987,3.5954,3.645,3.6798,3.7074,3.7239,3.7312,3.7441,3.8028,3.8542,3.8615,3.8707,3.8707,3.8707,3.8707,3.8707,3.8707,3.8707,3.8719,3.8795,3.8851,3.8925,3.9137,3.9587,4.002,4.0332,4.0444,4.0481,4.0496,4.0496,4.0496,4.0496,4.0496,4.0496,4.0496,4.0496,4.0496,4.0496,4.0496,4.0496,4.0496,4.0496,4.0496,4.0496,4.0496,4.0496,4.0496,4.0496,4.0496,4.0496,3.5866,3.6343,3.7246,3.7984,3.8419,3.8562,3.8624,3.8692,3.8707,3.8707,3.8707,3.8707,3.8707,3.8707,3.8707,3.8707,3.8707,3.8707,3.8707,3.8707,3.8707,3.8707,3.8707,3.8707,3.8707,3.8707,3.8707,3.8634,3.8597,3.8414,3.834,3.867,3.8707,3.8689,3.8634,3.823,3.8006,3.801,3.7459,3.7312,3.7129,3.6798,3.6358,3.6285,3.6303,3.634,3.6285,3.6285,3.6285,3.6266,3.6193,3.6193,3.6138,3.6138,3.6211,3.6211,3.6083,3.5881,3.5514,3.5771,3.6707,3.6964,3.689,3.7162,3.7257,3.6942,3.7331,3.7771,3.7845,3.8083,3.8046,3.8102,3.8138,3.8505,3.8634,3.867,3.8707,3.8707,3.8707,3.8707,3.8707,3.8707,3.8707,3.8707,3.875,3.875,3.8807,3.8881,3.9311,3.9815,4.0139,4.0411,4.0465,4.0496,4.0496,4.0496,4.0496,4.0496,4.0496,4.0496,4.0496,4.0496,4.0496,4.0496,4.0496,4.0496,4.0496,4.0496,4.0496,4.0496,4.0496,4.0496,4.0496,4.0554,4.0746,3.5937,3.6516,3.7414,3.8153,3.8643,3.8707,3.8707,3.8707,3.8707,3.8707,3.8707,3.8707,3.8707,3.8707,3.8707,3.8707,3.8707,3.8707,3.8707,3.8707,3.8707,3.8707,3.8707,3.8707,3.8707,3.8707,3.8707,3.8707,3.867,3.856,3.856,3.8689,3.8707,3.8707,3.8707,3.8689,3.8579,3.8542,3.8377,3.8542,3.8065,3.7404,3.6982,3.6707,3.6597,3.6615,3.6615,3.6633,3.6633,3.6707,3.6872,3.6909,3.6927,3.6982,3.6909,3.6945,3.6964,3.6835,3.667,3.6743,3.7569,3.801,3.7804,3.7731,3.7841,3.8046,3.8469,3.8597,3.867,3.8689,3.867,3.8652,3.8689,3.8707,3.8707,3.8707,3.8707,3.8707,3.8707,3.8707,3.8707,3.8707,3.8707,3.8707,3.8707,3.8707,3.8719,3.878,3.8993,3.9526,3.9967,4.0288,4.0473,4.0496,4.0496,4.0496,4.0496,4.0496,4.0496,4.0496,4.0496,4.0496,4.0496,4.0496,4.0496,4.0496,4.0496,4.0496,4.0496,4.0496,4.0496,4.0496,4.0496,4.0631,4.1073,3.6165,3.7076,3.7596,3.8153,3.8643,3.8707,3.8707,3.8707,3.8707,3.8707,3.8707,3.8707,3.8707,3.8707,3.8707,3.8707,3.8707,3.8707,3.8707,3.8707,3.8707,3.8707,3.8707,3.8707,3.8707,3.8707,3.8707,3.8707,3.8707,3.8707,3.8707,3.8707,3.8707,3.8707,3.8707,3.8707,3.8707,3.8707,3.8707,3.8707,3.8707,3.8322,3.8358,3.823,3.823,3.8248,3.8248,3.8267,3.8267,3.8248,3.812,3.8046,3.7973,3.7936,3.7918,3.7845,3.7863,3.79,3.7845,3.7845,3.8469,3.8487,3.8285,3.8322,3.8395,3.8414,3.8652,3.8652,3.8707,3.8707,3.8689,3.8689,3.8707,3.8707,3.8707,3.8707,3.8707,3.8707,3.8707,3.8707,3.8707,3.8707,3.8707,3.8723,3.8735,3.8719,3.8689,3.875,3.8792,3.9272,3.9804,4.0158,4.0473,4.0496,4.0496,4.0496,4.0496,4.0496,4.0496,4.0496,4.0496,4.0496,4.0496,4.0496,4.0496,4.0496,4.0496,4.0496,4.0496,4.0496,4.0496,4.0496,4.0496,4.0843,4.1401]}]]